     2              OBSERVATION DATA    GPS                 RINEX VERSION / TYPE
FIC2RX 9.60 97/08/04                                        PGM / RUN BY / DATE
                                                            COMMENT
Operator input collection int (sec) 30.0000                 COMMENT
Operator input collection int (sec) 30.0000                 COMMENT
Operator input collection int (sec) 30.0000                 COMMENT
Operator input collection int (sec) 30.0000                 COMMENT
Original Marker Name: OCOT55477                             COMMENT
Campaign Name: STRC 1988 University                         COMMENT
4-Character Station Name: OCOT                              COMMENT
6-Character Antenna Code: TI4100                            COMMENT
Vertical Measurement Point: PAE                             COMMENT
Vertical Offset to Rinex Ref. Point: 0.0000                 COMMENT
Radial Measurement Point: PAE                               COMMENT
Radial Offset to Rinex Ref. Point: 0.0842                   COMMENT
Antenna Height from Field Measurement: 1.2790 m             COMMENT
Original XYZ: 0.0000 0.0000 0.0000                          COMMENT
New XYZ position is based on association with SCEC monument COMMENT
E1C8V7N3+0011. Position of that monument is believed to be  COMMENT
valid to within 1 m horizontally; vertical accuracy         COMMENT
should be no worse than 3-times this value.                 COMMENT
                                                            COMMENT
Revised Rinex header created by UCSD GPS archive for        COMMENT
GSAC on 10-Apr-1999 (1999:100) 05:36:46 GMT                 COMMENT
For assistance contact dagnew@ucsd.edu or hjohnson@ucsd.edu COMMENT
                                                            COMMENT
OCOTILLO NCMN 1983                                          MARKER NAME
RR MASS INST. OF TECHNOLOGY                                 OBSERVER / AGENCY
UNO1 TI 4100 GES 1.50                                       REC # / TYPE / VERS
UN01 TI 4100                                                ANT # / TYPE
 -2335602.0000 -4832244.0000  3434393.0000                  APPROX POSITION XYZ
        1.2762        0.0000        0.0000                  ANTENNA: DELTA H/E/N
     1     1     0                                          WAVELENGTH FACT L1/2
     4    L1    L2    P1    P2                              # / TYPES OF OBSERV
    30                                                      INTERVAL
  1988     2    26     4    55   59.000000                  TIME OF FIRST OBS
  1988     2    26    12     7   59.000000                  TIME OF LAST OBS
     7                                                      # OF SATELLITES
           6   385   385   385   385                        PRN / # OF OBS
           8   289   289   289   289                        PRN / # OF OBS
          11   560   560   560   560                        PRN / # OF OBS
           9   632   632   632   632                        PRN / # OF OBS
          13   576   576   576   576                        PRN / # OF OBS
           3   480   480   480   480                        PRN / # OF OBS
                                                            END OF HEADER
 88  2 26  4 55 59.0800000  0  2  6  8
          .195 7         -.083 7  21762003.332 0  21762004.092 0
          .039 7         -.399 6  20279925.238 0  20279923.902 0
 88  2 26  4 56 29.0800000  0  2  6  8
    -57943.546 7    -45151.043 7  21750975.438 0  21750976.948 0
    -36070.373 7    -28107.193 7  20273060.626 0  20273061.102 0
 88  2 26  4 56 59.0800000  0  2  6  8
   -115760.228 7    -90203.000 7  21739974.086 0  21739974.367 0
    -71462.284 7    -55685.303 6  20266325.529 0  20266326.217 0
 88  2 26  4 57 29.0800000  0  2  6  8
   -173448.207 7   -135154.669 7  21728997.214 0  21728997.366 0
   -106174.399 7    -82733.695 6  20259718.527 0  20259721.699 0
 88  2 26  4 57 59.0800000  0  2  6  8
   -231005.631 7   -180004.598 7  21718044.190 0  21718044.473 0
   -140205.914 7   -109251.745 6  20253244.515 0  20253245.254 0
 88  2 26  4 58 29.0800000  0  2  6  8
   -288430.610 7   -224751.330 7  21707116.481 0  21707116.083 0
   -173555.519 7   -135238.436 7  20246897.551 0  20246899.149 0
 88  2 26  4 58 59.0800000  0  2  6  8
   -345721.309 7   -269393.443 7  21696213.837 0  21696213.848 0
   -206222.841 7   -160693.510 5  20240681.692 0  20240682.857 0
 88  2 26  4 59 29.0800000  0  2  6  8
   -402875.721 8   -313929.337 7  21685338.982 0  21685337.996 0
   -238206.514 7   -185615.816 6  20234594.518 0  20234595.482 0
 88  2 26  4 59 59.0800000  0  2  6  8
   -459892.016 7   -358357.639 7  21674488.592 0  21674489.396 0
   -269505.585 7   -210004.694 6  20228638.983 0  20228639.864 0
 88  2 26  5  0 29.0800000  0  2  6  8
   -516768.528 7   -402676.991 7  21663664.800 0  21663667.150 0
   -300119.072 6   -233859.346 7  20222813.570 0  20222813.878 0
 88  2 26  5  0 59.0800000  0  2  6  8
   -573503.021 8   -446885.690 7  21652868.629 0  21652870.452 0
   -330045.738 7   -257178.835 6  20217118.691 0  20217119.015 0
 88  2 26  5  1 29.0800000  0  2  6  8
   -630093.755 7   -490982.353 6  21642099.641 0  21642100.446 0
   -359284.882 7   -279962.563 7  20211553.768 0  20211555.632 0
 88  2 26  5  1 59.0800000  0  2  6  8
   -686538.753 7   -534965.477 7  21631359.461 0  21631359.484 0
   -387836.103 7   -302210.259 6  20206121.501 0  20206122.302 0
 88  2 26  5  2 29.0800000  0  2  6  8
   -742836.105 7   -578833.547 6  21620646.010 0  21620646.783 0
   -415698.821 7   -323921.441 6  20200820.104 0  20200820.796 0
 88  2 26  5  2 59.0800000  0  2  6  8
   -798983.864 7   -622585.025 6  21609961.074 0  21609962.824 0
   -442871.934 7   -345095.290 6  20195649.717 0  20195649.121 0
 88  2 26  5  3 29.0800000  0  2  6  8
   -854980.147 8   -666218.514 7  21599305.644 0  21599306.683 0
   -469354.539 7   -365731.070 6  20190608.060 0  20190608.750 0
 88  2 26  5  3 59.0800000  0  2  6  8
   -910822.903 7   -709732.322 6  21588678.526 0  21588679.418 0
   -495146.290 7   -385828.545 6  20185700.754 0  20185701.978 0
 88  2 26  5  4 29.0800000  0  4  6  8 11  9
   -966509.945 8   -753124.818 7  21578082.461 0  21578083.682 0
   -520246.399 7   -405387.056 6  20180924.510 0  20180926.346 0
         -.361 8          .000 1  22382421.666 0          .000 0
         -.464 8          .000 1          .000 0          .000 0
 88  2 26  5  4 59.0800000  0  4  6  8 11  9
  -1022039.485 8   -796394.590 7  21567515.246 0  21567514.776 0
   -544654.211 7   -424406.116 6  20176280.165 0  20176280.995 0
    -93660.106 7     85194.969 6  22364624.022 0  22364625.503 0
    -89386.183 7    149790.545 7  23914844.811 0  23914845.800 0
 88  2 26  5  5 29.0800000  0  4  6  8 11  9
  -1077409.580 7   -839540.120 6  21556979.202 0  21556979.319 0
   -568369.245 7   -442885.353 6  20171768.251 0  20171768.184 0
   -186975.014 7     12482.065 6  22346865.894 0  22346869.504 0
   -178822.241 7     80100.116 7  23897825.095 0  23897825.891 0
 88  2 26  5  5 59.0800000  0  4  6  8 11  9
  -1132618.222 7   -882559.838 7  21546473.299 0  21546473.075 0
   -591390.877 7   -460824.276 6  20167386.378 0  20167386.740 0
   -279943.139 7    -59960.623 6  22329175.068 0  22329175.123 0
   -268308.376 7     10370.686 7  23880795.881 0  23880796.212 0
 88  2 26  5  6 29.0800000  0  4  6  8 11  9
  -1187663.395 7   -925452.193 7  21535997.044 0  21535997.505 0
   -613718.948 7   -478222.765 6  20163137.825 0  20163137.616 0
   -372562.275 7   -132131.355 6  22311550.739 0  22311552.294 0
   -357843.520 7    -59396.930 6  23863758.584 0  23863759.419 0
 88  2 26  5  6 59.0800000  0  4  6  8 11  9
  -1242543.154 7   -968215.636 7  21525554.373 0  21525554.788 0
   -635352.827 7   -495080.333 6  20159020.084 0  20159021.848 0
   -464829.840 7   -204028.131 6  22293992.469 0  22293994.597 0
   -447426.525 7   -129201.857 7  23846712.597 0  23846712.368 0
 88  2 26  5  7 29.0800000  0  4  6  8 11  9
  -1297255.478 7  -1010848.612 7  21515144.273 0  21515144.129 0
   -656292.219 6   -511396.730 6  20155035.749 0  20155036.570 0
   -556743.273 7   -275648.967 7  22276500.982 0  22276503.836 0
   -537056.173 7   -199043.122 7  23829654.997 0  23829656.822 0
 88  2 26  5  7 59.0800000  0  4  6  8 11  9
  -1351798.272 8  -1053349.485 6  21504764.134 0  21504764.787 0
   -676536.803 7   -527171.731 6  20151182.973 0  20151184.746 0
   -648300.023 7   -346991.894 6  22259079.406 0  22259081.318 0
   -626731.389 7   -268919.898 7  23812590.414 0  23812591.441 0
 88  2 26  5  8 29.0800000  0  4  6  8 11  9
  -1406169.382 8  -1095716.585 7  21494417.463 0  21494418.216 0
   -696086.134 7   -542404.967 6  20147463.039 0  20147463.540 0
   -739497.359 7   -418054.728 6  22241725.210 0  22241726.727 0
   -716451.042 7   -338831.316 6  23795518.027 0  23795518.373 0
 88  2 26  5  8 59.0800000  0  4  6  8 11  9
  -1460367.005 7  -1137948.500 7  21484104.626 0  21484105.639 0
   -714939.619 7   -557095.992 6  20143876.377 0  20143876.448 0
   -830333.123 7   -488835.840 6  22224440.225 0  22224441.630 0
   -806213.984 6   -408776.440 7  23778435.952 0  23778438.091 0
 88  2 26  5  9 29.0800000  0  4  6  8 11  9
  -1514388.946 8  -1180043.511 7  21473824.720 0  21473825.085 0
   -733097.020 7   -571244.612 6  20140420.699 0  20140420.483 0
   -920804.989 7   -559333.380 6  22207223.389 0  22207225.497 0
   -896018.965 6   -478754.305 6  23761346.507 0  23761347.491 0
 88  2 26  5  9 59.0800000  0  4  6  8 11  9
  -1568232.977 8  -1221999.899 7  21463578.546 0  21463577.746 0
   -750558.046 7   -584850.595 6  20137097.868 0  20137098.167 0
  -1010910.032 7   -629545.088 6  22190076.631 0  22190078.988 0
   -985864.824 6   -548764.058 6  23744250.100 0  23744250.574 0
 88  2 26  5 10 29.0800000  0  4  6  8 11  9
  -1621897.370 7  -1263816.302 7  21453366.372 0  21453366.754 0
   -767322.988 7   -597914.187 7  20133907.967 0  20133908.043 0
  -1100646.036 8   -699469.235 6  22173001.350 0  22173002.595 0
  -1075750.309 6   -618804.690 6  23727144.844 0  23727145.305 0
 88  2 26  5 10 59.0800000  0  4  6  8 11  9
  -1675379.857 8  -1305490.973 7  21443188.611 0  21443189.649 0
   -783391.759 7   -610435.292 6  20130850.290 0  20130850.495 0
  -1190010.631 7   -769103.977 6  22155995.390 0  22155997.196 0
  -1165674.396 7   -688875.427 6  23710033.730 0  23710033.361 0
 88  2 26  5 11 29.0800000  0  4  6  8 11  9
  -1728678.338 7  -1347022.259 7  21433045.723 0  21433045.988 0
   -798764.027 7   -622413.672 6  20127925.304 0  20127924.525 0
  -1279001.180 8   -838447.234 6  22139060.314 0  22139062.305 0
  -1255635.643 7   -758975.072 6  23692913.924 0  23692915.567 0
 88  2 26  5 11 59.0800000  0  4  6  8 11  9
  -1781790.717 8  -1388408.525 7  21422938.405 0  21422940.421 0
   -813439.354 7   -633848.987 6  20125132.873 0  20125132.967 0
  -1367615.304 7   -907497.188 7  22122197.664 0  22122198.758 0
  -1345632.817 6   -829102.720 6  23675789.696 0  23675789.181 0
 88  2 26  5 12 29.0800000  0  4  6  8 11  9
  -1834714.809 7  -1429648.075 7  21412868.223 0  21412869.458 0
   -827417.643 7   -644741.165 6  20122471.641 0  20122473.701 0
  -1455850.482 7   -976251.871 6  22105406.731 0  22105409.361 0
  -1435664.784 5   -899257.480 6  23658655.193 0  23658657.293 0
 88  2 26  5 12 59.0800000  0  4  6  8 11  9
  -1887448.724 7  -1470739.431 7  21402832.013 0  21402833.882 0
   -840698.970 7   -655090.239 6  20119943.371 0  20119945.117 0
  -1543704.671 7  -1044709.657 6  22088689.171 0  22088691.029 0
  -1525730.155 5   -969438.220 7  23641515.022 0  23641517.951 0
 88  2 26  5 13 29.0800000  0  4  6  8 11  9
  -1939990.152 7  -1511680.797 7  21392835.484 0  21392836.101 0
   -853283.683 7   -664896.502 6  20117549.542 0  20117551.200 0
  -1631175.474 7  -1112868.713 6  22072042.654 0  22072045.735 0
  -1615827.391 6  -1039643.824 7  23624371.185 0  23624372.928 0
 88  2 26  5 13 59.0800000  0  4  6  8 11  9
  -1992336.937 7  -1552470.502 7  21382873.587 0  21382874.385 0
   -865171.581 7   -674159.792 6  20115287.532 0  20115287.690 0
  -1718260.374 7  -1180727.046 6  22055472.025 0  22055473.428 0
  -1705955.721 7  -1109873.668 6  23607221.132 0  23607221.735 0
 88  2 26  5 14 29.0800000  0  4  6  8 11  9
  -2044486.997 7  -1593106.902 7  21372949.418 0  21372950.498 0
   -876362.579 7   -682880.060 6  20113157.962 0  20113158.950 0
  -1804956.822 7  -1248282.727 6  22038974.353 0  22038977.273 0
  -1796113.391 7  -1180126.393 6  23590065.628 0  23590066.302 0
 88  2 26  5 14 59.0800000  0  4  6  8 11  9
  -2096438.244 8  -1633588.388 7  21363063.338 0  21363063.154 0
   -886857.105 7   -691057.579 6  20111160.300 0  20111160.846 0
  -1891262.829 7  -1315534.138 6  22022550.617 0  22022552.913 0
  -1886299.426 7  -1250401.234 6  23572904.341 0  23572903.447 0
 88  2 26  5 15 29.0800000  0  4  6  8 11  9
  -2148188.529 8  -1673913.275 7  21353216.969 0  21353216.525 0
   -896655.021 7   -698692.332 6  20109295.981 0  20109297.364 0
  -1977176.007 7  -1382479.447 7  22006202.034 0  22006204.394 0
  -1976512.135 7  -1320696.879 6  23555736.385 0  23555737.719 0
 88  2 26  5 15 59.0800000  0  4  6  8 11  9
  -2199735.705 7  -1714079.908 6  21343406.748 0  21343407.243 0
   -905756.774 7   -705784.593 6  20107563.060 0  20107564.625 0
  -2062693.903 7  -1449116.763 6  21989928.788 0  21989930.922 0
  -2066750.673 7  -1391012.617 7  23538563.548 0  23538564.629 0
 88  2 26  5 16 29.0800000  0  4  6  8 11  9
  -2251077.538 7  -1754086.542 7  21333636.403 0  21333638.341 0
   -914162.547 7   -712334.549 6  20105965.108 0  20105964.968 0
  -2147814.417 7  -1515444.433 6  21973731.948 0  21973733.645 0
  -2157013.235 8  -1461347.066 6  23521387.996 0  23521388.829 0
 88  2 26  5 16 59.0800000  0  4  6  8 11  9
  -2302211.775 7  -1793931.394 7  21323906.170 0  21323906.929 0
   -921872.061 7   -718341.948 6  20104497.386 0  20104497.550 0
  -2232534.918 7  -1581460.392 6  21957608.420 0  21957610.989 0
  -2247298.605 7  -1531699.292 7  23504207.054 0  23504207.162 0
 88  2 26  5 17 29.0800000  0  4  6  8 11  9
  -2353136.385 7  -1833612.902 7  21314215.630 0  21314216.515 0
   -928885.806 6   -723807.200 6  20103162.486 0  20103164.389 0
  -2316853.150 7  -1647162.908 6  21941563.981 0  21941565.968 0
  -2337605.377 7  -1602068.218 7  23487021.933 0  23487023.119 0
 88  2 26  5 17 59.0800000  0  4  6  8 11  9
  -2403849.122 8  -1873129.319 7  21304566.224 0  21304565.805 0
   -935204.673 7   -728730.984 6  20101959.796 0  20101961.397 0
  -2400767.139 7  -1712550.403 7  21925595.106 0  21925598.026 0
  -2427932.188 7  -1672452.730 7  23469833.137 0  23469834.053 0
 88  2 26  5 18 29.0800000  0  4  6  8 11  9
  -2454347.885 7  -1912479.016 7  21294956.505 0  21294956.422 0
   -940828.536 6   -733113.217 6  20100890.803 0  20100891.862 0
  -2484274.302 7  -1777620.924 6  21909703.726 0  21909707.989 0
  -2518277.571 8  -1742851.722 7  23452641.546 0  23452642.021 0
 88  2 26  5 18 59.0800000  0  4  6  8 11  9
  -2504630.276 7  -1951660.096 7  21285387.514 0  21285387.929 0
   -945757.626 7   -736954.050 6  20099952.799 0  20099952.679 0
  -2567372.595 7  -1842372.826 6  21893891.056 0  21893893.625 0
  -2608640.011 7  -1813263.998 7  23435445.446 0  23435446.749 0
 88  2 26  5 19 29.0800000  0  4  6  8 11  9
  -2554694.295 7  -1990671.018 7  21275861.234 0  21275861.218 0
   -949992.678 7   -740254.088 6  20099147.199 0  20099147.207 0
  -2650059.858 7  -1906804.435 6  21878156.742 0  21878158.567 0
  -2699018.355 7  -1883688.655 7  23418247.183 0  23418248.103 0
 88  2 26  5 19 59.0800000  0  4  6  8 11  9
  -2604537.481 7  -2029509.868 6  21266375.417 0  21266376.668 0
   -953534.015 7   -743013.565 7  20098473.798 0  20098474.201 0
  -2732334.091 8  -1970914.220 6  21862500.393 0  21862502.821 0
  -2789410.930 7  -1954124.399 6  23401046.281 0  23401047.015 0
 88  2 26  5 20 29.0800000  0  4  6  8 11  9
  -2654157.862 7  -2068175.090 7  21256933.701 0  21256934.697 0
   -956381.811 7   -745232.616 6  20097931.371 0  20097931.646 0
  -2814192.878 8  -2034700.279 6  21846922.900 0  21846925.111 0
  -2879815.963 7  -2024569.873 7  23383843.003 0  23383843.538 0
 88  2 26  5 20 59.0800000  0  4  6  8 11  9
  -2703553.008 7  -2106664.826 7  21247533.183 0  21247533.472 0
   -958536.874 6   -746911.876 6  20097520.923 0  20097521.364 0
  -2895633.723 7  -2098160.659 6  21831425.341 0  21831427.173 0
  -2970232.398 7  -2095024.228 8  23366635.713 0  23366638.014 0
 88  2 26  5 21 29.0800000  0  4  6  8 11  9
  -2752720.834 7  -2144977.412 6  21238177.899 0  21238178.145 0
   -959999.626 7   -748051.688 6  20097242.474 0  20097243.865 0
  -2976654.744 7  -2161293.906 6  21816007.665 0  21816010.499 0
  -3060658.690 7  -2165486.264 7  23349429.364 0  23349429.953 0
 88  2 26  5 21 59.0800000  0  4  6  8 11  9
  -2801659.104 8  -2183111.132 7  21228863.938 0  21228864.321 0
   -960770.935 7   -748652.706 7  20097094.111 0  20097096.245 0
  -3057254.131 7  -2224098.597 7  21800669.966 0  21800672.116 0
  -3151093.406 6  -2235954.857 7  23332220.828 0  23332222.070 0
 88  2 26  5 22 29.0800000  0  4  6  8 11  9
  -2850365.804 7  -2221064.420 7  21219596.596 0  21219597.116 0
   -960851.826 6   -748715.721 6  20097080.727 0  20097081.461 0
  -3137429.560 7  -2286572.948 7  21785413.984 0  21785414.548 0
  -3241534.960 7  -2306428.768 7  23315010.183 0  23315010.916 0
 88  2 26  5 22 59.0800000  0  4  6  8 11  9
  -2898838.261 7  -2258835.147 7  21210372.496 0  21210371.913 0
   -960241.983 6   -748240.526 5  20097196.033 0  20097196.900 0
  -3217178.745 7  -2348715.153 6  21770238.099 0  21770239.403 0
  -3331981.597 2  -2376906.649 3  23297796.893 0  23297798.811 0
 88  2 26  5 23 29.0800000  0  4  6  8 11  9
  -2947074.301 7  -2296421.679 7  21201193.154 0  21201193.302 0
   -958942.225 7   -747227.734 6  20097443.867 0  20097444.265 0
  -3296499.779 7  -2410523.751 6  21755142.092 0  21755145.695 0
  -3422431.918 7  -2447387.408 7  23280585.772 0  23280588.007 0
 88  2 26  5 23 59.0800000  0  4  6  8 11  9
  -2995071.786 7  -2333822.324 6  21192060.611 0  21192059.489 0
   -956953.496 7   -745678.059 6  20097820.659 0  20097822.716 0
  -3375390.441 7  -2471996.968 6  21740130.517 0  21740132.748 0
  -3512884.255 7  -2517869.721 7  23263373.962 0  23263373.431 0
 88  2 26  5 24 29.0800000  0  4  6  8 11  9
  -3042828.393 7  -2371035.263 7  21182973.143 0  21182972.661 0
   -954276.578 7   -743592.137 6  20098330.525 0  20098330.103 0
  -3453848.552 7  -2533133.150 6  21725200.959 0  21725202.886 0
  -3603337.126 7  -2588352.480 6  23246161.265 0  23246160.462 0
 88  2 26  5 24 59.0800000  0  4  6  8 11  9
  -3090341.782 7  -2408058.679 7  21173930.819 0  21173931.169 0
   -950911.779 7   -740970.219 6  20098971.283 0  20098970.200 0
  -3531871.957 7  -2593930.599 6  21710353.156 0  21710355.790 0
  -3693788.922 7  -2658834.395 6  23228949.950 0  23228949.427 0
 88  2 26  5 25 29.0800000  0  4  6  8 11  9
  -3137609.850 8  -2444890.922 7  21164936.174 0  21164935.866 0
   -946860.265 7   -737813.197 6  20099741.767 0  20099743.469 0
  -3609458.962 7  -2654387.983 6  21695588.391 0  21695590.575 0
  -3784238.167 7  -2729314.311 6  23211736.466 0  23211737.346 0
 88  2 26  5 25 59.0800000  0  4  6  8 11  9
  -3184630.142 7  -2481530.142 7  21155987.131 0  21155988.668 0
   -942122.817 7   -734121.671 6  20100644.235 0  20100643.833 0
  -3686607.607 7  -2714503.795 6  21680908.789 0  21680908.600 0
  -3874683.218 7  -2799790.959 6  23194526.200 0  23194526.756 0
 88  2 26  5 26 29.0800000  0  4  6  8 11  9
  -3231400.501 7  -2517974.555 7  21147087.572 0  21147088.237 0
   -936700.505 7   -729896.482 6  20101675.539 0  20101677.311 0
  -3763315.710 8  -2774276.318 6  21666311.321 0  21666312.386 0
  -3965122.354 7  -2870263.028 7  23177315.629 0  23177316.960 0
 88  2 26  5 26 59.0800000  0  4  6  8 11  9
  -3277918.556 8  -2554222.385 7  21138235.602 0  21138236.712 0
   -930594.074 7   -725138.225 6  20102836.690 0  20102837.432 0
  -3839581.297 7  -2833704.040 6  21651798.723 0  21651800.175 0
  -4055553.763 7  -2940729.064 6  23160107.803 0  23160107.405 0
 88  2 26  5 27 29.0800000  0  4  6  8 11  9
  -3324182.077 7  -2590271.885 7  21129432.371 0  21129432.035 0
   -923804.415 7   -719847.579 6  20104128.828 0  20104129.565 0
  -3915402.355 8  -2892785.373 6  21637369.837 0  21637371.894 0
  -4145976.122 7  -3011188.042 7  23142900.973 0  23142900.397 0
 88  2 26  5 27 59.0800000  0  4  6  8 11  9
  -3370188.781 7  -2626121.258 7  21120677.375 0  21120678.043 0
   -916332.344 6   -714025.166 6  20105551.478 0  20105552.907 0
  -3990776.747 7  -2951518.658 6  21623025.759 0  21623028.757 0
  -4236387.697 8  -3081638.597 7  23125696.647 0  23125695.196 0
 88  2 26  5 28 29.0800000  0  4  6  8 11  9
  -3415936.331 7  -2661768.703 7  21111971.790 0  21111971.642 0
   -908179.031 7   -707671.939 7  20107103.459 0  20107103.566 0
  -4065702.874 7  -3009902.649 6  21608769.162 0  21608770.943 0
  -4326786.790 8  -3152079.450 6  23108493.530 0  23108493.912 0
 88  2 26  5 28 59.0800000  0  4  6  8 11  9
  -3461422.407 7  -2697212.397 7  21103315.442 0  21103317.497 0
   -899346.025 7   -700789.084 6  20108784.460 0  20108785.784 0
  -4140178.842 7  -3067935.869 6  21594596.592 0  21594599.458 0
  -4417171.772 7  -3222509.289 7  23091294.119 0  23091294.127 0
 88  2 26  5 29 29.0800000  0  4  6  8 11  9
  -3506644.834 7  -2732450.634 6  21094711.139 0  21094711.806 0
   -889834.289 6   -693377.335 6  20110594.808 0  20110595.754 0
  -4214202.649 7  -3125616.737 6  21580510.744 0  21580511.387 0
  -4507540.677 7  -3292926.599 7  23074097.545 0  23074097.773 0
 88  2 26  5 29 59.0800000  0  4  6  8 11  9
  -3551601.127 7  -2767481.523 7  21086154.585 0  21086155.910 0
   -879644.739 7   -685437.423 6  20112533.312 0  20112533.751 0
  -4287772.473 7  -3182943.861 6  21566510.603 0  21566511.882 0
  -4597891.976 7  -3363330.190 7  23056903.635 0  23056904.556 0
 88  2 26  5 30 29.0800000  0  4  6  8 11  9
  -3596289.070 7  -2802303.296 7  21077652.077 0  21077653.041 0
   -868778.141 6   -676969.948 7  20114600.309 0  20114601.728 0
  -4360886.496 7  -3239915.828 7  21552597.397 0  21552598.469 0
  -4688224.026 7  -3433718.824 7  23039713.715 0  23039713.979 0
 88  2 26  5 30 59.0800000  0  4  6  8 11  9
  -3640706.378 8  -2836914.194 7  21069199.921 0  21069199.999 0
   -857236.227 7   -667976.225 6  20116796.537 0  20116797.846 0
  -4433542.661 7  -3296531.007 6  21538770.922 0  21538772.788 0
  -4778534.861 7  -3504090.891 7  23022528.797 0  23022529.245 0
 88  2 26  5 31 29.0800000  0  4  6  8 11  9
  -3684850.766 8  -2871312.415 7  21060798.607 0  21060799.414 0
   -845019.687 6   -658456.840 6  20119121.658 0  20119122.403 0
  -4505739.047 7  -3352787.904 6  21525031.999 0  21525033.128 0
  -4868823.002 6  -3574445.276 7  23005347.272 0  23005348.119 0
 88  2 26  5 31 59.0800000  0  4  6  8 11  9
  -3728719.867 7  -2905496.121 6  21052451.080 0  21052451.175 0
   -832129.972 7   -648412.891 6  20121574.097 0  20121574.794 0
  -4577474.210 7  -3408685.449 5  21511381.670 0  21511383.849 0
  -4959086.599 6  -3644780.520 7  22988170.651 0  22988171.083 0
 88  2 26  5 32 29.0800000  0  4  6  8 11  9
  -3772311.214 8  -2939463.418 7  21044156.126 0  21044156.706 0
   -818568.072 7   -637845.197 7  20124155.178 0  20124156.052 0
  -4648746.237 7  -3464222.063 6  21497819.021 0  21497820.908 0
  -5049323.818 7  -3715095.243 7  22970999.832 0  22970999.651 0
 88  2 26  5 32 59.0800000  0  4  6  8 11  9
  -3815622.616 7  -2973212.554 6  21035913.071 0  21035914.264 0
   -804335.698 6   -626755.018 6  20126864.003 0  20126864.760 0
  -4719553.361 7  -3519396.429 6  21484345.358 0  21484345.754 0
  -5139532.590 7  -3785387.786 7  22953832.940 0  22953833.580 0
 88  2 26  5 33 29.0800000  0  4  6  8 11  9
  -3858651.797 7  -3006741.798 7  21027725.019 0  21027726.318 0
   -789434.129 7   -615143.411 6  20129699.479 0  20129699.652 0
  -4789893.641 7  -3574207.037 6  21470959.569 0  21470962.226 0
  -5229711.541 7  -3855657.094 7  22936672.013 0  22936673.972 0
 88  2 26  5 33 59.0800000  0  4  6  8 11  9
  -3901396.281 7  -3040049.181 7  21019591.860 0  21019593.025 0
   -773864.531 8   -603011.249 7  20132662.844 0  20132663.378 0
  -4859765.425 7  -3628652.555 7  21457664.133 0  21457665.917 0
  -5319858.455 7  -3925901.424 7  22919517.531 0  22919519.328 0
 88  2 26  5 34 29.0800000  0  4  6  8 11  9
  -3943853.791 7  -3073132.957 7  21011513.044 0  21011513.338 0
   -757628.350 7   -590359.685 6  20135751.924 0  20135752.023 0
  -4929166.713 7  -3682731.479 7  21444457.092 0  21444458.696 0
  -5409971.965 7  -3996119.743 7  22902370.063 0  22902371.804 0
 88  2 26  5 34 59.0800000  0  4  6  8 11  9
  -3986022.057 8  -3105991.351 7  21003487.333 0  21003488.056 0
   -740726.832 7   -577189.661 6  20138968.059 0  20138967.682 0
  -4998096.039 7  -3736442.630 6  21431339.618 0  21431340.516 0
  -5500049.982 7  -4066310.395 7  22885227.740 0  22885229.495 0
 88  2 26  5 35 29.0800000  0  4  6  8 11  9
  -4027898.676 7  -3138622.486 6  20995519.099 0  20995520.351 0
   -723161.567 7   -563502.430 6  20142309.322 0  20142311.805 0
  -5066552.106 7  -3789785.013 6  21418312.771 0  21418315.548 0
  -5590090.615 7  -4136471.899 7  22868094.481 0  22868095.230 0
 88  2 26  5 35 59.0800000  0  4  6  8 11  9
  -4069481.358 7  -3171024.575 7  20987606.128 0  20987606.509 0
   -704934.019 7   -549299.134 6  20145779.150 0  20145778.258 0
  -5134533.015 7  -3842757.129 7  21405376.607 0  21405378.305 0
  -5680091.796 7  -4206602.666 7  22850968.049 0  22850967.941 0
 88  2 26  5 36 29.0800000  0  4  6  8 11  9
  -4110767.798 7  -3203195.828 7  20979750.382 0  20979749.584 0
   -686045.526 6   -534580.833 6  20149373.078 0  20149374.640 0
  -5202037.183 7  -3895357.774 6  21392530.732 0  21392532.618 0
  -5770052.066 8  -4276701.580 6  22833848.993 0  22833850.259 0
 88  2 26  5 36 59.0800000  0  4  6  8 11  9
  -4151755.473 8  -3235134.281 6  20971950.382 0  20971949.559 0
   -666497.865 6   -519348.866 5  20153092.960 0  20153094.441 0
  -5269062.392 8  -3947585.198 6  21379776.791 0  21379777.683 0
  -5859969.182 7  -4346766.888 7  22816738.776 0  22816739.359 0
 88  2 26  5 37 29.0800000  0  4  6  8 11  9
  -4192442.272 8  -3266838.283 7  20964207.220 0  20964208.459 0
   -646292.706 7   -503604.605 6  20156938.605 0  20156938.560 0
  -5335607.602 8  -3999438.587 6  21367114.491 0  21367115.529 0
  -5949841.498 7  -4416797.277 6  22799636.573 0  22799637.909 0
 88  2 26  5 37 59.0800000  0  4  6  8 11  9
  -4232825.711 7  -3298305.898 6  20956522.978 0  20956524.014 0
   -625431.457 8   -487349.064 6  20160907.554 0  20160907.845 0
  -5401671.071 7  -4050916.611 6  21354542.023 0  21354545.260 0
  -6039667.017 8  -4486791.178 7  22782543.781 0  22782543.293 0
 88  2 26  5 38 29.0800000  0  4  6  8 11  9
  -4272903.436 7  -3329535.305 7  20948896.621 0  20948896.643 0
   -603915.588 7   -470583.441 6  20165001.220 0  20165003.205 0
  -5467251.246 7  -4102018.025 6  21342062.173 0  21342065.048 0
  -6129443.499 8  -4556746.872 6  22765459.030 0  22765459.369 0
 88  2 26  5 38 59.0800000  0  4  6  8 11  9
  -4312673.196 7  -3360524.717 6  20941328.946 0  20941328.936 0
   -581746.862 7   -453309.137 7  20169220.830 0  20169221.487 0
  -5532346.514 7  -4152741.592 7  21329675.132 0  21329676.984 0
  -6219169.237 7  -4626663.034 6  22748384.947 0  22748385.121 0
 88  2 26  5 39 29.0800000  0  4  6  8 11  9
  -4352132.506 6  -3391272.239 7  20933820.512 0  20933820.046 0
   -558927.089 7   -435527.481 6  20173563.544 0  20173565.065 0
  -5596955.368 7  -4203086.135 6  21317380.172 0  21317382.373 0
  -6308842.588 7  -4696538.385 7  22731321.038 0  22731321.062 0
 88  2 26  5 39 59.0800000  0  4  6  8 11  9
  -4391279.093 7  -3421776.081 6  20926370.603 0  20926371.421 0
   -535457.807 8   -417239.719 5  20178029.203 0  20178030.244 0
  -5661076.276 7  -4253050.482 6  21305178.941 0  21305181.763 0
  -6398461.048 7  -4766370.934 7  22714266.350 0  22714267.490 0
 88  2 26  5 40 29.0800000  0  4  6  8 11  9
  -4430110.617 7  -3452034.412 7  20918980.529 0  20918981.383 0
   -511340.559 7   -398447.048 6  20182619.301 0  20182619.592 0
  -5724707.978 7  -4302633.613 6  21293069.332 0  21293072.213 0
  -6488022.861 7  -4836159.346 6  22697223.348 0  22697223.860 0
 88  2 26  5 40 59.0800000  0  4  6  8 11  9
  -4468624.723 7  -3482045.402 7  20911651.275 0  20911652.581 0
   -486577.251 7   -379150.957 6  20187331.187 0  20187331.580 0
  -5787849.180 7  -4351834.520 6  21281054.992 0  21281056.184 0
  -6577526.101 8  -4905902.136 7  22680191.650 0  22680191.403 0
 88  2 26  5 41 29.0800000  0  4  6  8 11  9
  -4506819.104 7  -3511807.244 7  20904384.735 0  20904383.197 0
   -461169.554 7   -359352.738 6  20192166.423 0  20192165.804 0
  -5850498.120 7  -4400651.887 6  21269133.271 0  21269135.386 0
  -6666968.618 7  -4975597.603 6  22663171.791 0  22663171.608 0
 88  2 26  5 41 59.0800000  0  4  6  8 11  9
  -4544691.374 7  -3541318.096 7  20897177.409 0  20897176.715 0
   -435119.655 7   -339054.120 6  20197123.435 0  20197123.425 0
  -5912653.241 7  -4449084.424 6  21257305.589 0  21257307.272 0
  -6756348.541 7  -5045244.298 7  22646162.266 0  22646163.637 0
 88  2 26  5 42 29.0800000  0  4  6  8 11  9
  -4582239.145 7  -3570576.114 6  20890032.055 0  20890033.104 0
   -408429.078 8   -318256.263 6  20202201.999 0  20202202.685 0
  -5974313.338 7  -4497131.252 6  21245571.184 0  21245573.395 0
  -6845663.656 7  -5114840.478 7  22629166.286 0  22629167.108 0
 88  2 26  5 42 59.0800000  0  4  6  8 11  9
  -4619460.080 7  -3599579.444 7  20882948.416 0  20882949.198 0
   -381099.453 7   -296960.453 7  20207404.419 0  20207404.592 0
  -6035476.822 8  -4544791.092 6  21233933.505 0  21233935.076 0
  -6934912.317 7  -5184384.855 7  22612183.706 0  22612184.285 0
 88  2 26  5 43 29.0800000  0  4  6  8 11  9
  -4656351.930 7  -3628326.342 7  20875928.168 0  20875929.501 0
   -353132.858 7   -275168.303 6  20212725.481 0  20212724.607 0
  -6096142.770 7  -4592063.243 7  21222387.974 0  21222390.596 0
  -7024091.827 7  -5253875.379 7  22595213.032 0  22595213.858 0
 88  2 26  5 43 59.0800000  0  4  6  8 11  9
  -4692912.248 7  -3656814.901 7  20868970.993 0  20868973.175 0
   -324531.445 7   -252881.479 6  20218167.479 0  20218168.397 0
  -6156309.512 7  -4638946.401 6  21210938.524 0  21210940.675 0
  -7113200.532 7  -5323310.724 7  22578255.905 0  22578257.635 0
 88  2 26  5 44 29.0800000  0  4  6  8 11  9
  -4729138.806 7  -3685043.374 7  20862078.226 0  20862077.973 0
   -295296.934 7   -230101.348 6  20223730.931 0  20223730.454 0
  -6215975.525 7  -4685439.383 6  21199584.697 0  21199587.115 0
  -7202236.217 7  -5392689.162 7  22561312.991 0  22561314.479 0
 88  2 26  5 44 59.0800000  0  4  6  8 11  9
  -4765029.081 7  -3713009.825 6  20855247.900 0  20855249.737 0
   -265431.256 7   -206829.370 6  20229414.394 0  20229413.533 0
  -6275139.748 7  -4731541.369 6  21188325.846 0  21188328.883 0
  -7291196.417 7  -5462008.793 7  22544384.124 0  22544385.898 0
 88  2 26  5 45 29.0800000  0  4  6  8 11  9
  -4800580.915 7  -3740712.559 7  20848482.840 0  20848484.353 0
   -234936.569 7   -183067.265 6  20235217.339 0  20235217.325 0
  -6333800.987 7  -4777251.424 6  21177163.619 0  21177165.620 0
  -7380079.630 7  -5531268.419 7  22527471.755 0  22527470.375 0
 88  2 26  5 45 59.0800000  0  4  6  8 11  9
  -4835791.817 6  -3768149.616 7  20841782.690 0  20841783.156 0
   -203814.903 7   -158816.622 6  20241139.713 0  20241139.168 0
  -6391957.957 7  -4822568.523 6  21166094.575 0  21166098.142 0
  -7468883.582 7  -5600466.308 7  22510572.313 0  22510572.694 0
 88  2 26  5 46 29.0800000  0  4  6  8 11  9
  -4870659.611 7  -3795319.328 7  20835146.730 0  20835147.296 0
   -172068.085 7   -134078.842 7  20247180.327 0  20247181.494 0
  -6449609.198 7  -4867491.551 6  21155126.286 0  21155127.909 0
  -7557606.050 7  -5669600.699 7  22493688.877 0  22493689.432 0
 88  2 26  5 46 59.0800000  0  4  6  8 11  9
  -4905181.930 7  -3822219.845 7  20828577.764 0  20828578.428 0
   -139698.837 8   -108856.047 6  20253340.149 0  20253341.304 0
  -6506753.546 7  -4912019.599 6  21144251.886 0  21144252.928 0
  -7646244.831 8  -5738669.891 6  22476821.826 0  22476822.058 0
 88  2 26  5 47 29.0800000  0  4  6  8 11  9
  -4939356.474 7  -3848849.362 7  20822074.488 0  20822074.615 0
   -106708.575 7    -83149.340 7  20259617.019 0  20259618.741 0
  -6563390.051 7  -4956151.922 6  21133476.142 0  21133476.252 0
  -7734798.013 8  -5807672.358 7  22459970.666 0  22459970.947 0
 88  2 26  5 47 59.0800000  0  4  6  8 11  9
  -4973180.734 8  -3875205.932 7  20815639.015 0  20815639.282 0
    -73099.618 7    -56960.540 6  20266013.831 0  20266014.836 0
  -6619517.435 7  -4999887.537 6  21122793.796 0  21122794.738 0
  -7823263.147 8  -5876606.232 6  22443135.947 0  22443136.601 0
 88  2 26  5 48 29.0800000  0  4  6  8 11  9
  -5006652.598 7  -3901287.900 7  20809269.292 0  20809269.628 0
    -38873.968 8    -30291.219 7  20272526.385 0  20272527.848 0
  -6675134.284 8  -5043225.335 6  21112210.789 0  21112211.769 0
  -7911638.491 7  -5945470.141 6  22426319.084 0  22426318.342 0
 88  2 26  5 48 59.0800000  0  4  6  8 11  9
  -5039769.646 7  -3927093.403 7  20802967.148 0  20802967.171 0
     -4033.758 7     -3142.999 6  20279156.662 0  20279156.245 0
  -6730239.632 8  -5086164.566 6  21101723.859 0  21101725.041 0
  -7999921.356 7  -6014261.986 6  22409518.226 0  22409518.975 0
 88  2 26  5 49 29.0800000  0  4  6  8 11  9
  -5072529.518 7  -3952620.579 7  20796732.593 0  20796732.483 0
     31418.565 7     24482.188 7  20285901.248 0  20285902.818 0
  -6784832.643 7  -5128704.549 6  21091334.194 0  21091337.327 0
  -8088109.756 7  -6082980.201 7  22392737.077 0  22392737.810 0
 88  2 26  5 49 59.0800000  0  4  6  8 11  9
  -5104929.964 7  -3977867.666 7  20790567.786 0  20790567.193 0
     67480.870 7     52582.683 6  20292765.449 0  20292766.463 0
  -6838912.014 7  -5170844.306 7  21081044.222 0  21081045.906 0
  -8176201.196 8  -6151622.908 6  22375973.858 0  22375973.899 0
 88  2 26  5 50 29.0800000  0  4  6  8 11  9
  -5136968.638 8  -4002832.881 7  20784470.636 0  20784470.989 0
    104150.887 7     81156.729 7  20299743.455 0  20299742.726 0
  -6892476.518 7  -5212582.882 6  21070850.133 0  21070852.765 0
  -8264193.792 7  -6220188.550 7  22359229.941 0  22359230.199 0
 88  2 26  5 50 59.0800000  0  4  6  8 11  9
  -5168643.222 7  -4027514.389 6  20778442.390 0  20778444.381 0
    141426.346 7    110202.533 7  20306836.165 0  20306837.127 0
  -6945525.103 7  -5253919.417 6  21060755.814 0  21060758.156 0
  -8352085.277 7  -6288675.413 6  22342504.285 0  22342504.064 0
 88  2 26  5 51 29.0800000  0  4  6  8 11  9
  -5199951.512 7  -4051910.454 7  20772484.939 0  20772485.577 0
    179304.937 6    139718.324 6  20314043.873 0  20314045.188 0
  -6998057.060 7  -5294853.412 7  21050760.372 0  21050760.892 0
  -8439873.490 7  -6357081.823 6  22325799.290 0  22325800.258 0
 88  2 26  5 51 59.0800000  0  4  6  8 11  9
  -5230891.068 7  -4076019.199 6  20766597.492 0  20766598.571 0
    217784.553 7    169702.424 7  20321365.857 0  20321368.520 0
  -7050071.070 7  -5335383.800 6  21040861.721 0  21040863.293 0
  -8527555.669 7  -6425405.577 6  22309113.413 0  22309114.194 0
 88  2 26  5 52 29.0800000  0  4  6  8 11  9
  -5261459.633 7  -4099838.872 6  20760780.847 0  20760781.454 0
    256863.007 8    200153.181 7  20328802.361 0  20328804.841 0
  -7101566.515 7  -5375510.108 6  21031061.500 0  21031063.303 0
  -8615129.914 7  -6493645.245 6  22292447.704 0  22292448.429 0
 88  2 26  5 52 59.0800000  0  4  6  8 11  9
  -5291654.967 7  -4123367.708 7  20755034.243 0  20755034.308 0
    296537.986 7    231068.755 6  20336354.001 0  20336353.519 0
  -7152542.200 7  -5415231.408 6  21021362.777 0  21021363.742 0
  -8702594.030 7  -6561799.088 7  22275804.541 0  22275805.080 0
 88  2 26  5 53 29.0800000  0  4  6  8 11  9
  -5321474.820 7  -4146603.965 7  20749360.318 0  20749360.570 0
    336806.626 7    262446.908 7  20344015.758 0  20344016.796 0
  -7202997.333 7  -5454547.106 6  21011760.923 0  21011762.519 0
  -8789945.226 7  -6629864.953 6  22259182.933 0  22259182.552 0
 88  2 26  5 53 59.0800000  0  4  6  8 11  9
  -5350916.792 7  -4169545.753 7  20743757.279 0  20743757.888 0
    377667.003 7    294286.167 7  20351791.156 0  20351792.337 0
  -7252930.765 7  -5493456.248 6  21002259.040 0  21002260.172 0
  -8877181.522 7  -6697841.288 6  22242581.833 0  22242582.453 0
 88  2 26  5 54 29.0800000  0  4  6  8 11  9
  -5379978.656 8  -4192191.371 7  20738227.731 0  20738227.070 0
    419116.471 6    326584.449 7  20359677.734 0  20359680.446 0
  -7302341.426 7  -5531958.045 6  20992855.393 0  20992857.680 0
  -8964300.989 7  -6765726.596 7  22226002.666 0  22226003.503 0
 88  2 26  5 54 59.0800000  0  4  6  8 11  9
  -5408658.200 8  -4214539.082 6  20732769.602 0  20732769.941 0
    461152.754 7    359339.988 7  20367677.283 0  20367680.046 0
  -7351228.873 7  -5570052.153 6  20983552.610 0  20983555.266 0
  -9051300.703 7  -6833518.558 7  22209447.536 0  22209447.926 0
 88  2 26  5 55 29.0800000  0  4  6  8 11  9
  -5436952.939 7  -4236586.925 7  20727385.136 0  20727385.590 0
    503773.195 6    392550.724 7  20375788.352 0  20375789.770 0
  -7399592.251 7  -5607737.875 7  20974349.189 0  20974352.467 0
  -9138178.777 7  -6901215.746 6  22192915.912 0  22192916.337 0
 88  2 26  5 55 59.0800000  0  4  6  8 11  9
  -5464860.803 8  -4258333.318 7  20722074.611 0  20722075.247 0
    546975.441 7    426214.803 7  20384009.481 0  20384010.355 0
  -7447430.503 7  -5645014.430 6  20965246.504 0  20965248.857 0
  -9224932.276 7  -6968815.860 7  22176406.781 0  22176408.472 0
 88  2 26  5 56 29.0800000  0  4  6  8 11  9
  -5492379.515 7  -4279776.472 6  20716838.060 0  20716839.625 0
    590756.736 7    460330.105 7  20392340.794 0  20392341.368 0
  -7494743.052 7  -5681881.331 7  20956243.125 0  20956243.959 0
  -9311559.220 7  -7036317.356 7  22159921.799 0  22159923.854 0
 88  2 26  5 56 59.0800000  0  4  6  8 11  9
  -5519506.817 7  -4300914.639 6  20711675.372 0  20711677.154 0
    635114.581 7    494894.661 7  20400782.036 0  20400783.065 0
  -7541528.860 7  -5718337.795 6  20947339.994 0  20947341.720 0
  -9398057.494 7  -7103718.597 7  22143461.818 0  22143462.587 0
 88  2 26  5 57 29.0800000  0  4  6  8 11  9
  -5546240.414 7  -4321746.008 7  20706588.395 0  20706588.945 0
    680046.885 7    529906.853 7  20409331.873 0  20409333.391 0
  -7587787.320 7  -5754383.342 6  20938537.557 0  20938538.884 0
  -9484423.950 7  -7171017.126 7  22127026.831 0  22127028.155 0
 88  2 26  5 57 59.0800000  0  4  6  8 11  9
  -5572578.105 7  -4342268.888 7  20701575.913 0  20701577.606 0
    725550.930 7    565364.537 7  20417991.276 0  20417992.559 0
  -7633517.858 7  -5790017.503 6  20929836.157 0  20929837.178 0
  -9570656.690 8  -7238211.471 7  22110616.859 0  22110618.009 0
 88  2 26  5 58 29.0800000  0  4  6  8 11  9
  -5598517.682 7  -4362481.544 7  20696639.942 0  20696641.389 0
    771624.310 7    601265.882 7  20426758.206 0  20426760.975 0
  -7678719.613 7  -5825239.642 6  20921234.274 0  20921236.584 0
  -9656753.536 8  -7305299.918 7  22094234.494 0  22094234.778 0
 88  2 26  5 58 59.0800000  0  4  6  8 11  9
  -5624056.889 7  -4382382.230 8  20691780.248 0  20691781.188 0
    818264.358 7    637608.767 7  20435634.081 0  20435634.746 0
  -7723391.921 7  -5860049.223 7  20912733.236 0  20912734.228 0
  -9742711.583 7  -7372280.198 6  22077877.053 0  22077876.759 0
 88  2 26  5 59 29.0800000  0  4  6  8 11  9
  -5649193.517 7  -4401969.201 7  20686996.869 0  20686998.248 0
    865468.258 7    674391.035 7  20444618.114 0  20444617.921 0
  -7767533.841 7  -5894445.508 6  20904332.788 0  20904335.452 0
  -9828528.533 7  -7439150.547 7  22061545.911 0  22061546.822 0
 88  2 26  5 59 59.0800000  0  4  6  8 11  9
  -5673925.346 7  -4421240.756 7  20682291.105 0  20682291.469 0
    913233.552 7    711610.756 7  20453707.464 0  20453707.435 0
  -7811145.047 7  -5928428.248 6  20896034.938 0  20896036.275 0
  -9914202.120 7  -7505909.191 7  22045243.690 0  22045243.522 0
 88  2 26  6  0 29.0800000  0  4  6  8 11  9
  -5698250.113 7  -4440195.132 7  20677662.350 0  20677663.299 0
    961557.539 8    749265.802 7  20462902.896 0  20462902.751 0
  -7854224.952 7  -5961996.998 6  20887836.670 0  20887838.191 0
  -9999729.863 7  -7572554.170 7  22028967.010 0  22028968.716 0
 88  2 26  6  0 59.0800000  0  4  6  8 11  9
  -5722165.694 7  -4458830.656 6  20673110.935 0  20673112.031 0
   1010437.674 8    787354.214 7  20472203.743 0  20472204.511 0
  -7896772.865 7  -5995151.207 6  20879739.574 0  20879741.529 0
 -10085109.003 8  -7639083.338 6  22012720.640 0  22012721.335 0
 88  2 26  6  1 29.0800000  0  4  6  8 11  9
  -5745669.838 7  -4477145.567 7  20668637.295 0  20668638.890 0
   1059870.951 7    825873.646 7  20481611.186 0  20481611.706 0
  -7938787.986 7  -6027890.251 7  20871743.975 0  20871746.840 0
 -10170337.725 7  -7705495.326 6  21996502.471 0  21996502.254 0
 88  2 26  6  1 59.0800000  0  4  6  8 11  9
  -5768760.486 7  -4495138.282 6  20664243.497 0  20664245.421 0
   1109854.920 7    864822.208 7  20491122.061 0  20491123.210 0
  -7980270.114 7  -6060213.960 7  20863850.656 0  20863852.198 0
 -10255412.780 7  -7771787.562 7  21980313.330 0  21980313.367 0
 88  2 26  6  2 29.0800000  0  4  6  8 11  9
  -5791435.334 7  -4512806.986 7  20659929.943 0  20659930.567 0
   1160387.169 7    904197.990 6  20500738.434 0  20500739.245 0
  -8021218.527 7  -6092121.809 6  20856057.358 0  20856059.914 0
 -10340331.895 7  -7837958.303 6  21964153.964 0  21964154.361 0
 88  2 26  6  2 59.0800000  0  4  6  8 11  9
  -5813692.278 7  -4530150.062 7  20655694.209 0  20655695.790 0
   1211464.799 7    943998.738 7  20510457.615 0  20510457.888 0
  -8061632.948 7  -6123613.547 6  20848368.337 0  20848368.898 0
 -10425092.563 7  -7904005.563 7  21948023.955 0  21948024.631 0
 88  2 26  6  3 29.0800000  0  4  6  8 11  9
  -5835529.124 7  -4547165.788 7  20651538.570 0  20651539.193 0
   1263084.690 7    984222.035 7  20520281.214 0  20520281.847 0
  -8101512.689 7  -6154688.662 6  20840779.083 0  20840780.046 0
 -10509692.546 7  -7969927.644 6  21931924.505 0  21931926.204 0
 88  2 26  6  3 59.0800000  0  4  6  8 11  9
  -5856943.754 7  -4563852.526 7  20647463.115 0  20647464.993 0
   1315244.593 7   1024866.111 7  20530205.996 0  20530208.249 0
  -8140857.229 6  -6185346.739 7  20833292.213 0  20833293.497 0
 -10594129.090 7  -8035722.342 7  21915857.296 0  21915857.218 0
 88  2 26  6  4 29.0800000  0  4  6  8 11  9
  -5877934.061 6  -4580208.594 7  20643468.583 0  20643469.865 0
   1367941.116 7   1065928.350 6  20540234.001 0  20540234.231 0
  -8179666.392 7  -6215587.620 6  20825906.643 0  20825908.355 0
 -10678399.568 7  -8101387.649 7  21899820.870 0  21899822.103 0
 88  2 26  6  4 59.0800000  0  4  6  8 11  9
  -5898497.917 7  -4596232.375 6  20639555.963 0  20639557.471 0
   1421171.790 7   1107406.792 7  20550363.668 0  20550364.533 0
  -8217939.388 7  -6245410.740 6  20818622.969 0  20818625.290 0
 -10762501.632 7  -8166921.743 7  21883817.615 0  21883818.869 0
 88  2 26  6  5 29.0800000  0  4  6  8 11  9
  -5918633.078 7  -4611922.119 7  20635724.414 0  20635725.155 0
   1474933.566 7   1149299.096 6  20560594.288 0  20560595.349 0
  -8255676.304 7  -6274816.123 6  20811441.799 0  20811443.910 0
 -10846432.627 8  -8232322.512 7  21867845.714 0  21867845.622 0
 88  2 26  6  5 59.0800000  0  4  6  8 11  9
  -5938337.589 7  -4627276.281 7  20631974.932 0  20631975.113 0
   1529224.084 7   1191603.394 7  20570925.368 0  20570925.647 0
  -8292876.570 7  -6303803.320 6  20804363.787 0  20804365.864 0
 -10930190.145 7  -8297588.110 7  21851907.259 0  21851906.519 0
 88  2 26  6  6 29.0800000  0  4  6  8 11  9
  -5957609.374 7  -4642293.257 7  20628308.499 0  20628307.723 0
   1584040.500 7   1234317.483 7  20581356.025 0  20581357.781 0
  -8329539.647 7  -6332371.935 6  20797387.383 0  20797388.579 0
 -11013771.506 8  -8362716.441 7  21836002.322 0  21836002.052 0
 88  2 26  6  6 59.0800000  0  4  6  8 11  9
  -5976446.173 7  -4656971.292 6  20624722.846 0  20624724.639 0
   1639379.895 7   1277439.092 7  20591886.833 0  20591887.590 0
  -8365665.613 7  -6360522.038 6  20790512.094 0  20790513.960 0
 -11097174.211 7  -8427705.566 7  21820131.979 0  21820131.139 0
 88  2 26  6  7 29.0800000  0  4  6  8 11  9
  -5994845.955 7  -4671308.774 7  20621221.899 0  20621222.663 0
   1695239.234 7   1320965.846 7  20602517.613 0  20602518.164 0
  -8401253.690 7  -6388253.008 6  20783738.802 0  20783741.615 0
 -11180395.551 7  -8492553.368 7  21804294.501 0  21804295.599 0
 88  2 26  6  7 59.0800000  0  4  6  8 11  9
  -6012806.629 7  -4685304.109 6  20617803.901 0  20617804.995 0
   1751615.714 7   1364895.581 7  20613245.375 0  20613245.617 0
  -8436303.861 7  -6415564.821 6  20777069.232 0  20777072.386 0
 -11263432.995 7  -8557257.872 7  21788492.208 0  21788493.565 0
 88  2 26  6  8 29.0800000  0  4  6  8 11  9
  -6030326.268 7  -4698955.795 7  20614469.658 0  20614470.779 0
   1808506.412 7   1409225.990 7  20624070.843 0  20624072.473 0
  -8470815.960 7  -6442457.348 6  20770503.589 0  20770503.739 0
 -11346284.044 7  -8621817.139 6  21772727.514 0  21772727.822 0
 88  2 26  6  8 59.0800000  0  4  6  8 11  9
  -6047402.490 7  -4712261.921 6  20611220.163 0  20611220.989 0
   1865908.585 7   1453954.949 6  20634994.080 0  20634995.733 0
  -8504789.681 7  -6468930.378 6  20764037.610 0  20764038.285 0
 -11428945.904 7  -8686228.983 7  21756997.379 0  21756998.120 0
 88  2 26  6  9 29.0800000  0  4  6  8 11  9
  -6064033.488 7  -4725221.158 7  20608056.514 0  20608056.566 0
   1923819.175 7   1499080.086 7  20646014.855 0  20646015.145 0
  -8538224.943 7  -6494983.803 6  20757675.308 0  20757677.857 0
 -11511416.070 7  -8750491.442 6  21741303.667 0  21741303.582 0
 88  2 26  6  9 59.0800000  0  4  6  8 11  9
  -6080217.595 7  -4737832.139 7  20604976.732 0  20604977.194 0
   1982235.582 7   1544599.364 7  20657130.141 0  20657131.848 0
  -8571121.226 7  -6520617.284 6  20751415.916 0  20751417.826 0
 -11593691.846 7  -8814602.425 6  21725647.068 0  21725647.458 0
 88  2 26  6 10 29.0800000  0  4  6  8 11  9
  -6095952.382 7  -4750093.010 7  20601980.526 0  20601982.422 0
   2041154.412 7   1590510.142 7  20668341.906 0  20668343.267 0
  -8603478.925 7  -6545831.063 6  20745257.838 0  20745259.645 0
 -11675770.706 7  -8878559.977 7  21710028.591 0  21710028.515 0
 88  2 26  6 10 59.0800000  0  4  6  8 11  9
  -6111235.847 8  -4762002.211 7  20599074.283 0  20599074.248 0
   2100572.979 7   1636810.320 7  20679649.039 0  20679649.572 0
  -8635297.437 6  -6570624.705 6  20739202.723 0  20739204.010 0
 -11757649.766 7  -8942361.856 7  21694446.632 0  21694448.049 0
 88  2 26  6 11 29.0800000  0  4  6  8 11  9
  -6126066.161 7  -4773558.312 7  20596251.080 0  20596251.558 0
   2160488.378 7   1683497.645 6  20691050.637 0  20691051.630 0
  -8666576.781 7  -6594998.212 6  20733250.232 0  20733251.323 0
 -11839326.543 7  -9006006.093 7  21678902.848 0  21678905.655 0
 88  2 26  6 11 59.0800000  0  4  6  8 11  9
  -6140441.248 7  -4784759.676 7  20593515.670 0  20593516.810 0
   2220897.717 7   1730569.849 7  20702547.413 0  20702547.778 0
  -8697317.230 7  -6618951.798 5  20727400.056 0  20727401.398 0
 -11920798.086 7  -9069490.387 6  21663401.300 0  21663400.961 0
 88  2 26  6 12 29.0800000  0  4  6  8 11  9
  -6154359.155 7  -4795604.794 7  20590866.492 0  20590867.889 0
   2281797.752 7   1778024.420 7  20714135.566 0  20714135.689 0
  -8727518.352 7  -6642485.123 6  20721653.888 0  20721655.918 0
 -12002062.229 7  -9132813.110 6  21647937.026 0  21647937.472 0
 88  2 26  6 12 59.0800000  0  4  6  8 11  9
  -6167817.773 7  -4806092.028 6  20588306.093 0  20588307.059 0
   2343185.699 7   1825859.184 7  20725816.954 0  20725818.126 0
  -8757179.847 7  -6665597.962 6  20716008.898 0  20716010.642 0
 -12083115.806 7  -9195971.719 7  21632513.002 0  21632511.791 0
 88  2 26  6 13 29.0800000  0  4  6  8 11  9
  -6180815.378 7  -4816220.051 6  20585833.546 0  20585833.168 0
   2405058.249 7   1874071.566 6  20737590.926 0  20737591.627 0
  -8786301.900 7  -6688290.456 6  20710466.317 0  20710468.218 0
 -12163956.222 7  -9258964.265 7  21617129.288 0  21617130.187 0
 88  2 26  6 13 59.0800000  0  4  6  8 11  9
  -6193349.954 7  -4825987.243 7  20583447.329 0  20583447.395 0
   2467412.584 7   1922659.364 7  20749456.910 0  20749457.930 0
  -8814884.869 7  -6710562.915 6  20705028.018 0  20705030.029 0
 -12244581.331 7  -9321789.017 7  21601786.505 0  21601787.554 0
 88  2 26  6 14 29.0800000  0  4  6  8 11  9
  -6205419.551 7  -4835392.120 6  20581151.673 0  20581150.164 0
   2530245.577 7   1971620.132 7  20761413.454 0  20761415.087 0
  -8842928.744 6  -6732415.261 6  20699691.667 0  20699693.023 0
 -12324987.747 7  -9384443.351 6  21586485.658 0  21586485.968 0
 88  2 26  6 14 59.0800000  0  4  6  8 11  9
  -6217022.348 7  -4844433.263 6  20578942.903 0  20578942.565 0
   2593554.070 7   2020951.443 6  20773461.305 0  20773461.756 0
  -8870433.446 7  -6753847.488 5  20694456.745 0  20694459.607 0
 -12405173.197 7  -9446925.529 7  21571226.619 0  21571226.707 0
 88  2 26  6 15 29.0800000  0  4  6  8 11  9
  -6228156.440 7  -4853109.185 6  20576823.824 0  20576824.922 0
   2657335.408 7   2070651.190 6  20785598.588 0  20785597.737 0
  -8897398.773 6  -6774859.445 6  20689327.484 0  20689328.065 0
 -12485134.683 7  -9509233.177 6  21556010.745 0  21556011.592 0
 88  2 26  6 15 59.0800000  0  4  6  8 11  9
  -6238819.827 7  -4861418.320 6  20574794.306 0  20574794.816 0
   2721586.597 7   2120717.033 7  20797824.571 0  20797824.959 0
  -8923825.206 7  -6795451.455 6  20684297.080 0  20684299.426 0
 -12564869.189 7  -9571363.951 6  21540837.469 0  21540837.792 0
 88  2 26  6 16 29.0800000  0  4  6  8 11  9
  -6249010.789 7  -4869359.346 6  20572855.937 0  20572855.915 0
   2786304.276 7   2171146.402 7  20810139.895 0  20810139.605 0
  -8949712.495 7  -6815623.344 6  20679371.002 0  20679373.277 0
 -12644374.482 7  -9633316.134 6  21525708.983 0  21525708.891 0
 88  2 26  6 16 59.0800000  0  4  6  8 11  9
  -6258727.346 7  -4876930.702 7  20571005.815 0  20571007.309 0
   2851485.812 8   2221937.217 6  20822543.438 0  20822544.771 0
  -8975060.828 7  -6835375.307 6  20674547.461 0  20674550.195 0
 -12723647.811 7  -9695087.558 6  21510622.947 0  21510623.098 0
 88  2 26  6 17 29.0800000  0  4  6  8 11  9
  -6267967.723 7  -4884130.988 7  20569248.401 0  20569248.932 0
   2917127.880 8   2273086.880 6  20835034.668 0  20835036.158 0
  -8999870.694 7  -6854707.626 6  20669825.957 0  20669828.992 0
 -12802686.407 7  -9756676.063 7  21495582.980 0  21495583.052 0
 88  2 26  6 17 59.0800000  0  4  6  8 11  9
  -6276730.161 7  -4890958.888 6  20567581.476 0  20567581.967 0
   2983227.506 7   2324593.083 7  20847612.734 0  20847613.543 0
  -9024142.436 7  -6873620.674 6  20665208.390 0  20665210.245 0
 -12881487.408 7  -9818079.456 6  21480587.660 0  21480587.370 0
 88  2 26  6 18 29.0800000  0  4  6  8 11  9
  -6285012.767 7  -4897412.859 6  20566003.870 0  20566005.236 0
   3049780.973 7   2376452.935 6  20860277.787 0  20860278.661 0
  -9047876.130 6  -6892114.451 6  20660690.839 0  20660693.450 0
 -12960047.932 7  -9879295.440 6  21465638.767 0  21465639.353 0
 88  2 26  6 18 59.0800000  0  4  6  8 11  9
  -6292813.859 8  -4903491.645 6  20564521.261 0  20564520.169 0
   3116785.688 7   2428664.397 6  20873029.403 0  20873029.433 0
  -9071071.820 6  -6910189.000 6  20656275.425 0  20656279.681 0
 -13038365.554 7  -9940322.152 7  21450734.718 0  21450734.089 0
 88  2 26  6 19 29.0800000  0  4  6  8 11  9
  -6300131.510 7  -4909193.710 6  20563127.833 0  20563128.712 0
   3184238.358 7   2481224.935 7  20885864.166 0  20885864.470 0
  -9093729.761 6  -6927844.523 6  20651965.742 0  20651968.215 0
 -13116437.186 7 -10001157.198 6  21435877.760 0  21435878.312 0
 88  2 26  6 19 59.0800000  0  4  6  8 11  9
  -6306963.952 7  -4914517.698 6  20561828.540 0  20561827.602 0
   3252136.222 7   2534132.360 7  20898785.146 0  20898786.072 0
  -9115850.281 6  -6945081.293 6  20647755.660 0  20647757.669 0
 -13194260.201 7 -10061798.507 7  21421068.777 0  21421069.396 0
 88  2 26  6 20 29.0800000  0  4  6  8 11  9
  -6313309.468 7  -4919462.269 7  20560619.812 0  20560619.845 0
   3320476.081 7   2587384.199 7  20911789.902 0  20911790.226 0
  -9137433.783 7  -6961899.595 6  20643648.484 0  20643650.314 0
 -13271831.921 7 -10122243.989 6  21406307.363 0  21406308.720 0
 88  2 26  6 20 59.0800000  0  4  6  8 11  9
  -6319166.395 7  -4924026.110 7  20559505.966 0  20559505.701 0
   3389254.666 7   2640977.910 7  20924878.405 0  20924878.507 0
  -9158480.586 6  -6978299.680 7  20639644.264 0  20639646.633 0
 -13349149.288 7 -10182491.280 6  21391594.214 0  21391594.578 0
 88  2 26  6 21 29.0800000  0  4  6  8 11  9
  -6324533.011 7  -4928207.893 6  20558484.905 0  20558484.108 0
   3458468.754 7   2694910.958 6  20938047.579 0  20938049.358 0
  -9178990.893 6  -6994281.728 6  20635741.270 0  20635743.134 0
 -13426209.430 7 -10242538.139 6  21376930.402 0  21376930.390 0
 88  2 26  6 21 59.0800000  0  4  6  8 11  9
  -6329407.572 7  -4932006.268 6  20557557.763 0  20557556.818 0
   3528115.230 7   2749180.940 7  20951301.789 0  20951302.068 0
  -9198965.066 6  -7009846.020 6  20631939.448 0  20631943.446 0
 -13503009.912 7 -10302382.658 7  21362315.766 0  21362315.695 0
 88  2 26  6 22 29.0800000  0  4  6  8 11  9
  -6333788.440 7  -4935419.935 6  20556723.182 0  20556723.932 0
   3598190.733 7   2803785.234 7  20964637.227 0  20964636.730 0
  -9218403.677 6  -7024992.965 6  20628240.646 0  20628243.134 0
 -13579547.537 7 -10362022.372 7  21347749.994 0  21347751.341 0
 88  2 26  6 22 59.0800000  0  4  6  8 11  9
  -6337673.807 7  -4938447.508 6  20555984.364 0  20555984.601 0
   3668692.672 7   2858721.807 6  20978052.324 0  20978053.315 0
  -9237307.012 6  -7039722.822 6  20624643.032 0  20624646.170 0
 -13655819.828 8 -10421455.325 7  21333236.678 0  21333237.975 0
 88  2 26  6 23 29.0800000  0  4  6  8 11  9
  -6341062.269 7  -4941087.863 7  20555338.888 0  20555338.850 0
   3739617.821 7   2913988.154 7  20991549.716 0  20991550.015 0
  -9255675.750 6  -7054036.115 6  20621147.834 0  20621150.623 0
 -13731823.818 7 -10480679.218 7  21318773.373 0  21318774.423 0
 88  2 26  6 23 59.0800000  0  4  6  8 11  9
  -6343951.960 7  -4943339.583 6  20554789.139 0  20554789.662 0
   3810962.545 7   2969581.453 7  21005125.799 0  21005125.386 0
  -9273510.246 6  -7067933.107 6  20617753.565 0  20617757.561 0
 -13807556.885 7 -10539691.990 6  21304362.143 0  21304363.256 0
 88  2 26  6 24 29.0800000  0  4  6  8 11  9
  -6346341.300 7  -4945201.415 7  20554334.133 0  20554334.717 0
   3882723.839 7   3025499.340 7  21018780.533 0  21018783.133 0
  -9290810.885 7  -7081414.124 6  20614462.202 0  20614464.532 0
 -13883015.999 7 -10598491.303 6  21290002.752 0  21290004.083 0
 88  2 26  6 24 59.0800000  0  4  6  8 11  9
  -6348228.846 7  -4946672.237 6  20553975.801 0  20553975.579 0
   3954898.930 7   3081739.673 7  21032515.096 0  21032516.993 0
  -9307578.323 7  -7094479.649 7  20611271.714 0  20611273.345 0
 -13958198.303 7 -10657074.898 6  21275696.721 0  21275696.452 0
 88  2 26  6 25 29.0800000  0  4  6  8 11  9
  -6349612.901 7  -4947750.727 6  20553713.340 0  20553712.311 0
   4027484.525 7   3138299.879 7  21046328.138 0  21046330.103 0
  -9323812.974 6  -7107130.006 6  20608182.122 0  20608185.188 0
 -14033101.142 7 -10715440.748 7  21261442.216 0  21261442.774 0
 88  2 26  6 25 59.0800000  0  4  6  8 11  9
  -6350491.927 7  -4948435.684 6  20553545.246 0  20553544.923 0
   4100477.264 7   3195177.343 7  21060218.629 0  21060220.150 0
  -9339515.383 6  -7119365.630 7  20605194.977 0  20605196.676 0
 -14107721.481 7 -10773586.467 7  21247243.262 0  21247243.802 0
 88  2 26  6 26 29.0800000  0  4  6  8 11  9
  -6350864.168 7  -4948725.757 6  20553473.214 0  20553474.424 0
   4173874.248 7   3252369.791 7  21074185.593 0  21074186.780 0
  -9354685.982 7  -7131186.870 6  20602306.013 0  20602309.160 0
 -14182056.546 7 -10831509.894 7  21233097.025 0  21233098.427 0
 88  2 26  6 26 59.0800000  0  4  6  8 11  9
  -6350728.215 7  -4948619.830 6  20553499.028 0  20553499.156 0
   4247671.642 7   3309874.253 7  21088228.437 0  21088230.026 0
  -9369325.487 6  -7142594.275 7  20599521.281 0  20599524.197 0
 -14256103.315 7 -10889208.676 7  21219007.780 0  21219007.123 0
 88  2 26  6 27 29.0800000  0  4  6  8 11  9
  -6350082.695 7  -4948116.829 6  20553622.637 0  20553623.557 0
   4321866.594 7   3367688.504 7  21102347.522 0  21102348.909 0
  -9383434.966 7  -7153588.657 6  20596836.416 0  20596838.996 0
 -14329859.248 7 -10946680.826 6  21204970.921 0  21204971.875 0
 88  2 26  6 27 59.0800000  0  4  6  8 11  9
  -6348925.957 7  -4947215.475 7  20553842.609 0  20553842.508 0
   4396456.002 7   3425810.122 7  21116541.439 0  21116541.412 0
  -9397014.411 6  -7164170.027 6  20594252.345 0  20594255.222 0
 -14403321.444 7 -11003924.115 7  21190992.352 0  21190991.689 0
 88  2 26  6 28 29.0800000  0  4  6  8 11  9
  -6347256.683 7  -4945914.750 7  20554160.972 0  20554160.555 0
   4471436.302 8   3484236.336 7  21130810.226 0  21130810.870 0
  -9410064.805 7  -7174339.161 6  20591769.308 0  20591771.508 0
 -14476486.870 7 -11060936.133 7  21177069.477 0  21177069.335 0
 88  2 26  6 28 59.0800000  0  4  6  8 11  9
  -6345073.267 7  -4944213.408 6  20554575.589 0  20554576.258 0
   4546804.193 8   3542964.562 7  21145151.472 0  21145152.676 0
  -9422586.699 6  -7184096.468 7  20589385.328 0  20589388.497 0
 -14549352.760 7 -11117714.743 6  21163203.248 0  21163203.813 0
 88  2 26  6 29 29.0800000  0  4  6  8 11  9
  -6342374.295 7  -4942110.313 6  20555089.696 0  20555089.834 0
   4622557.291 7   3601992.945 7  21159567.156 0  21159567.631 0
  -9434580.919 6  -7193442.609 7  20587103.699 0  20587105.923 0
 -14621916.298 7 -11174257.748 6  21149395.195 0  21149394.237 0
 88  2 26  6 29 59.0800000  0  4  6  8 11  9
  -6339158.278 6  -4939604.334 6  20555701.494 0  20555702.073 0
   4698691.985 7   3661318.684 7  21174055.100 0  21174056.246 0
  -9446048.190 6  -7202378.123 6  20584921.037 0  20584923.466 0
 -14694174.375 7 -11230562.742 7  21135645.214 0  21135644.942 0
 88  2 26  6 30 29.0800000  0  4  6  8 11  9
  -6335423.833 7  -4936694.385 6  20556411.779 0  20556411.843 0
   4775205.173 7   3720939.343 7  21188614.995 0  21188615.581 0
  -9456989.264 6  -7210903.635 7  20582840.082 0  20582841.310 0
 -14766124.134 7 -11286627.488 7  21121953.365 0  21121954.142 0
 88  2 26  6 30 59.0800000  0  4  6  8 11  9
  -6331169.682 7  -4933379.458 7  20557222.286 0  20557221.369 0
   4852093.431 7   3780852.275 7  21203247.230 0  21203246.904 0
  -9467404.777 6  -7219019.589 6  20580857.871 0  20580860.914 0
 -14837763.135 7 -11342450.069 7  21108320.048 0  21108319.904 0
 88  2 26  6 31 29.0800000  0  4  6  8 11  9
  -6326394.401 7  -4929658.468 7  20558129.958 0  20558130.961 0
   4929353.395 7   3841054.855 7  21217948.729 0  21217949.170 0
  -9477295.636 6  -7226726.757 6  20578975.826 0  20578976.987 0
 -14909088.128 7 -11398027.996 7  21094747.770 0  21094747.143 0
 88  2 26  6 31 59.0800000  0  4  6  8 11  9
  -6321096.650 6  -4925530.365 7  20559138.527 0  20559139.170 0
   5006982.192 7   3901544.818 7  21232721.139 0  21232721.242 0
  -9486662.747 6  -7234025.800 7  20577192.497 0  20577195.091 0
 -14980096.252 7 -11453359.012 7  21081234.949 0  21081236.129 0
 88  2 26  6 32 29.0800000  0  4  6  8 11  9
  -6315275.093 7  -4920994.081 7  20560246.213 0  20560246.020 0
   5084976.303 7   3962319.453 7  21247563.005 0  21247563.309 0
  -9495506.901 6  -7240917.334 6  20575509.687 0  20575511.649 0
 -15050784.695 6 -11508440.886 6  21067783.666 0  21067784.992 0
 88  2 26  6 32 59.0800000  0  4  6  8 11  9
  -6308928.319 7  -4916048.570 6  20561453.457 0  20561454.142 0
   5163332.773 7   4023376.430 7  21262472.101 0  21262474.334 0
  -9503828.779 6  -7247401.919 7  20573926.600 0  20573928.029 0
 -15121150.719 7 -11563271.555 6  21054393.540 0  21054392.987 0
 88  2 26  6 33 29.0800000  0  4  6  8 11  9
  -6302055.106 7  -4910692.820 7  20562761.437 0  20562762.438 0
   5242048.564 7   4084713.402 7  21277452.053 0  21277452.555 0
  -9511629.239 6  -7253480.184 6  20572443.090 0  20572443.134 0
 -15191191.355 7 -11617848.669 6  21041065.569 0  21041065.365 0
 88  2 26  6 33 59.0800000  0  4  6  8 11  9
  -6294654.080 8  -4904925.797 6  20564170.503 0  20564170.474 0
   5321120.284 7   4146327.729 7  21292499.571 0  21292499.817 0
  -9518909.279 6  -7259152.940 6  20571056.972 0  20571058.282 0
 -15260903.436 7 -11672169.761 7  21027799.475 0  21027799.974 0
 88  2 26  6 34 29.0800000  0  4  6  8 11  9
  -6286724.186 7  -4898746.663 6  20565679.499 0  20565679.149 0
   5400544.831 7   4208216.986 7  21307613.117 0  21307613.145 0
  -9525669.919 7  -7264420.963 6  20569770.548 0  20569771.373 0
 -15330284.315 7 -11726232.781 7  21014597.245 0  21014596.214 0
 88  2 26  6 34 59.0800000  0  4  6  8 11  9
  -6278264.091 7  -4892154.404 6  20567287.097 0  20567289.480 0
   5480318.593 7   4270378.351 8  21322793.770 0  21322794.015 0
  -9531912.006 6  -7269284.912 6  20568582.428 0  20568584.014 0
 -15399331.048 7 -11780035.432 7  21001458.204 0  21001457.450 0
 88  2 26  6 35 29.0800000  0  4  6  8 11  9
  -6269272.582 7  -4885148.040 6  20568999.890 0  20569001.208 0
   5560438.561 6   4332809.502 7  21338039.902 0  21338040.146 0
  -9537636.586 7  -7273745.619 6  20567491.308 0  20567495.226 0
 -15468040.828 7 -11833575.512 6  20988382.956 0  20988383.175 0
 88  2 26  6 35 59.0800000  0  4  6  8 11  9
  -6259748.566 7  -4877726.715 7  20570812.396 0  20570812.709 0
   5640901.728 7   4395508.064 7  21353351.281 0  21353352.101 0
  -9542844.495 6  -7277803.714 6  20566501.247 0  20566504.838 0
 -15536410.842 7 -11886850.857 6  20975372.697 0  20975373.258 0
 88  2 26  6 36 29.0800000  0  4  6  8 11  9
  -6249690.781 7  -4869889.480 6  20572725.981 0  20572727.860 0
   5721704.888 7   4458471.560 7  21368727.311 0  21368728.014 0
  -9547536.834 6  -7281460.072 6  20565608.215 0  20565609.861 0
 -15604437.938 7 -11939858.976 6  20962427.877 0  20962427.725 0
 88  2 26  6 36 59.0800000  0  4  6  8 11  9
  -6239098.116 7  -4861635.464 7  20574742.661 0  20574743.124 0
   5802844.392 7   4521697.155 7  21384168.164 0  21384169.482 0
  -9551714.871 7  -7284715.688 7  20564815.578 0  20564816.471 0
 -15672119.454 8 -11992597.823 6  20949547.203 0  20949548.403 0
 88  2 26  6 37 29.0800000  0  4  6  8 11  9
  -6227969.359 7  -4852963.714 6  20576860.010 0  20576860.409 0
   5884317.464 7   4585182.664 7  21399671.514 0  21399672.451 0
  -9555379.280 6  -7287571.078 7  20564117.789 0  20564118.753 0
 -15739452.463 7 -12045065.096 6  20936734.203 0  20936734.680 0
 88  2 26  6 37 59.0800000  0  4  6  8 11  9
  -6216303.480 7  -4843873.431 6  20579080.075 0  20579079.439 0
   5966120.649 8   4648925.408 7  21415238.348 0  21415239.580 0
  -9558531.012 6  -7290026.954 6  20563515.172 0  20563517.973 0
 -15806433.988 7 -12097258.501 7  20923989.321 0  20923990.061 0
 88  2 26  6 38 29.0800000  0  4  6  8 11  9
  -6204099.410 6  -4834363.772 7  20581403.699 0  20581403.134 0
   6048250.705 7   4712922.864 7  21430868.078 0  21430868.453 0
  -9561171.489 6  -7292084.471 7  20563012.177 0  20563015.808 0
 -15873061.342 7 -12149175.904 6  20911309.694 0  20911310.250 0
 88  2 26  6 38 59.0800000  0  4  6  8 11  9
  -6191356.013 7  -4824433.867 6  20583827.442 0  20583827.893 0
   6130704.574 7   4777172.623 8  21446557.910 0  21446558.744 0
  -9563301.498 6  -7293744.201 7  20562608.657 0  20562611.283 0
 -15939331.216 7 -12200814.765 6  20898699.591 0  20898699.438 0
 88  2 26  6 39 29.0800000  0  4  6  8 11  9
  -6178072.326 7  -4814082.947 7  20586356.065 0  20586355.778 0
   6213479.246 7   4841672.368 7  21462310.188 0  21462310.289 0
  -9564922.505 6  -7295007.317 6  20562300.692 0  20562304.213 0
 -16005241.002 7 -12252173.039 6  20886156.320 0  20886157.255 0
 88  2 26  6 39 59.0800000  0  4  6  8 11  9
  -6164247.254 7  -4803310.177 6  20588985.974 0  20588987.029 0
   6296570.906 7   4906419.120 7  21478121.758 0  21478121.648 0
  -9566035.587 6  -7295874.653 6  20562087.747 0  20562090.241 0
 -16070788.021 7 -12303248.635 6  20873683.598 0  20873682.330 0
 88  2 26  6 40 29.0800000  0  4  6  8 11  9
  -6149879.839 6  -4792114.777 7  20591720.020 0  20591720.849 0
   6379976.591 7   4971410.577 7  21493991.540 0  21493994.061 0
  -9566641.730 6  -7296346.974 7  20561972.180 0  20561976.025 0
 -16135968.939 7 -12354038.958 6  20861280.591 0  20861279.376 0
 88  2 26  6 40 59.0800000  0  4  6  8 11  9
  -6134969.093 7  -4780496.045 6  20594557.150 0  20594557.824 0
   6463693.197 7   5036644.289 7  21509923.833 0  21509924.313 0
  -9566742.161 6  -7296425.233 7  20561953.265 0  20561956.695 0
 -16200781.390 7 -12404542.179 7  20848946.465 0  20848945.482 0
 88  2 26  6 41 29.0800000  0  4  6  8 11  9
  -6119514.180 7  -4768453.262 6  20597498.490 0  20597499.236 0
   6547717.453 7   5102117.737 7  21525913.323 0  21525913.739 0
  -9566338.132 6  -7296110.383 6  20562031.518 0  20562034.189 0
 -16265222.011 7 -12454755.661 6  20836683.691 0  20836684.898 0
 88  2 26  6 41 59.0800000  0  4  6  8 11  9
  -6103513.993 7  -4755985.597 6  20600543.938 0  20600543.974 0
   6632046.145 7   5167828.399 8  21541959.852 0  21541962.260 0
  -9565430.787 6  -7295403.368 6  20562202.696 0  20562205.327 0
 -16329288.024 7 -12504677.233 7  20824493.063 0  20824493.994 0
 88  2 26  6 42 29.0800000  0  4  6  8 11  9
  -6086967.599 7  -4743092.309 6  20603692.899 0  20603694.263 0
   6716676.270 7   5233773.939 7  21558063.934 0  21558064.897 0
  -9564021.387 6  -7294305.124 6  20562469.617 0  20562474.137 0
 -16392976.728 7 -12554304.776 7  20812372.236 0  20812373.377 0
 88  2 26  6 42 59.0800000  0  4  6  8 11  9
  -6069874.107 7  -4729772.698 6  20606945.047 0  20606945.375 0
   6801604.579 7   5299951.851 7  21574225.079 0  21574226.043 0
  -9562111.119 6  -7292816.597 7  20562834.266 0  20562838.238 0
 -16456284.913 8 -12603635.825 7  20800326.454 0  20800326.725 0
 88  2 26  6 43 29.0800000  0  4  6  8 11  9
  -6052232.845 7  -4716026.261 6  20610302.087 0  20610302.028 0
   6886827.523 8   5366359.327 7  21590442.752 0  21590443.438 0
  -9559701.333 6  -7290938.837 6  20563294.192 0  20563296.128 0
 -16519210.163 7 -12652668.488 7  20788351.921 0  20788351.877 0
 88  2 26  6 43 59.0800000  0  4  6  8 11  9
  -6034042.785 7  -4701852.201 6  20613763.926 0  20613763.945 0
   6972342.108 7   5432994.068 7  21606716.570 0  21606716.466 0
  -9556793.121 6  -7288672.702 6  20563846.085 0  20563850.094 0
 -16581749.181 7 -12701400.207 6  20776450.113 0  20776450.967 0
 88  2 26  6 44 29.0800000  0  4  6  8 11  9
  -6015303.125 7  -4687249.888 6  20617328.747 0  20617329.567 0
   7058145.488 7   5499853.845 7  21623043.815 0  21623045.064 0
  -9553387.715 6  -7286019.105 6  20564494.154 0  20564496.600 0
 -16643899.302 7 -12749828.871 6  20764624.879 0  20764624.666 0
 88  2 26  6 44 59.0800000  0  4  6  8 11  9
  -5996013.218 7  -4672218.797 6  20620999.948 0  20621000.776 0
   7144234.386 8   5566936.107 7  21639425.642 0  21639426.326 0
  -9549486.714 6  -7282979.378 6  20565237.009 0  20565239.809 0
 -16705657.660 7 -12797952.264 7  20752872.186 0  20752873.284 0
 88  2 26  6 45 29.0800000  0  4  6  8 11  9
  -5976172.102 7  -4656758.190 7  20624775.983 0  20624776.117 0
   7230605.951 7   5634238.612 7  21655862.126 0  21655863.686 0
  -9545091.255 6  -7279554.345 6  20566074.487 0  20566077.606 0
 -16767021.357 7 -12845768.122 6  20741195.732 0  20741195.762 0
 88  2 26  6 45 59.0800000  0  4  6  8 11  9
  -5955779.098 7  -4640867.555 7  20628656.779 0  20628656.383 0
   7317256.658 7   5701758.640 7  21672351.204 0  21672352.397 0
  -9540202.703 7  -7275745.082 6  20567004.635 0  20567006.294 0
 -16827987.649 7 -12893274.333 7  20729593.953 0  20729594.100 0
 88  2 26  6 46 29.0800000  0  4  6  8 11  9
  -5934833.335 7  -4624546.182 6  20632642.153 0  20632642.272 0
   7404183.065 7   5769493.500 7  21688892.778 0  21688894.254 0
  -9534822.411 6  -7271552.643 7  20568026.062 0  20568030.008 0
 -16888553.354 7 -12940468.378 6  20718068.368 0  20718068.055 0
 88  2 26  6 46 59.0800000  0  4  6  8 11  9
  -5913334.340 7  -4607793.726 7  20636734.513 0  20636733.015 0
   7491382.310 7   5837440.963 8  21705485.692 0  21705487.366 0
  -9528952.116 6  -7266978.386 6  20569144.851 0  20569146.715 0
 -16948715.940 7 -12987348.326 6  20706619.071 0  20706619.013 0
 88  2 26  6 47 29.0800000  0  4  6  8 11  9
  -5891281.337 7  -4590609.580 6  20640929.739 0  20640930.903 0
   7578851.427 7   5905598.702 6  21722131.264 0  21722132.878 0
  -9522593.007 6  -7262023.234 6  20570354.393 0  20570357.528 0
 -17008472.369 7 -13033911.765 7  20695248.347 0  20695248.490 0
 88  2 26  6 47 59.0800000  0  4  6  8 11  9
  -5868673.596 7  -4572993.174 6  20645231.867 0  20645232.203 0
   7666586.977 7   5973964.073 7  21738827.057 0  21738826.627 0
  -9515746.192 6  -7256688.054 6  20571656.901 0  20571660.521 0
 -17067819.894 7 -13080156.607 7  20683954.089 0  20683956.164 0
 88  2 26  6 48 29.0800000  0  4  6  8 11  9
  -5845510.437 7  -4554943.956 7  20649639.533 0  20649641.249 0
   7754585.909 7   6042534.666 8  21755573.279 0  21755573.467 0
  -9508413.521 7  -7250974.273 7  20573053.736 0  20573056.268 0
 -17126755.585 7 -13126080.509 7  20672739.994 0  20672740.610 0
 88  2 26  6 48 59.0800000  0  4  6  8 11  9
  -5821791.289 7  -4536461.518 7  20654153.230 0  20654154.110 0
   7842844.952 7   6111307.956 7  21772367.685 0  21772367.945 0
  -9500596.327 7  -7244882.955 6  20574539.967 0  20574542.256 0
 -17185276.752 7 -13171681.433 6  20661602.725 0  20661605.045 0
 88  2 26  6 49 29.0800000  0  4  6  8 11  9
  -5797515.615 7  -4517545.413 7  20658772.489 0  20658774.334 0
   7931360.911 8   6180281.416 7  21789210.997 0  21789211.899 0
  -9492295.925 6  -7238415.116 6  20576119.964 0  20576122.731 0
 -17243380.290 7 -13216956.904 7  20650546.559 0  20650546.694 0
 88  2 26  6 49 59.0800000  0  4  6  8 11  9
  -5772682.502 7  -4498194.959 7  20663499.623 0  20663499.378 0
   8020130.890 7   6249452.828 7  21806103.836 0  21806105.389 0
  -9483514.107 7  -7231572.143 6  20577790.203 0  20577793.565 0
 -17301063.534 7 -13261904.898 7  20639569.841 0  20639571.288 0
 88  2 26  6 50 29.0800000  0  4  6  8 11  9
  -5747291.991 7  -4478410.159 7  20668329.638 0  20668330.911 0
   8109151.746 7   6318819.727 7  21823043.258 0  21823045.287 0
  -9474252.114 7  -7224354.979 6  20579554.155 0  20579555.190 0
 -17358323.806 7 -13306523.277 7  20628674.051 0  20628674.625 0
 88  2 26  6 50 59.0800000  0  4  6  8 11  9
  -5721343.353 7  -4458190.438 7  20673267.867 0  20673268.135 0
   8198420.683 8   6388379.949 7  21840030.611 0  21840031.904 0
  -9464511.713 6  -7216765.062 6  20581407.659 0  20581410.719 0
 -17415158.239 7 -13350809.828 6  20617858.195 0  20617857.938 0
 88  2 26  6 51 29.0800000  0  4  6  8 11  9
  -5694835.967 7  -4437535.342 7  20678312.309 0  20678313.058 0
   8287934.317 7   6458130.830 7  21857064.866 0  21857066.091 0
  -9454294.231 7  -7208803.385 6  20583352.353 0  20583354.886 0
 -17471563.602 8 -13394762.071 6  20607125.132 0  20607126.103 0
 88  2 26  6 51 59.0800000  0  4  6  8 11  9
  -5667769.535 7  -4416444.629 7  20683461.982 0  20683463.194 0
   8377689.404 7   6528069.860 7  21874144.766 0  21874146.270 0
  -9443601.370 7  -7200471.300 6  20585386.605 0  20585390.224 0
 -17527537.555 7 -13438378.153 7  20596473.597 0  20596473.711 0
 88  2 26  6 52 29.0800000  0  4  6  8 11  9
  -5640143.473 7  -4394917.849 7  20688720.026 0  20688720.772 0
   8467682.961 8   6598194.704 7  21891269.700 0  21891271.543 0
  -9432434.515 7  -7191769.848 6  20587511.984 0  20587514.029 0
 -17583077.592 7 -13481656.102 6  20585904.718 0  20585905.711 0
 88  2 26  6 52 59.0800000  0  4  6  8 11  9
  -5611957.454 7  -4372954.717 7  20694083.821 0  20694084.286 0
   8557911.768 7   6668502.856 7  21908439.651 0  21908439.960 0
  -9420795.399 7  -7182700.398 6  20589727.056 0  20589729.366 0
 -17638180.394 7 -13524593.343 7  20575418.943 0  20575419.758 0
 88  2 26  6 53 29.0800000  0  4  6  8 11  9
  -5583210.945 7  -4350554.848 6  20699553.498 0  20699555.068 0
   8648372.992 7   6738992.127 7  21925654.830 0  21925655.136 0
  -9408685.821 6  -7173264.358 6  20592029.957 0  20592033.594 0
 -17692843.206 7 -13567187.743 6  20565016.822 0  20565017.048 0
 88  2 26  6 53 59.0800000  0  4  6  8 11  9
  -5553903.688 7  -4327718.049 6  20705130.408 0  20705131.292 0
   8739063.357 7   6809659.942 7  21942911.815 0  21942912.884 0
  -9396107.195 6  -7163462.828 6  20594425.064 0  20594426.735 0
 -17747063.321 7 -13609437.192 6  20554698.780 0  20554700.128 0
 88  2 26  6 54 29.0800000  0  4  6  8 11  9
  -5524035.201 7  -4304443.917 7  20710814.998 0  20710815.844 0
   8829979.893 7   6880503.983 7  21960211.860 0  21960214.077 0
  -9383060.908 6  -7153296.895 6  20596906.892 0  20596909.533 0
 -17800837.988 7 -13651339.523 6  20544465.676 0  20544467.041 0
 88  2 26  6 54 59.0800000  0  4  6  8 11  9
  -5493605.268 7  -4280732.280 7  20716605.631 0  20716605.727 0
   8921119.394 7   6951521.774 7  21977556.443 0  21977557.043 0
  -9369548.871 6  -7142768.022 6  20599478.578 0  20599480.271 0
 -17854164.494 7 -13692892.645 6  20534318.578 0  20534318.516 0
 88  2 26  6 55 29.0800000  0  4  6  8 11  9
  -5462613.644 7  -4256582.976 7  20722503.050 0  20722503.879 0
   9012478.902 7   7022710.994 8  21994940.334 0  21994941.312 0
  -9355572.549 6  -7131877.369 6  20602137.636 0  20602138.882 0
 -17907040.082 7 -13734094.413 6  20524255.528 0  20524257.557 0
 88  2 26  6 55 59.0800000  0  4  6  8 11  9
  -5431059.982 7  -4231995.721 7  20728506.987 0  20728507.014 0
   9104055.227 7   7094069.162 7  22012366.876 0  22012369.177 0
  -9341133.716 6  -7120626.341 6  20604886.440 0  20604886.922 0
 -17959462.092 7 -13774942.715 7  20514279.933 0  20514282.192 0
 88  2 26  6 56 29.0800000  0  4  6  8 11  9
  -5398943.901 7  -4206970.224 7  20734619.404 0  20734620.362 0
   9195845.893 8   7165594.359 7  22029834.348 0  22029836.303 0
  -9326234.221 6  -7109016.328 6  20607721.984 0  20607722.521 0
 -18011427.470 7 -13815435.212 6  20504392.886 0  20504393.012 0
 88  2 26  6 56 59.0800000  0  4  6  8 11  9
  -5366265.358 7  -4181506.434 7  20740836.697 0  20740837.014 0
   9287847.611 7   7237283.992 7  22047341.963 0  22047343.386 0
  -9310875.755 7  -7097048.703 6  20610644.097 0  20610646.129 0
 -18062933.912 7 -13855570.099 6  20494591.547 0  20494591.490 0
 88  2 26  6 57 29.0800000  0  4  6  8 11  9
  -5333024.080 7  -4155604.150 7  20747163.398 0  20747163.545 0
   9380057.003 7   7309135.470 7  22064888.107 0  22064891.458 0
  -9295059.928 7  -7084724.680 6  20613653.227 0  20613655.140 0
 -18113978.462 7 -13895345.090 6  20484877.331 0  20484877.685 0
 88  2 26  6 57 59.0800000  0  4  6  8 11  9
  -5299219.866 8  -4129263.207 7  20753595.316 0  20753596.809 0
   9472471.085 7   7381146.432 7  22082475.918 0  22082475.757 0
  -9278788.475 6  -7072045.607 6  20616749.885 0  20616752.096 0
 -18164558.541 7 -13934758.123 6  20475251.481 0  20475252.500 0
 88  2 26  6 58 29.0800000  0  4  6  8 11  9
  -5264852.544 8  -4102483.499 7  20760135.871 0  20760136.081 0
   9565086.702 7   7453314.452 7  22100099.356 0  22100100.029 0
  -9262062.999 7  -7059012.776 6  20619932.846 0  20619934.742 0
 -18214671.265 7 -13973807.005 6  20465716.241 0  20465715.779 0
 88  2 26  6 58 59.0800000  0  4  6  8 11  9
  -5229921.979 7  -4075264.884 6  20766782.920 0  20766783.491 0
   9657901.071 7   7525637.338 7  22117761.034 0  22117762.069 0
  -9244885.629 7  -7045627.801 6  20623201.680 0  20623202.757 0
 -18264314.126 7 -14012489.748 6  20456269.197 0  20456270.201 0
 88  2 26  6 59 29.0800000  0  4  6  8 11  9
  -5194428.174 7  -4047607.385 7  20773537.866 0  20773536.714 0
   9750911.161 7   7598112.726 7  22135459.631 0  22135461.449 0
  -9227257.724 7  -7031891.773 6  20626555.641 0  20626557.195 0
 -18313484.193 8 -14050804.090 6  20446912.277 0  20446913.325 0
 88  2 26  6 59 59.0800000  0  4  6  8 11  9
  -5158370.932 8  -4019510.846 7  20780398.414 0  20780398.811 0
   9844114.223 7   7670738.494 7  22153195.666 0  22153197.082 0
  -9209181.046 7  -7017806.039 6  20629996.037 0  20629997.016 0
 -18362178.819 7 -14088747.948 6  20437645.532 0  20437647.049 0
 88  2 26  7  0 29.0800000  0  4  6  8 11  9
  -5121750.255 7  -3990975.273 6  20787367.059 0  20787368.043 0
   9937507.161 7   7743512.202 7  22170968.397 0  22170969.207 0
  -9190657.481 7  -7003372.105 6  20633520.510 0  20633523.250 0
 -18410395.581 7 -14126319.455 7  20428471.454 0  20428471.955 0
 88  2 26  7  0 59.0800000  0  4  6  8 11  9
  -5084566.068 7  -3962000.579 7  20794443.212 0  20794443.646 0
  10031086.858 7   7816431.455 7  22188775.692 0  22188777.381 0
  -9171689.065 7  -6988591.496 6  20637129.451 0  20637130.214 0
 -18458131.819 7 -14163516.525 6  20419386.180 0  20419388.439 0
 88  2 26  7  1 29.0800000  0  4  6  8 11  9
  -5046818.368 7  -3932586.811 7  20801625.883 0  20801627.608 0
  10124850.315 7   7889493.886 7  22206618.701 0  22206619.232 0
  -9152277.334 7  -6973465.477 6  20640824.844 0  20640825.152 0
 -18505384.709 7 -14200336.955 6  20410395.773 0  20410395.962 0
 88  2 26  7  1 59.0800000  0  4  6  8 11  9
  -5008507.130 7  -3902733.900 7  20808915.896 0  20808916.816 0
  10218794.651 7   7962697.260 7  22224495.940 0  22224496.307 0
  -9132424.235 7  -6957995.521 6  20644602.251 0  20644603.595 0
 -18552151.700 7 -14236778.764 6  20401496.804 0  20401497.380 0
 88  2 26  7  2 29.0800000  0  4  6  8 11  9
  -4969632.483 7  -3872441.967 6  20816314.063 0  20816314.145 0
  10312916.862 7   8036039.260 7  22242407.565 0  22242407.110 0
  -9112131.618 7  -6942183.096 6  20648464.199 0  20648464.415 0
 -18598430.174 7 -14272839.901 6  20392689.615 0  20392690.331 0
 88  2 26  7  2 59.0800000  0  4  6  8 11  9
  -4930194.454 7  -3841711.054 7  20823818.971 0  20823820.132 0
  10407213.991 7   8109517.541 7  22260351.307 0  22260351.651 0
  -9091401.397 6  -6926029.660 7  20652408.296 0  20652410.785 0
 -18644217.443 7 -14308518.300 7  20383976.520 0  20383976.465 0
 88  2 26  7  3 29.0800000  0  4  6  8 11  9
  -4890193.122 7  -3810541.198 7  20831430.626 0  20831430.916 0
  10501683.174 7   8183129.873 7  22278326.252 0  22278328.569 0
  -9070235.456 7  -6909536.706 6  20656437.395 0  20656437.550 0
 -18689511.103 7 -14343812.068 6  20375356.496 0  20375357.537 0
 88  2 26  7  3 59.0800000  0  4  6  8 11  9
  -4849628.636 7  -3778932.505 7  20839150.555 0  20839150.348 0
  10596321.588 7   8256874.095 6  22296335.718 0  22296338.707 0
  -9048635.605 7  -6892705.667 6  20660546.508 0  20660547.415 0
 -18734308.410 7 -14378719.054 7  20366833.600 0  20366833.412 0
 88  2 26  7  4 29.0800000  0  4  6  8 11  9
  -4808501.140 7  -3746885.132 7  20846976.687 0  20846977.396 0
  10691126.385 7   8330747.965 7  22314376.428 0  22314377.580 0
  -9026603.802 7  -6875538.022 7  20664738.338 0  20664741.466 0
 -18778606.938 7 -14413237.404 7  20358402.658 0  20358402.358 0
 88  2 26  7  4 59.0800000  0  4  6  8 11  9
  -4766810.744 7  -3714399.108 7  20854909.755 0  20854910.154 0
  10786094.269 7   8404748.918 7  22332449.039 0  22332449.781 0
  -9004141.661 6  -6858035.055 6  20669014.017 0  20669015.452 0
 -18822404.007 7 -14447364.974 6  20350068.815 0  20350069.761 0
 88  2 26  7  5 29.0800000  0  4  6  8 11  9
  -4724557.675 7  -3681474.661 7  20862949.432 0  20862950.278 0
  10881222.524 7   8478874.829 7  22350550.922 0  22350551.860 0
  -8981251.348 6  -6840198.443 6  20673369.350 0  20673372.110 0
 -18865696.939 8 -14481099.741 7  20341830.588 0  20341831.376 0
 88  2 26  7  5 59.0800000  0  4  6  8 11  9
  -4681742.263 8  -3648112.008 7  20871098.311 0  20871097.940 0
  10976508.310 7   8553123.488 7  22368683.676 0  22368684.249 0
  -8957934.602 7  -6822029.554 6  20677805.662 0  20677808.000 0
 -18908483.546 7 -14514439.957 6  20333688.802 0  20333688.691 0
 88  2 26  7  6 29.0800000  0  4  6  8 11  9
  -4638364.602 7  -3614311.247 7  20879352.225 0  20879353.243 0
  11071948.891 7   8627492.774 7  22386845.337 0  22386845.778 0
  -8934193.525 7  -6803530.010 6  20682324.797 0  20682324.988 0
 -18950760.994 7 -14547383.413 6  20325643.974 0  20325643.834 0
 88  2 26  7  6 59.0800000  0  4  6  8 11  9
  -4594424.959 7  -3580072.574 7  20887713.613 0  20887714.479 0
  11167541.552 7   8701980.562 7  22405036.566 0  22405036.539 0
  -8910030.008 7  -6784701.283 6  20686922.406 0  20686923.655 0
 -18992526.947 7 -14579928.310 6  20317695.252 0  20317695.281 0
 88  2 26  7  7 29.0800000  0  4  6  8 11  9
  -4549923.562 7  -3545396.170 7  20896182.874 0  20896182.856 0
  11263283.370 7   8776584.583 7  22423255.984 0  22423255.442 0
  -8885445.861 7  -6765544.797 6  20691600.976 0  20691600.480 0
 -19033778.853 7 -14612072.675 7  20309845.259 0  20309846.736 0
 88  2 26  7  7 59.0800000  0  4  6  8 11  9
  -4504860.929 7  -3510282.445 7  20904758.148 0  20904757.654 0
  11359171.100 6   8851302.273 7  22441501.799 0  22441502.933 0
  -8860443.238 7  -6746062.230 6  20696358.441 0  20696360.059 0
 -19074514.358 7 -14643814.621 6  20302093.270 0  20302093.262 0
 88  2 26  7  8 29.0800000  0  4  6  8 11  9
  -4459237.183 7  -3474731.467 7  20913439.676 0  20913440.481 0
  11455202.285 6   8926131.762 6  22459776.644 0  22459777.559 0
  -8835023.944 7  -6726254.990 6  20701195.505 0  20701196.785 0
 -19114730.591 7 -14675151.952 6  20294440.828 0  20294441.192 0
 88  2 26  7  8 59.0800000  0  4  6  8 11  9
  -4413052.764 7  -3438743.638 6  20922227.432 0  20922229.340 0
  11551374.060 6   9001070.803 6  22478076.666 0  22478077.404 0
  -8809190.220 7  -6706124.827 6  20706109.928 0  20706112.316 0
 -19154425.442 7 -14706083.011 6  20286887.730 0  20286888.160 0
 88  2 26  7  9 29.0800000  0  4  6  8 11  9
  -4366308.130 7  -3402319.253 6  20931123.747 0  20931124.563 0
  11647683.689 7   9076117.269 7  22496404.577 0  22496405.205 0
  -8782944.090 7  -6685673.273 7  20711105.364 0  20711107.241 0
 -19193596.657 7 -14736606.032 7  20279431.635 0  20279433.068 0
 88  2 26  7  9 59.0800000  0  4  6  8 11  9
  -4319003.732 7  -3365458.688 7  20940124.452 0  20940125.477 0
  11744128.368 7   9151268.957 7  22514756.309 0  22514757.329 0
  -8756287.493 7  -6664901.900 6  20716178.047 0  20716178.470 0
 -19232241.333 6 -14766718.772 6  20272079.033 0  20272079.908 0
 88  2 26  7 10 29.0800000  0  4  6  8 11  9
  -4271139.929 8  -3328162.238 7  20949232.838 0  20949232.683 0
  11840705.266 5   9226523.671 5  22533135.549 0  22533135.430 0
  -8729222.419 7  -6643812.230 6  20721329.192 0  20721328.918 0
 -19270357.519 7 -14796419.694 6  20264826.666 0  20264825.720 0
 88  2 26  7 10 59.0800000  0  4  6  8 11  9
  -4222717.162 7  -3290430.223 6  20958447.099 0  20958447.476 0
  11937411.673 5   9301879.310 5  22551536.426 0  22551538.072 0
  -8701750.858 7  -6622405.828 6  20726555.172 0  20726558.792 0
 -19307942.640 7 -14825706.830 6  20257674.282 0  20257674.398 0
 88  2 26  7 11 29.0800000  0  4  6  8 11  9
  -4173736.019 7  -3252263.113 7  20967768.589 0  20967768.545 0
  12034244.783 7   9377333.677 7  22569964.617 0  22569964.404 0
  -8673874.668 7  -6600684.104 6  20731861.548 0  20731862.042 0
 -19344994.314 7 -14854578.248 6  20250623.635 0  20250624.117 0
 88  2 26  7 11 59.0800000  0  4  6  8 11  9
  -4124196.924 7  -3213661.223 6  20977196.693 0  20977196.505 0
  12131201.552 5   9452884.395 5  22588414.570 0  22588414.728 0
  -8645596.180 7  -6578648.924 7  20737242.678 0  20737245.128 0
 -19381510.420 7 -14883032.355 6  20243674.487 0  20243674.357 0
 88  2 26  7 12 29.0800000  0  4  6  8 11  9
  -4074100.490 7  -3174625.075 7  20986728.731 0  20986728.316 0
  12228279.501 4   9528529.553 5  22606887.938 0  22606889.339 0
  -8616917.148 7  -6556301.632 7  20742700.226 0  20742700.680 0
 -19417488.246 7 -14911067.028 6  20236827.078 0  20236830.002 0
 88  2 26  7 12 59.0800000  0  4  6  8 11  9
  -4023447.344 7  -3135155.079 7  20996367.014 0  20996367.318 0
  12325475.835 7   9604266.948 7  22625383.634 0  22625385.162 0
  -8587839.739 7  -6533643.885 7  20748233.014 0  20748233.733 0
 -19452925.642 6 -14938680.572 6  20230083.288 0  20230084.507 0
 88  2 26  7 13 29.0800000  0  4  6  8 11  9
  -3972237.969 7  -3095251.689 7  21006111.950 0  21006112.718 0
  12422787.565 4   9680094.258 5  22643902.281 0  22643903.253 0
  -8558366.218 7  -6510677.514 6  20753841.071 0  20753843.718 0
 -19487820.276 7 -14965871.220 6  20223444.617 0  20223444.282 0
 88  2 26  7 13 59.0800000  0  4  6  8 11  9
  -3920472.928 7  -3054915.295 7  21015962.466 0  21015962.240 0
  12520212.190 4   9756009.527 4  22662439.814 0  22662440.726 0
  -8528498.534 7  -6487403.999 6  20759524.498 0  20759525.642 0
 -19522169.859 6 -14992637.120 6  20216908.175 0  20216908.679 0
 88  2 26  7 14 29.0800000  0  4  6  8 11  9
  -3868152.999 7  -3014146.536 6  21025918.799 0  21025919.155 0
  12617747.152 7   9832010.811 7  22681000.526 0  22681002.646 0
  -8498238.974 7  -6463825.114 6  20765283.304 0  20765285.819 0
 -19555972.043 7 -15018976.488 7  20210475.123 0  20210476.044 0
 88  2 26  7 14 59.0800000  0  4  6  8 11  9
  -3815278.788 7  -2972945.868 7  21035979.523 0  21035980.498 0
  12715389.975 7   9908096.113 7  22699580.975 0  22699582.839 0
  -8467589.580 7  -6439942.473 6  20771115.981 0  20771118.208 0
 -19589224.853 7 -15044887.771 6  20204147.720 0  20204148.523 0
 88  2 26  7 15 29.0800000  0  4  6  8 11  9
  -3761850.981 7  -2931313.829 7  21046147.600 0  21046147.988 0
  12813137.403 3   9984262.942 3  22718182.100 0  22718183.869 0
  -8436552.104 7  -6415757.426 6  20777022.522 0  20777022.374 0
 -19621925.674 7 -15070368.934 5  20197924.896 0  20197925.371 0
 88  2 26  7 15 59.0800000  0  4  6  8 11  9
  -3707870.360 7  -2889251.006 7  21056420.375 0  21056420.302 0
  12910986.815 7  10060509.240 6  22736804.105 0  22736803.205 0
  -8405128.698 7  -6391271.641 6  20783002.406 0  20783003.452 0
 -19654072.625 7 -15095418.529 6  20191806.953 0  20191808.570 0
 88  2 26  7 16 29.0800000  0  4  6  8 11  9
  -3653337.588 7  -2846757.955 7  21066796.773 0  21066797.214 0
  13008935.654 7  10136833.011 7  22755441.900 0  22755443.293 0
  -8373321.519 7  -6366486.839 6  20789053.620 0  20789055.081 0
 -19685663.378 7 -15120034.680 5  20185796.081 0  20185794.575 0
 88  2 26  7 16 59.0800000  0  4  6  8 11  9
  -3598253.493 7  -2803835.282 6  21077279.446 0  21077278.635 0
  13106981.255 7  10213232.175 7  22774098.458 0  22774099.865 0
  -8341133.032 7  -6341404.898 6  20795179.357 0  20795180.936 0
 -19716695.578 6 -15144215.634 7  20179890.371 0  20179890.849 0
 88  2 26  7 17 29.0800000  0  4  6  8 11  9
  -3542618.718 7  -2760483.520 7  21087866.238 0  21087867.060 0
  13205120.699 7  10289704.459 7  22792775.102 0  22792775.185 0
  -8308565.246 7  -6316027.403 7  20801376.584 0  20801380.006 0
 -19747167.262 7 -15167959.794 6  20174090.903 0  20174092.412 0
 88  2 26  7 17 59.0800000  0  4  6  8 11  9
  -3486434.257 7  -2716703.437 6  21098558.046 0  21098559.183 0
  13303351.700 7  10366248.108 7  22811467.591 0  22811468.188 0
  -8275619.963 7  -6290355.761 6  20807646.643 0  20807647.963 0
 -19777076.348 7 -15191265.601 6  20168399.656 0  20168400.926 0
 88  2 26  7 18 29.0800000  0  4  6  8 11  9
  -3429700.770 7  -2672495.531 7  21109354.476 0  21109354.746 0
  13401671.568 7  10442860.998 7  22830176.994 0  22830177.844 0
  -8242299.503 6  -6264391.761 6  20813986.590 0  20813988.494 0
 -19806420.348 7 -15214131.047 6  20162816.819 0  20162815.767 0
 88  2 26  7 18 59.0800000  0  4  6  8 11  9
  -3372419.281 7  -2627860.609 7  21120254.447 0  21120253.674 0
  13500077.716 7  10519541.112 7  22848903.348 0  22848904.305 0
  -8208605.818 7  -6238136.931 7  20820399.684 0  20820401.762 0
 -19835197.489 7 -15236554.797 6  20157339.400 0  20157339.795 0
 88  2 26  7 19 29.0800000  0  4  6  8 11  9
  -3314590.559 7  -2582799.275 8  21131259.090 0  21131259.096 0
  13598567.518 8  10596286.389 7  22867644.469 0  22867646.360 0
  -8174541.454 7  -6211593.287 6  20826880.919 0  20826882.166 0
 -19863405.490 7 -15258535.062 6  20151972.457 0  20151973.681 0
 88  2 26  7 19 59.0800000  0  4  6  8 11  9
  -3256215.565 7  -2537312.292 7  21142366.645 0  21142367.832 0
  13697138.691 8  10673095.115 7  22886402.537 0  22886403.372 0
  -8140108.552 7  -6184762.446 6  20833433.156 0  20833434.004 0
 -19891042.512 6 -15280070.393 6  20146713.319 0  20146714.110 0
 88  2 26  7 20 29.0800000  0  4  6 13 11  9
  -3197295.175 7  -2491400.326 7  21153577.840 0  21153579.882 0
         -.389 8          .115 7  21359149.015 0          .000 0
  -8105309.009 7  -6157645.925 7  20840055.656 0  20840058.308 0
 -19918106.193 6 -15301158.992 6  20141564.168 0  20141564.472 0
 88  2 26  7 20 59.0800000  0  4  6 13 11  9
  -3137830.460 7  -2445064.171 7  21164894.551 0  21164894.305 0
    -55497.411 7  55778285.303 6  21348616.200 0  21348618.330 0
  -8070144.942 8  -6130245.361 6  20846746.879 0  20846749.368 0
 -19944594.905 7 -15321799.547 6  20136523.610 0  20136523.323 0
 88  2 26  7 21 29.0800000  0  4  6 13 11  9
  -3077822.259 7  -2398304.551 6  21176313.268 0  21176315.516 0
   -110547.337 8  55735389.271 6  21338140.985 0  21338140.971 0
  -8034618.536 7  -6102562.439 6  20853507.173 0  20853509.341 0
 -19970506.329 7 -15341990.283 6  20131591.918 0  20131591.865 0
 88  2 26  7 21 59.0800000  0  4  6 13 11  9
  -3017271.631 7  -2351122.259 6  21187836.561 0  21187836.528 0
   -165150.771 8  55692841.145 6  21327750.181 0  21327751.984 0
  -7998732.056 8  -6074598.954 7  20860336.274 0  20860338.539 0
 -19995838.610 7 -15361729.724 6  20126771.346 0  20126772.739 0
 88  2 26  7 22 29.0800000  0  4  6 13 11  9
  -2956179.510 7  -2303518.022 7  21199461.543 0  21199462.440 0
   -219307.234 7  55650641.320 7  21317444.516 0  21317446.132 0
  -7962487.617 7  -6046356.535 6  20867234.773 0  20867234.705 0
 -20020589.681 7 -15381016.270 6  20122062.148 0  20122061.308 0
 88  2 26  7 22 59.0800000  0  4  6 13 11  9
  -2894546.977 7  -2255492.682 7  21211188.930 0  21211189.991 0
   -273016.815 7  55608789.711 6  21307224.362 0  21307224.361 0
  -7925887.777 7  -6017837.177 7  20874197.432 0  20874199.598 0
 -20044757.633 7 -15399848.445 5  20117463.786 0  20117464.518 0
 88  2 26  7 23 29.0800000  0  4  6 13 11  9
  -2832375.202 7  -2207047.161 6  21223020.866 0  21223021.833 0
   -326278.718 7  55567286.941 6  21297088.188 0  21297091.681 0
  -7888934.562 7  -5989042.470 7  20881230.284 0  20881232.144 0
 -20068340.409 7 -15418224.640 6  20112974.718 0  20112975.300 0
 88  2 26  7 23 59.0800000  0  4  6 13 11  9
  -2769665.159 7  -2158182.196 6  21234954.720 0  21234955.823 0
   -379092.933 7  55526133.020 7  21287037.986 0  21287039.101 0
  -7851630.115 7  -5959974.060 7  20888328.194 0  20888331.061 0
 -20091336.333 7 -15436143.542 6  20108597.723 0  20108598.259 0
 88  2 26  7 24 29.0800000  0  4  6 13 11  9
  -2706418.164 7  -2108898.845 6  21246989.000 0  21246989.875 0
   -431459.565 7  55485327.857 6  21277073.352 0  21277075.298 0
  -7813976.405 7  -5930633.502 7  20895493.909 0  20895495.049 0
 -20113743.519 7 -15453603.705 6  20104334.547 0  20104336.359 0
 88  2 26  7 24 59.0800000  0  4  6 13 11  9
  -2642635.128 7  -2059197.786 7  21259127.891 0  21259128.487 0
   -483378.249 7  55444871.761 5  21267193.757 0  21267195.890 0
  -7775975.809 7  -5901022.661 6  20902726.156 0  20902727.412 0
 -20135559.807 7 -15470603.409 6  20100181.614 0  20100183.714 0
 88  2 26  7 25 29.0800000  0  4  6 13 11  9
  -2578317.364 7  -2009080.069 7  21271366.688 0  21271367.949 0
   -534849.145 7  55404764.591 6  21257399.158 0  21257401.249 0
  -7737630.591 7  -5871143.266 7  20910023.357 0  20910023.865 0
 -20156783.651 7 -15487141.472 6  20096144.371 0  20096144.187 0
 88  2 26  7 25 59.0800000  0  4  6 13 11  9
  -2513465.812 7  -1958546.408 7  21283705.785 0  21283708.362 0
   -585872.097 7  55365006.451 6  21247690.114 0  21247691.546 0
  -7698942.759 8  -5840996.894 7  20917385.095 0  20917384.842 0
 -20177413.022 7 -15503216.324 5  20092218.581 0  20092219.324 0
 88  2 26  7 26 29.0800000  0  4  6 13 11  9
  -2448082.048 7  -1907598.026 6  21296149.282 0  21296148.617 0
   -636446.995 7  55325597.464 6  21238065.940 0  21238067.271 0
  -7659914.466 8  -5810585.249 7  20924811.022 0  20924812.222 0
 -20197446.305 7 -15518826.674 6  20088405.819 0  20088407.618 0
 88  2 26  7 26 59.0800000  0  4  6 13 11  9
  -2382166.999 6  -1856235.659 6  21308692.327 0  21308692.601 0
   -686574.008 7  55286537.444 7  21228527.534 0  21228528.479 0
  -7620547.948 7  -5779910.035 7  20932302.159 0  20932304.272 0
 -20216881.690 6 -15533971.132 6  20084707.913 0  20084708.327 0
 88  2 26  7 27 29.0800000  0  4  6 13 11  9
  -2315722.263 7  -1804460.540 6  21321338.040 0  21321337.300 0
   -736252.675 7  55247826.822 5  21219073.395 0  21219074.196 0
  -7580845.777 7  -5748973.269 7  20939857.188 0  20939858.535 0
 -20235717.318 6 -15548648.240 6  20081123.451 0  20081124.048 0
 88  2 26  7 27 59.0800000  0  4  6 13 11  9
  -2248748.620 7  -1752273.302 7  21334081.279 0  21334081.094 0
   -785482.910 6  55209465.619 6  21209704.681 0  21209706.027 0
  -7540809.843 7  -5717776.434 7  20947475.520 0  20947478.614 0
 -20253951.836 6 -15562856.948 6  20077654.211 0  20077653.806 0
 88  2 26  7 28 29.0800000  0  4  6 13 11  9
  -2181247.766 8  -1699675.245 6  21346926.720 0  21346927.203 0
   -834264.980 7  55171453.618 6  21200421.908 0  21200423.683 0
  -7500442.554 7  -5686321.417 6  20955158.493 0  20955160.334 0
 -20271583.062 6 -15576595.575 6  20074300.201 0  20074299.541 0
 88  2 26  7 28 59.0800000  0  4  6 13 11  9
  -2113221.058 7  -1646667.425 6  21359871.597 0  21359871.823 0
   -882599.287 7  55133790.524 6  21191224.190 0  21191226.366 0
  -7459746.116 7  -5654609.899 7  20962901.705 0  20962904.011 0
 -20288609.429 7 -15589862.885 5  20071058.044 0  20071059.659 0
 88  2 26  7 29 29.0800000  0  4  6 13 11  9
  -2044669.571 7  -1593250.691 6  21372916.423 0  21372917.098 0
   -930485.312 7  55096476.760 6  21182111.168 0  21182113.528 0
  -7418723.137 7  -5622643.950 6  20970709.398 0  20970709.321 0
 -20305029.533 6 -15602657.766 6  20067934.414 0  20067933.987 0
 88  2 26  7 29 59.0800000  0  4  6 13 11  9
  -1975594.787 7  -1539426.206 6  21386060.506 0  21386062.832 0
   -977922.933 7  55059512.392 6  21173084.858 0  21173087.718 0
  -7377375.448 7  -5590424.969 7  20978576.175 0  20978578.716 0
 -20320841.582 6 -15614978.837 6  20064925.261 0  20064926.819 0
 88  2 26  7 30 29.0800000  0  4  6 13 11  9
  -1905998.148 7  -1485195.069 6  21399304.121 0  21399306.027 0
  -1024912.428 7  55022897.200 6  21164143.002 0  21164145.420 0
  -7335705.377 7  -5557954.778 6  20986505.693 0  20986507.995 0
 -20336043.714 6 -15626824.690 6  20062031.346 0  20062032.264 0
 88  2 26  7 30 59.0800000  0  4  6 13 11  9
  -1835881.038 7  -1430558.370 6  21412647.108 0  21412648.456 0
  -1071453.993 7  54986631.057 7  21155286.315 0  21155288.433 0
  -7293715.335 7  -5525235.246 6  20994495.546 0  20994498.239 0
 -20350634.638 7 -15638194.240 5  20059255.947 0  20059257.657 0
 88  2 26  7 31 29.0800000  0  4  6 13 11  9
  -1765244.789 7  -1375517.151 7  21426088.148 0  21426090.348 0
  -1117547.772 7  54950713.838 6  21146514.437 0  21146516.928 0
  -7251407.172 7  -5492267.871 6  21002547.277 0  21002549.008 0
 -20364612.838 6 -15649086.343 6  20056595.019 0  20056595.913 0
 88  2 26  7 31 59.0800000  0  4  6 13 11  9
  -1694090.966 7  -1320072.611 6  21439629.003 0  21439630.078 0
  -1163193.874 7  54915145.458 6  21137829.733 0  21137830.591 0
  -7208783.349 7  -5459054.478 6  21010659.631 0  21010660.665 0
 -20377976.608 6 -15659499.677 5  20054051.606 0  20054052.787 0
 88  2 26  7 32 29.0800000  0  4  6 13 11  9
  -1622421.022 7  -1264225.921 6  21453267.397 0  21453269.094 0
  -1208392.137 7  54879926.062 6  21129227.690 0  21129229.393 0
  -7165845.947 7  -5425596.762 7  21018829.076 0  21018830.756 0
 -20390724.524 6 -15669433.107 6  20051625.428 0  20051627.270 0
 88  2 26  7 32 59.0800000  0  4  6 13 11  9
  -1550236.393 7  -1207978.168 6  21467004.386 0  21467004.718 0
  -1253143.153 8  54845055.142 6  21120712.620 0  21120712.991 0
  -7122597.431 8  -5391896.637 7  21027058.922 0  21027061.434 0
 -20402854.964 6 -15678885.412 5  20049318.205 0  20049318.377 0
 88  2 26  7 33 29.0800000  0  4  6 13 11  9
  -1477538.676 7  -1151330.615 7  21480838.071 0  21480839.097 0
  -1297446.859 8  54810532.783 6  21112281.030 0  21112283.535 0
  -7079040.184 7  -5357955.912 6  21035348.195 0  21035349.620 0
 -20414366.832 6 -15687855.706 6  20047126.784 0  20047129.086 0
 88  2 26  7 33 59.0800000  0  4  6 13 11  9
  -1404329.430 7  -1094284.453 6  21494769.458 0  21494769.518 0
  -1341303.552 7  54776358.751 7  21103935.280 0  21103937.785 0
  -7035176.169 7  -5323776.163 7  21043694.686 0  21043695.295 0
 -20425258.334 6 -15696342.605 6  20045055.248 0  20045054.705 0
 88  2 26  7 34 29.0800000  0  4  6 13 11  9
  -1330610.103 7  -1036840.854 6  21508797.012 0  21508798.767 0
  -1384713.030 7  54742533.194 6  21095675.215 0  21095676.861 0
  -6991007.641 7  -5289359.122 7  21052100.589 0  21052102.047 0
 -20435528.370 6 -15704345.221 6  20043101.723 0  20043102.609 0
 88  2 26  7 34 59.0800000  0  4  6 13 11  9
  -1256382.331 7   -979001.037 6  21522922.882 0  21522922.164 0
  -1427675.999 7  54709055.570 6  21087499.000 0  21087500.361 0
  -6946537.092 8  -5254706.752 6  21060562.739 0  21060563.475 0
 -20445175.206 6 -15711862.231 7  20041263.555 0  20041265.537 0
 88  2 26  7 35 29.0800000  0  4  6 13 11  9
  -1181647.736 7   -920766.299 6  21537144.067 0  21537144.493 0
  -1470192.846 8  54675925.574 6  21079409.916 0  21079411.232 0
  -6901766.552 7  -5219820.613 6  21069082.832 0  21069082.699 0
 -20454197.633 6 -15718892.710 6  20039547.549 0  20039548.501 0
 88  2 26  7 35 59.0800000  0  4  6 13 11  9
  -1106407.971 8   -862137.925 7  21551462.276 0  21551463.302 0
  -1512263.768 8  54643143.051 6  21071402.937 0  21071403.665 0
  -6856698.253 7  -5184702.463 7  21077658.738 0  21077660.357 0
 -20462594.456 6 -15725435.680 6  20037949.997 0  20037951.371 0
 88  2 26  7 36 29.0800000  0  4  6 13 11  9
  -1030664.613 7   -803117.147 6  21565874.923 0  21565876.552 0
  -1553888.681 7  54610708.057 5  21063481.756 0  21063485.246 0
  -6811334.402 7  -5149354.014 7  21086291.595 0  21086292.737 0
 -20470364.279 6 -15731490.097 5  20036471.209 0  20036472.688 0
 88  2 26  7 36 59.0800000  0  4  6 13 11  9
   -954418.955 7   -743704.965 7  21580384.147 0  21580384.971 0
  -1595067.736 7  54578620.491 6  21055646.643 0  21055647.531 0
  -6765677.245 7  -5113777.005 7  21094978.810 0  21094980.074 0
 -20477505.755 6 -15737054.888 6  20035112.375 0  20035113.811 0
 88  2 26  7 37 29.0800000  0  4  6 13 11  9
   -877673.558 7   -683903.382 7  21594988.338 0  21594990.529 0
  -1635801.974 8  54546879.536 6  21047894.826 0  21047897.073 0
  -6719729.142 7  -5077973.288 6  21103722.321 0  21103722.196 0
 -20484017.997 6 -15742129.375 6  20033872.343 0  20033876.118 0
 88  2 26  7 37 59.0800000  0  4  6 13 11  9
   -800429.624 7   -623713.307 6  21609687.156 0  21609688.483 0
  -1676091.389 8  54515485.203 7  21040227.546 0  21040229.549 0
  -6673492.376 7  -5041944.648 7  21112519.838 0  21112523.410 0
 -20489899.482 7 -15746712.351 6  20032753.309 0  20032756.275 0
 88  2 26  7 38 29.0800000  0  4  6 13 11  9
   -722688.909 7   -563136.140 7  21624479.792 0  21624481.062 0
  -1715935.587 7  54484437.786 6  21032646.094 0  21032646.709 0
  -6626969.172 7  -5005692.791 7  21121374.095 0  21121376.582 0
 -20495148.750 6 -15750802.695 6  20031755.279 0  20031756.639 0
 88  2 26  7 38 59.0800000  0  4  6 13 11  9
   -644453.145 7   -502173.225 7  21639368.681 0  21639368.970 0
  -1755335.639 8  54453736.443 7  21025147.648 0  21025150.868 0
  -6580161.768 7  -4969219.477 6  21130281.462 0  21130283.398 0
 -20499765.109 6 -15754399.866 6  20030877.012 0  20030878.604 0
 88  2 26  7 39 29.0800000  0  4  6 13 11  9
   -565724.151 7   -440825.973 7  21654349.840 0  21654351.488 0
  -1794292.011 7  54423380.850 6  21017734.516 0  21017736.189 0
  -6533072.332 8  -4932526.418 7  21139241.198 0  21139243.249 0
 -20503747.152 6 -15757502.768 6  20030119.098 0  20030119.407 0
 88  2 26  7 39 59.0800000  0  4  6 13 11  9
   -486503.687 8   -379095.753 6  21669425.326 0  21669427.356 0
  -1832804.848 8  54393370.858 6  21010405.864 0  21010407.109 0
  -6485703.124 7  -4895615.371 6  21148256.163 0  21148257.907 0
 -20507093.845 6 -15760110.582 6  20029482.152 0  20029484.061 0
 88  2 26  7 40 29.0800000  0  4  6 13 11  9
   -406793.575 7   -316983.998 7  21684594.466 0  21684594.870 0
  -1870875.242 7  54363705.643 7  21003161.150 0  21003162.995 0
  -6438056.617 7  -4858488.210 7  21157322.428 0  21157325.048 0
 -20509804.062 5 -15762222.424 6  20028967.302 0  20028967.823 0
 88  2 26  7 40 59.0800000  0  4  6 13 11  9
   -326595.622 8   -254492.086 7  21699854.936 0  21699855.726 0
  -1908502.715 7  54334385.542 6  20996001.002 0  20996002.962 0
  -6390134.974 7  -4821146.672 7  21166442.220 0  21166443.134 0
 -20511876.679 6 -15763837.476 6  20028572.250 0  20028573.553 0
 88  2 26  7 41 29.0800000  0  4  6 13 11  9
   -245911.627 7   -191621.462 7  21715208.700 0  21715209.482 0
  -1945688.078 7  54305409.959 6  20988924.721 0  20988926.381 0
  -6341940.595 7  -4783592.615 7  21175613.426 0  21175615.040 0
 -20513310.719 6 -15764954.924 6  20028299.679 0  20028301.312 0
 88  2 26  7 41 59.0800000  0  4  6 13 11  9
   -164743.536 7   -128373.605 7  21730654.943 0  21730656.027 0
  -1982431.939 7  54276778.380 5  20981932.363 0  20981934.107 0
  -6293475.748 7  -4745827.821 7  21184834.823 0  21184837.165 0
 -20514105.460 5 -15765574.189 6  20028147.849 0  20028149.743 0
 88  2 26  7 42 29.0800000  0  4  6 13 11  9
    -83093.003 8    -64749.825 7  21746192.217 0  21746193.457 0
  -2018734.412 7  54248490.751 6  20975025.605 0  20975026.864 0
  -6244741.926 7  -4707853.411 7  21194110.598 0  21194110.836 0
 -20514259.421 6 -15765694.164 6  20028117.180 0  20028119.399 0
 88  2 26  7 42 59.0800000  0  4  6 13 11  9
      -962.340 8      -751.913 7  21761821.133 0  21761822.460 0
  -2054596.767 7  54220546.091 6  20968200.764 0  20968201.752 0
  -6195742.287 7  -4669671.868 6  21203433.796 0  21203436.270 0
 -20513772.055 6 -15765314.412 6  20028212.249 0  20028212.856 0
 88  2 26  7 43 29.0800000  0  4  6 13 11  9
     81646.837 7     63618.867 7  21777541.198 0  21777542.524 0
  -2090018.617 7  54192944.649 6  20961460.821 0  20961461.437 0
  -6146478.540 8  -4631284.525 7  21212808.842 0  21212810.464 0
 -20512642.294 5 -15764434.085 6  20028425.353 0  20028426.716 0
 88  2 26  7 43 59.0800000  0  4  6 13 11  9
    164732.480 8    128360.900 7  21793351.125 0  21793352.803 0
  -2125001.017 7  54165685.645 6  20954803.942 0  20954805.660 0
  -6096953.305 7  -4592693.430 6  21222233.606 0  21222234.668 0
 -20510869.345 6 -15763052.560 6  20028764.693 0  20028765.206 0
 88  2 26  7 44 29.0800000  0  4  6 13 11  9
    248292.533 7    193472.638 7  21809252.623 0  21809254.015 0
  -2159544.332 7  54138768.791 6  20948229.958 0  20948229.640 0
  -6047168.559 7  -4553900.133 7  21231707.090 0  21231707.642 0
 -20508452.382 5 -15761169.213 6  20029225.250 0  20029225.853 0
 88  2 26  7 44 59.0800000  0  4  6 13 11  9
    332325.265 7    258952.669 6  21825242.897 0  21825245.039 0
  -2193649.508 7  54112193.334 6  20941739.366 0  20941739.995 0
  -5997126.859 7  -4514906.595 7  21241229.440 0  21241230.023 0
 -20505390.262 6 -15758783.176 6  20029805.599 0  20029807.133 0
 88  2 26  7 45 29.0800000  0  4  6 13 11  9
    416828.619 7    324799.414 7  21841322.780 0  21841325.245 0
  -2227316.510 7  54085959.313 6  20935332.528 0  20935333.427 0
  -5946830.161 7  -4475714.381 7  21250800.591 0  21250802.237 0
 -20501682.464 6 -15755893.979 6  20030512.531 0  20030513.271 0
 88  2 26  7 45 59.0800000  0  4  6 13 11  9
    501800.507 7    391011.268 7  21857493.535 0  21857493.768 0
  -2260546.431 7  54060065.867 6  20929009.955 0  20929012.229 0
  -5896280.485 7  -4436325.016 6  21260419.617 0  21260420.766 0
 -20497328.056 6 -15752500.931 6  20031341.039 0  20031342.673 0
 88  2 26  7 46 29.0800000  0  4  6 13 11  9
    587238.892 7    457586.612 7  21873751.249 0  21873752.287 0
  -2293339.990 7  54034512.467 5  20922768.112 0  20922770.989 0
  -5845480.449 7  -4396740.572 7  21270086.571 0  21270088.754 0
 -20492326.209 6 -15748603.394 6  20032293.579 0  20032294.226 0
 88  2 26  7 46 59.0800000  0  4  6 13 11  9
    673141.760 7    524523.889 7  21890097.935 0  21890100.091 0
  -2325697.143 7  54009299.114 6  20916611.427 0  20916613.774 0
  -5794432.146 7  -4356962.691 7  21279801.107 0  21279803.322 0
 -20486676.452 6 -15744200.985 6  20033369.406 0  20033368.854 0
 88  2 26  7 47 29.0800000  0  4  6 13 11  9
    759507.040 7    591821.497 6  21906532.858 0  21906533.971 0
  -2357619.168 7  53984424.828 6  20910537.049 0  20910538.551 0
  -5743137.867 7  -4316993.132 7  21289561.400 0  21289564.478 0
 -20480377.965 6 -15739293.092 6  20034567.106 0  20034567.090 0
 88  2 26  7 47 59.0800000  0  4  6 13 11  9
    846332.621 7    659477.772 6  21923055.747 0  21923057.331 0
  -2389106.617 7  53959889.152 6  20904544.774 0  20904547.207 0
  -5691599.624 8  -4276833.456 7  21299369.731 0  21299371.745 0
 -20473430.218 6 -15733879.268 6  20035890.021 0  20035889.194 0
 88  2 26  7 48 29.0800000  0  4  6 13 11  9
    933616.401 7    727491.085 7  21939664.865 0  21939666.199 0
  -2420160.594 7  53935691.262 7  20898634.993 0  20898637.482 0
  -5639819.851 7  -4236485.578 7  21309222.687 0  21309225.042 0
 -20465832.734 6 -15727959.158 6  20037333.848 0  20037335.031 0
 88  2 26  7 48 59.0800000  0  4  6 13 11  9
   1021356.301 8    795859.818 7  21956361.832 0  21956363.039 0
  -2450781.057 7  53911831.156 6  20892808.719 0  20892810.321 0
  -5587800.568 8  -4195951.073 7  21319122.044 0  21319123.421 0
 -20457584.577 6 -15721532.017 6  20038904.369 0  20038904.931 0
 88  2 26  7 49 29.0800000  0  4  6 13 11  9
   1109550.110 8    864582.261 6  21973144.842 0  21973146.886 0
  -2480968.811 7  53888308.258 5  20887064.682 0  20887067.188 0
  -5535544.232 7  -4155231.848 7  21329066.035 0  21329066.467 0
 -20448685.191 6 -15714597.436 5  20040597.619 0  20040598.663 0
 88  2 26  7 49 59.0800000  0  4  6 13 11  9
   1198195.837 8    933656.841 7  21990013.493 0  21990014.791 0
  -2510724.447 7  53865122.039 6  20881402.822 0  20881403.579 0
  -5483052.729 7  -4114329.381 7  21339054.760 0  21339055.653 0
 -20439134.058 6 -15707155.013 6  20042415.811 0  20042416.164 0
 88  2 26  7 50 29.0800000  0  4  6 13 11  9
   1287291.181 8   1003081.773 7  22006967.776 0  22006969.117 0
  -2540049.174 7  53842271.611 6  20875822.295 0  20875822.938 0
  -5430328.485 8  -4073245.557 7  21349087.501 0  21349089.595 0
 -20428930.862 6 -15699204.477 6  20044357.619 0  20044358.317 0
 88  2 26  7 50 59.0800000  0  4  6 13 11  9
   1376833.982 7   1072855.373 7  22024007.678 0  22024008.218 0
  -2568943.414 7  53819756.624 6  20870324.835 0  20870324.378 0
  -5377373.611 7  -4031982.032 6  21359163.595 0  21359166.912 0
 -20418074.953 6 -15690745.314 6  20046423.946 0  20046422.236 0
 88  2 26  7 51 29.0800000  0  4  6 13 11  9
   1466822.028 7   1142975.908 6  22041131.167 0  22041133.038 0
  -2597408.479 8  53797576.079 6  20864906.530 0  20864907.947 0
  -5324190.714 7  -3990540.806 7  21369284.948 0  21369286.025 0
 -20406566.105 5 -15681777.398 6  20048613.797 0  20048613.914 0
 88  2 26  7 51 59.0800000  0  4  6 13 11  9
   1557253.082 8   1213441.657 7  22058340.391 0  22058341.702 0
  -2625445.018 7  53775729.434 6  20859572.236 0  20859572.738 0
  -5270781.616 8  -3948923.328 6  21379448.833 0  21379448.853 0
 -20394403.747 6 -15672300.253 6  20050927.610 0  20050927.744 0
 88  2 26  7 52 29.0800000  0  4  6 13 11  9
   1648124.936 8   1284250.890 7  22075632.665 0  22075632.595 0
  -2653053.454 8  53754216.372 5  20854317.631 0  20854321.408 0
  -5217148.510 7  -3907131.293 6  21389655.408 0  21389655.569 0
 -20381587.480 7 -15662313.550 6  20053365.582 0  20053367.050 0
 88  2 26  7 52 59.0800000  0  4  6 13 11  9
   1739435.434 8   1355401.913 7  22093008.467 0  22093008.886 0
  -2680234.506 7  53733036.335 6  20849144.672 0  20849147.777 0
  -5163293.637 7  -3865166.470 7  21399902.694 0  21399903.663 0
 -20368116.932 7 -15651817.036 6  20055928.748 0  20055930.721 0
 88  2 26  7 53 29.0800000  0  4  6 13 11  9
   1831182.185 8   1426892.864 7  22110467.013 0  22110467.050 0
  -2706989.156 7  53712188.551 6  20844054.134 0  20844055.822 0
  -5109219.101 7  -3823030.465 6  21410191.783 0  21410193.991 0
 -20353991.660 6 -15640810.332 7  20058618.184 0  20058617.386 0
 88  2 26  7 53 59.0800000  0  4  6 13 11  9
   1923363.086 7   1498722.122 6  22128009.290 0  22128009.903 0
  -2733318.677 7  53691672.062 7  20839043.315 0  20839045.432 0
  -5054927.149 8  -3780725.049 7  21420523.693 0  21420525.511 0
 -20339211.357 5 -15629293.213 6  20061430.186 0  20061430.482 0
 88  2 26  7 54 29.0800000  0  4  6 13 11  9
   2015975.686 8   1570887.772 6  22145632.807 0  22145632.144 0
  -2759224.059 8  53671486.051 6  20834113.885 0  20834114.054 0
  -5000419.811 8  -3738251.809 6  21430896.741 0  21430898.516 0
 -20323775.786 6 -15617265.523 6  20064367.793 0  20064368.609 0
 88  2 26  7 54 59.0800000  0  4  6 13 11  9
   2109017.711 7   1643388.044 6  22163336.984 0  22163337.717 0
  -2784705.475 8  53651630.416 6  20829265.845 0  20829266.821 0
  -4945699.537 8  -3695612.643 7  21441309.753 0  21441310.525 0
 -20307685.034 6 -15604727.276 7  20067429.184 0  20067429.865 0
 88  2 26  7 55 29.0800000  0  4  6 13 11  9
   2202486.779 7   1716221.056 8  22181123.011 0  22181125.504 0
  -2809764.137 7  53632104.195 5  20824497.109 0  20824497.823 0
  -4890768.430 8  -3652809.184 7  21451763.037 0  21451762.789 0
 -20290938.724 6 -15591678.214 6  20070615.237 0  20070615.729 0
 88  2 26  7 55 59.0800000  0  4  6 13 11  9
   2296380.614 8   1789385.084 6  22198991.258 0  22198992.300 0
  -2834401.485 7  53612906.269 6  20819808.718 0  20819808.761 0
  -4835628.622 7  -3609843.092 6  21462255.491 0  21462255.739 0
 -20273536.789 6 -15578118.275 6  20073927.324 0  20073929.432 0
 88  2 26  7 56 29.0800000  0  4  6 13 11  9
   2390696.769 8   1862878.166 6  22216938.621 0  22216939.397 0
  -2858618.480 7  53594035.886 6  20815200.399 0  20815201.199 0
  -4780282.197 7  -3566716.027 7  21472786.564 0  21472787.549 0
 -20255478.891 6 -15564047.195 7  20077363.929 0  20077364.234 0
 88  2 26  7 56 59.0800000  0  4  6 13 11  9
   2485432.942 7   1936698.548 7  22234966.301 0  22234968.344 0
  -2882415.251 7  53575492.960 6  20810671.913 0  20810673.142 0
  -4724731.274 8  -3523429.591 6  21483358.153 0  21483359.711 0
 -20236764.982 6 -15549464.938 6  20080925.010 0  20080925.094 0
 88  2 26  7 57 29.0800000  0  4  6 13 11  9
   2580586.817 7   2010844.411 6  22253073.118 0  22253075.590 0
  -2905793.045 7  53557276.506 7  20806222.914 0  20806224.358 0
  -4668977.986 7  -3479985.475 7  21493968.257 0  21493968.832 0
 -20217394.844 7 -15534371.335 7  20084610.612 0  20084611.777 0
 88  2 26  7 57 59.0800000  0  4  6 13 11  9
   2676155.954 8   2085313.851 7  22271259.481 0  22271261.156 0
  -2928752.916 8  53539385.713 6  20801853.746 0  20801855.821 0
  -4613024.755 8  -3436385.553 7  21504616.015 0  21504616.841 0
 -20197368.564 6 -15518766.457 6  20088420.873 0  20088423.077 0
 88  2 26  7 58 29.0800000  0  4  6 13 11  9
   2772138.035 7   2160105.073 6  22289524.727 0  22289524.817 0
  -2951295.346 7  53521820.163 6  20797564.610 0  20797564.668 0
  -4556873.613 7  -3392631.422 7  21515300.416 0  21515302.635 0
 -20176685.890 6 -15502650.093 6  20092356.927 0  20092359.207 0
 88  2 26  7 58 59.0800000  0  4  6 13 11  9
   2868530.406 8   2235215.996 7  22307868.634 0  22307869.868 0
  -2973421.819 8  53504578.770 6  20793353.817 0  20793354.847 0
  -4500526.560 7  -3348724.634 6  21526024.048 0  21526024.845 0
 -20155347.170 7 -15486022.531 6  20096419.313 0  20096418.998 0
 88  2 26  7 59 29.0800000  0  4  6 13 11  9
   2965330.732 7   2310644.803 7  22326289.145 0  22326289.907 0
  -2995133.349 7  53487660.702 6  20789222.940 0  20789223.381 0
  -4443985.773 7  -3304666.882 7  21536782.962 0  21536783.130 0
 -20133352.208 7 -15468883.604 6  20100604.210 0  20100604.465 0
 88  2 26  7 59 59.0800000  0  4  6 13 11  9
   3062536.591 8   2386389.605 7  22344785.844 0  22344786.906 0
  -3016431.039 8  53471065.116 7  20785168.903 0  20785171.563 0
  -4387253.198 8  -3260459.676 7  21547578.064 0  21547580.087 0
 -20110701.013 6 -15451233.342 6  20104915.095 0  20104915.567 0
 88  2 26  8  0 29.0800000  0  4  6 13 11  9
   3160145.557 8   2462448.522 7  22363360.222 0  22363361.670 0
  -3037315.716 8  53454791.356 6  20781195.069 0  20781196.185 0
  -4330331.071 8  -3216104.780 7  21558410.064 0  21558411.851 0
 -20087393.997 6 -15433072.027 6  20109349.787 0  20109350.529 0
 88  2 26  8  0 59.0800000  0  4  6 13 11  9
   3258155.125 7   2538819.590 7  22382011.746 0  22382011.212 0
  -3057788.513 7  53438838.549 6  20777299.737 0  20777300.424 0
  -4273221.607 8  -3171603.909 6  21569277.308 0  21569279.933 0
 -20063431.138 6 -15414399.696 6  20113909.053 0  20113908.665 0
 88  2 26  8  1 29.0800000  0  4  6 13 11  9
   3356562.661 8   2615500.788 7  22400737.779 0  22400736.816 0
  -3077850.245 8  53423206.041 6  20773481.345 0  20773483.420 0
  -4215927.081 7  -3126958.820 6  21580180.947 0  21580181.704 0
 -20038812.469 6 -15395216.327 6  20118593.588 0  20118594.337 0
 88  2 26  8  1 59.0800000  0  4  6 13 11  9
   3455365.808 8   2692490.244 6  22419539.858 0  22419539.161 0
  -3097502.260 8  53407892.806 6  20769742.196 0  20769743.483 0
  -4158449.450 7  -3082171.065 7  21591117.847 0  21591118.732 0
 -20013538.379 6 -15375522.240 6  20123403.517 0  20123404.116 0
 88  2 26  8  2 29.0800000  0  4  6 13 11  9
   3554561.994 7   2769785.962 7  22438414.957 0  22438415.955 0
  -3116745.800 7  53392897.852 7  20766080.489 0  20766080.102 0
  -4100790.545 7  -3037242.040 7  21602089.503 0  21602092.036 0
 -19987609.015 6 -15355317.548 6  20128338.564 0  20128339.427 0
 88  2 26  8  2 59.0800000  0  4  6 13 11  9
   3654148.648 7   2847385.935 7  22457365.902 0  22457366.299 0
  -3135581.958 8  53378220.325 6  20762495.579 0  20762497.910 0
  -4042952.445 8  -2992173.396 6  21613097.294 0  21613098.534 0
 -19961024.539 6 -15334602.381 6  20133397.214 0  20133397.481 0
 88  2 26  8  3 29.0800000  0  4  6 13 11  9
   3754123.172 7   2925288.137 7  22476390.661 0  22476391.579 0
  -3154011.400 8  53363859.747 7  20758988.625 0  20758990.758 0
  -3984937.471 7  -2946966.928 6  21624136.466 0  21624137.728 0
 -19933785.533 6 -15313377.220 7  20138578.973 0  20138581.423 0
 88  2 26  8  3 59.0800000  0  4  6 13 11  9
   3854483.148 7   3003490.703 7  22495488.811 0  22495489.287 0
  -3172035.310 8  53349815.146 7  20755559.630 0  20755559.844 0
  -3926747.620 7  -2901624.183 7  21635209.520 0  21635210.650 0
 -19905891.885 6 -15291641.903 6  20143888.091 0  20143888.335 0
 88  2 26  8  4 29.0800000  0  4  6 13 11  9
   3955225.998 7   3081991.621 7  22514660.255 0  22514659.976 0
  -3189655.307 8  53336085.285 7  20752206.014 0  20752207.259 0
  -3868384.727 7  -2856146.620 6  21646315.440 0  21646316.811 0
 -19877344.293 6 -15269397.042 6  20149320.046 0  20149320.867 0
 88  2 26  8  4 59.0800000  0  4  6 13 11  9
   4056349.078 8   3160788.807 7  22533902.018 0  22533904.183 0
  -3206872.380 7  53322669.399 6  20748928.509 0  20748930.225 0
  -3809851.246 7  -2810536.108 7  21657454.227 0  21657455.758 0
 -19848142.934 6 -15246642.756 6  20154877.721 0  20154878.422 0
 88  2 26  8  5 29.0800000  0  4  6 13 11  9
   4157849.796 7   3239880.255 7  22553216.977 0  22553217.743 0
  -3223687.679 7  53309566.581 6  20745729.103 0  20745730.291 0
  -3751149.250 7  -2764794.291 7  21668624.516 0  21668626.059 0
 -19818288.108 6 -15223379.271 6  20160557.693 0  20160559.590 0
 88  2 26  8  5 59.0800000  0  4  6 13 11  9
   4259725.656 8   3319264.025 7  22572604.501 0  22572604.747 0
  -3240102.504 8  53296775.818 6  20742605.635 0  20742608.771 0
  -3692280.370 7  -2718922.457 7  21679826.639 0  21679828.884 0
 -19787780.630 6 -15199607.205 6  20166363.531 0  20166365.617 0
 88  2 26  8  6 29.0800000  0  4  6 13 11  9
   4361973.964 7   3398938.015 7  22592062.056 0  22592062.480 0
  -3256117.813 8  53284296.375 6  20739558.152 0  20739559.597 0
  -3633246.907 7  -2672922.358 7  21691059.638 0  21691062.031 0
 -19756620.626 7 -15175326.697 6  20172293.404 0  20172294.521 0
 88  2 26  8  6 59.0800000  0  4  6 13 11  9
   4464592.017 7   3478900.128 7  22611589.024 0  22611589.334 0
  -3271734.831 7  53272127.266 6  20736586.420 0  20736588.179 0
  -3574050.955 8  -2626795.643 7  21702324.772 0  21702327.766 0
 -19724808.657 6 -15150538.179 6  20178347.556 0  20178348.542 0
 88  2 26  8  7 29.0800000  0  4  6 13 11  9
   4567577.247 7   3559148.349 7  22631185.857 0  22631186.638 0
  -3286955.359 7  53260267.133 6  20733689.995 0  20733691.514 0
  -3514694.240 8  -2580543.662 7  21713621.425 0  21713621.655 0
 -19692345.410 6 -15125242.142 6  20184524.228 0  20184526.866 0
 88  2 26  8  7 59.0800000  0  4  6 13 11  9
   4670927.006 7   3639680.616 7  22650852.269 0  22650853.143 0
  -3301780.284 8  53248715.267 6  20730868.195 0  20730869.685 0
  -3455179.126 7  -2534168.249 6  21724945.920 0  21724946.234 0
 -19659231.090 7 -15099438.793 6  20190825.676 0  20190827.307 0
 88  2 26  8  8 29.0800000  0  4  3 13 11  9
         -.033 7          .116 7  24058634.480 0          .000 0
  -3316210.578 8  53237470.874 6  20728123.117 0  20728124.488 0
  -3395507.438 7  -2487670.828 7  21736301.034 0  21736302.738 0
 -19625466.873 6 -15073129.023 6  20197250.262 0  20197252.708 0
 88  2 26  8  8 59.0800000  0  4  3 13 11  9
    -78332.442 7  84679886.443 7  24043759.874 0  24043761.174 0
  -3330247.129 8  53226533.324 6  20725451.393 0  20725453.277 0
  -3335681.082 7  -2441052.892 6  21747685.978 0  21747687.417 0
 -19591052.933 6 -15046312.979 6  20203799.545 0  20203800.472 0
 88  2 26  8  9 29.0800000  0  4  3 13 11  9
   -156438.279 8  84619024.753 7  24028897.460 0  24028899.184 0
  -3343891.526 7  53215901.313 6  20722855.177 0  20722856.732 0
  -3275702.250 8  -2394316.151 7  21759098.693 0  21759100.147 0
 -19555990.000 6 -15018991.227 6  20210471.735 0  20210473.420 0
 88  2 26  8  9 59.0800000  0  4  3 13 11  9
   -234317.774 7  84558339.471 6  24014077.149 0  24014077.815 0
  -3357145.439 7  53205573.605 6  20720333.067 0  20720335.281 0
  -3215572.518 7  -2347461.811 7  21770541.788 0  21770544.208 0
 -19520278.807 6 -14991164.337 6  20217267.128 0  20217267.768 0
 88  2 26  8 10 29.0800000  0  4  3 13 11  9
   -311970.413 7  84497830.936 7  23999301.078 0  23999302.545 0
  -3370009.900 7  53195549.362 6  20717885.439 0  20717886.350 0
  -3155294.425 7  -2300491.870 7  21782012.326 0  21782014.315 0
 -19483920.030 7 -14962832.827 6  20224185.785 0  20224185.796 0
 88  2 26  8 10 59.0800000  0  4  3 13 11  9
   -389395.266 7  84437499.844 6  23984565.845 0  23984568.198 0
  -3382486.411 7  53185827.407 6  20715511.373 0  20715512.742 0
  -3094869.781 7  -2253407.730 7  21793511.311 0  21793512.145 0
 -19446914.387 6 -14933997.286 5  20231228.823 0  20231228.924 0
 88  2 26  8 11 29.0800000  0  4  3 13 11  9
   -466592.634 6  84377346.062 7  23969874.156 0  23969877.825 0
  -3394575.940 8  53176406.995 6  20713209.153 0  20713212.425 0
  -3034300.606 8  -2206210.974 6  21805036.389 0  21805038.164 0
 -19409262.811 7 -14904658.395 6  20238393.854 0  20238392.802 0
 88  2 26  8 11 59.0800000  0  4  3 13 11  9
   -543561.689 7  84317370.167 7  23955228.345 0  23955231.909 0
  -3406280.050 8  53167286.927 6  20710982.214 0  20710985.088 0
  -2973588.849 7  -2158903.114 7  21816589.173 0  21816590.323 0
 -19370965.694 7 -14874816.497 6  20245681.508 0  20245681.397 0
 88  2 26  8 12 29.0800000  0  4  3 13 11  9
   -620302.343 7  84257572.245 6  23940625.694 0  23940628.506 0
  -3417599.868 7  53158466.291 6  20708829.440 0  20708830.354 0
  -2912736.468 7  -2111485.672 7  21828170.609 0  21828171.589 0
 -19332024.354 6 -14844472.602 6  20253092.020 0  20253093.730 0
 88  2 26  8 12 59.0800000  0  4  3 13 11  9
   -696814.053 7  84197952.758 7  23926066.729 0  23926067.945 0
  -3428536.258 7  53149944.434 6  20706747.683 0  20706748.709 0
  -2851745.081 7  -2063959.929 7  21839775.574 0  21839778.094 0
 -19292439.278 7 -14813627.116 6  20260623.536 0  20260625.287 0
 88  2 26  8 13 29.0800000  0  4  3 13 11  9
   -773096.935 6  84138511.602 7  23911550.232 0  23911552.673 0
  -3439091.304 7  53141719.738 6  20704738.788 0  20704741.846 0
  -2790616.887 8  -2016327.561 7  21851408.178 0  21851409.268 0
 -19252211.702 7 -14782280.951 6  20268279.520 0  20268280.517 0
 88  2 26  8 13 59.0800000  0  4  3 13 11  9
   -849150.301 7  84079249.244 6  23897079.197 0  23897079.375 0
  -3449266.288 7  53133791.177 6  20702803.256 0  20702803.781 0
  -2729353.537 7  -1968589.896 7  21863066.054 0  21863068.162 0
 -19211342.202 7 -14750434.595 6  20276056.423 0  20276058.023 0
 88  2 26  8 14 29.0800000  0  4  3 13 11  9
   -924973.615 7  84020166.165 7  23882649.716 0  23882651.518 0
  -3459062.529 7  53126157.745 6  20700938.912 0  20700941.268 0
  -2667957.286 7  -1920748.655 7  21874750.063 0  21874750.515 0
 -19169831.885 6 -14718088.891 6  20283953.865 0  20283953.227 0
 88  2 26  8 14 59.0800000  0  4  3 13 11  9
  -1000566.629 7  83961262.537 6  23868264.642 0  23868266.073 0
  -3468481.383 7  53118818.398 6  20699145.542 0  20699148.300 0
  -2606430.004 8  -1872805.334 7  21886457.841 0  21886458.912 0
 -19127681.867 7 -14685244.721 6  20291977.023 0  20291977.571 0
 88  2 26  8 15 29.0800000  0  4  3 13 11  9
  -1075929.138 7  83902538.508 7  23853923.783 0  23853925.795 0
  -3477524.291 7  53111771.977 6  20697425.048 0  20697426.131 0
  -2544773.409 7  -1824761.237 7  21898190.052 0  21898191.814 0
 -19084892.877 6 -14651902.671 6  20300119.017 0  20300120.284 0
 88  2 26  8 15 59.0800000  0  4  3 13 11  9
  -1151060.904 7  83843994.281 7  23839625.881 0  23839628.185 0
  -3486192.076 7  53105017.864 7  20695776.188 0  20695778.603 0
  -2482989.394 7  -1776617.849 7  21909947.235 0  21909949.397 0
 -19041466.198 7 -14618063.710 6  20308383.156 0  20308383.213 0
 88  2 26  8 16 29.0800000  0  4  3 13 11  9
  -1225961.346 7  83785630.308 6  23825373.748 0  23825375.536 0
  -3494486.890 8  53098554.359 6  20694197.985 0  20694199.411 0
  -2421079.957 7  -1728376.729 7  21921727.869 0  21921730.012 0
 -18997402.650 7 -14583728.490 6  20316768.027 0  20316768.842 0
 88  2 26  8 16 59.0800000  0  4  3 13 11  9
  -1300630.401 7  83727446.624 6  23811164.743 0  23811165.549 0
  -3502409.856 7  53092380.624 6  20692689.611 0  20692693.371 0
  -2359046.792 8  -1680039.214 7  21933533.550 0  21933534.928 0
 -18952703.306 7 -14548897.838 6  20325273.669 0  20325274.007 0
 88  2 26  8 17 29.0800000  0  4  3 13 11  9
  -1375068.092 7  83669443.227 7  23797000.466 0  23797000.632 0
  -3509962.365 7  53086495.570 6  20691253.228 0  20691253.636 0
  -2296891.851 7  -1631606.794 7  21945360.692 0  21945362.600 0
 -18907369.503 6 -14513572.820 6  20333900.876 0  20333902.308 0
 88  2 26  8 17 59.0800000  0  4  3 13 11  9
  -1449273.859 7  83611620.537 7  23782877.310 0  23782880.078 0
  -3517145.608 8  53080898.239 6  20689886.156 0  20689887.939 0
  -2234617.158 8  -1583081.074 7  21957212.127 0  21957212.833 0
 -18861402.294 7 -14477754.205 6  20342648.265 0  20342647.921 0
 88  2 26  8 18 29.0800000  0  4  3 13 11  9
  -1523247.423 7  83553978.814 7  23768801.222 0  23768804.119 0
  -3523961.961 7  53075586.799 6  20688589.099 0  20688591.240 0
  -2172224.410 8  -1534463.350 7  21969084.766 0  21969085.942 0
 -18814802.743 7 -14441442.884 6  20351515.511 0  20351515.418 0
 88  2 26  8 18 59.0800000  0  4  3 13 11  9
  -1596988.534 6  83496518.199 7  23754767.138 0  23754771.109 0
  -3530412.276 7  53070560.594 6  20687361.815 0  20687361.968 0
  -2109715.288 7  -1485754.948 7  21980979.737 0  21980980.212 0
 -18767572.496 6 -14404640.086 6  20360503.009 0  20360502.883 0
 88  2 26  8 19 29.0800000  0  4  3 13 11  9
  -1670497.469 6  83439238.543 6  23740781.370 0  23740782.164 0
  -3536497.683 7  53065818.713 6  20686203.759 0  20686203.812 0
  -2047091.719 7  -1436957.380 7  21992896.091 0  21992897.904 0
 -18719712.257 7 -14367346.407 6  20369610.977 0  20369610.036 0
 88  2 26  8 19 59.0800000  0  4  3 13 11  9
  -1743773.557 6  83382140.310 6  23726836.262 0  23726838.617 0
  -3542219.942 7  53061359.831 6  20685114.359 0  20685115.512 0
  -1984355.800 7  -1388072.243 7  22004834.737 0  22004836.999 0
 -18671223.570 7 -14329563.026 5  20378838.966 0  20378838.458 0
 88  2 26  8 20 29.0800000  0  4  3 13 11  9
  -1816816.765 6  83325223.543 6  23712936.127 0  23712939.583 0
  -3547580.513 7  53057182.776 6  20684094.972 0  20684096.098 0
  -1921508.897 8  -1339100.646 7  22016794.274 0  22016795.644 0
 -18622107.734 7 -14291290.963 6  20388185.070 0  20388185.981 0
 88  2 26  8 20 59.0800000  0  4  3 13 11  9
  -1889626.996 7  83268488.313 7  23699081.209 0  23699083.435 0
  -3552580.870 7  53053286.392 6  20683143.182 0  20683145.454 0
  -1858553.099 8  -1290044.186 7  22028774.671 0  22028776.495 0
 -18572365.972 6 -14252531.146 5  20397649.452 0  20397650.019 0
 88  2 26  8 21 29.0800000  0  4  3 13 11  9
  -1962203.895 7  83211934.914 7  23685270.829 0  23685272.605 0
  -3557222.327 7  53049669.673 6  20682259.634 0  20682261.691 0
  -1795490.474 7  -1240904.487 7  22040773.679 0  22040775.731 0
 -18521999.457 6 -14213284.516 6  20407234.583 0  20407234.638 0
 88  2 26  8 21 59.0800000  0  4  3 13 11  9
  -2034547.214 7  83155563.497 6  23671503.505 0  23671506.361 0
  -3561506.300 8  53046331.526 6  20681444.139 0  20681446.696 0
  -1732322.387 7  -1191682.601 7  22052794.070 0  22052795.967 0
 -18471010.133 7 -14173552.585 6  20416936.231 0  20416936.454 0
 88  2 26  8 22 29.0800000  0  4  3 13 11  9
  -2106656.813 7  83099374.213 7  23657780.741 0  23657784.662 0
  -3565434.889 7  53043270.292 6  20680696.070 0  20680697.640 0
  -1669050.678 7  -1142379.978 6  22064834.909 0  22064835.653 0
 -18419398.885 7 -14133336.033 6  20426758.772 0  20426759.033 0
 88  2 26  8 22 59.0800000  0  4  3 13 11  9
  -2178532.585 6  83043367.123 6  23644104.824 0  23644106.891 0
  -3569008.999 7  53040485.292 6  20680017.015 0  20680019.098 0
  -1605677.212 7  -1092998.052 6  22076894.556 0  22076895.709 0
 -18367167.387 7 -14092636.168 6  20436698.311 0  20436698.751 0
 88  2 26  8 23 29.0800000  0  4  3 13 11  9
  -2250174.475 7  82987542.292 7  23630470.897 0  23630474.058 0
  -3572230.760 7  53037974.815 6  20679403.308 0  20679406.781 0
  -1542203.442 7  -1043537.957 7  22088973.378 0  22088975.597 0
 -18314317.097 7 -14051454.129 5  20446755.329 0  20446755.348 0
 88  2 26  8 23 59.0800000  0  4  3 13 11  9
  -2321582.237 7  82931899.885 7  23616883.689 0  23616884.698 0
  -3575101.374 7  53035737.989 6  20678857.913 0  20678857.451 0
  -1478631.428 7   -994001.340 6  22101071.428 0  22101072.645 0
 -18260849.656 6 -14009791.206 6  20456929.907 0  20456929.358 0
 88  2 26  8 24 29.0800000  0  4  3 13 11  9
  -2392755.782 7  82876439.996 7  23603340.112 0  23603342.381 0
  -3577622.184 7  53033773.716 6  20678378.342 0  20678378.810 0
  -1414962.873 7   -944389.476 7  22113186.273 0  22113188.036 0
 -18206765.901 6 -13967648.025 6  20467220.561 0  20467222.027 0
 88  2 26  8 24 59.0800000  0  4  3 13 11  9
  -2463694.223 8  82821163.305 7  23589840.276 0  23589843.175 0
  -3579793.597 7  53032081.716 6  20677964.349 0  20677966.705 0
  -1351198.663 7   -894703.091 7  22125320.773 0  22125322.488 0
 -18152067.131 7 -13925025.610 6  20477630.592 0  20477630.062 0
 88  2 26  8 25 29.0800000  0  4  3 13 11  9
  -2534398.110 8  82766069.388 7  23576385.085 0  23576386.932 0
  -3581618.516 7  53030659.702 6  20677617.410 0  20677618.222 0
  -1287341.050 7   -844943.904 7  22137472.390 0  22137472.972 0
 -18096755.579 7 -13881925.709 6  20488155.971 0  20488155.568 0
 88  2 26  8 25 59.0800000  0  4  3 13 11  9
  -2604867.507 7  82711158.188 6  23562975.714 0  23562977.358 0
  -3583098.722 7  53029506.296 6  20677335.319 0  20677336.932 0
  -1223391.960 8   -795113.461 7  22149642.018 0  22149642.893 0
 -18040832.621 6 -13838349.388 6  20498797.971 0  20498798.469 0
 88  2 26  8 26 29.0800000  0  4  3 13 11  9
  -2675101.954 7  82656430.055 6  23549611.358 0  23549613.362 0
  -3584236.247 7  53028619.929 6  20677119.022 0  20677121.322 0
  -1159353.249 7   -745213.165 6  22161827.501 0  22161829.033 0
 -17984300.316 7 -13794298.246 6  20509553.840 0  20509556.122 0
 88  2 26  8 26 59.0800000  0  4  3 13 11  9
  -2745101.276 7  82601885.133 7  23536290.209 0  23536292.362 0
  -3585031.481 7  53028000.277 6  20676967.503 0  20676970.361 0
  -1095226.617 7   -695244.356 7  22174031.372 0  22174031.540 0
 -17927160.081 6 -13749773.406 6  20520429.091 0  20520429.714 0
 88  2 26  8 27 29.0800000  0  4  3 13 11  9
  -2814865.963 7  82547523.053 6  23523013.783 0  23523017.252 0
  -3585486.150 8  53027645.975 6  20676881.490 0  20676884.249 0
  -1031013.495 8   -645208.150 7  22186249.504 0  22186250.747 0
 -17869413.597 7 -13704776.159 7  20531417.169 0  20531417.687 0
 88  2 26  8 27 59.0800000  0  4  3 13 11  9
  -2884396.262 7  82493343.599 7  23509782.682 0  23509785.766 0
  -3585602.304 7  53027555.467 6  20676858.354 0  20676862.558 0
   -966715.677 7   -595105.968 7  22198484.175 0  22198486.247 0
 -17811063.129 6 -13659308.282 6  20542520.931 0  20542522.294 0
 88  2 26  8 28 29.0800000  0  4  3 13 11  9
  -2953691.845 7  82439347.052 6  23496597.964 0  23496598.472 0
  -3585381.306 7  53027727.709 5  20676901.324 0  20676903.453 0
   -902334.709 7   -544938.979 7  22210735.909 0  22210737.220 0
 -17752109.306 7 -13613370.255 6  20553740.012 0  20553740.118 0
 88  2 26  8 28 59.0800000  0  4  3 13 11  9
  -3022752.716 7  82385533.410 7  23483455.852 0  23483457.884 0
  -3584824.872 7  53028161.309 6  20677006.899 0  20677008.599 0
   -837872.371 8   -494708.580 7  22223002.604 0  22223004.546 0
 -17692554.747 7 -13566964.101 6  20565071.984 0  20565072.516 0
 88  2 26  8 29 29.0800000  0  4  3 13 11  9
  -3091578.760 7  82331902.731 7  23470357.373 0  23470360.065 0
  -3583934.505 7  53028855.091 6  20677176.651 0  20677177.105 0
   -773330.268 6   -444416.043 7  22235283.919 0  22235285.298 0
 -17632400.875 7 -13520090.972 5  20576519.422 0  20576518.744 0
 88  2 26  8 29 59.0800000  0  4  3 13 11  9
  -3160169.862 7  82278455.124 7  23457306.040 0  23457308.302 0
  -3582711.933 7  53029807.745 6  20677409.447 0  20677410.116 0
   -708709.971 7   -394062.563 7  22247581.150 0  22247582.915 0
 -17571649.218 7 -13472752.027 6  20588080.417 0  20588080.661 0
 88  2 26  8 30 29.0800000  0  4  3 13 11  9
  -3228525.963 7  82225190.648 7  23444297.461 0  23444299.570 0
  -3581159.201 8  53031017.675 6  20677703.516 0  20677705.516 0
   -644013.300 7   -343649.575 7  22259892.957 0  22259894.185 0
 -17510302.050 6 -13424949.047 5  20599754.080 0  20599754.789 0
 88  2 26  8 30 59.0800000  0  4  3 13 11  9
  -3296647.147 7  82172109.225 7  23431334.728 0  23431336.238 0
  -3579277.267 7  53032484.125 6  20678061.333 0  20678063.531 0
   -579241.855 7   -293178.321 7  22272218.424 0  22272220.647 0
 -17448361.292 7 -13376683.532 6  20611540.659 0  20611541.456 0
 88  2 26  8 31 29.0800000  0  4  3 13 11  9
  -3364533.487 7  82119210.774 7  23418415.045 0  23418418.387 0
  -3577067.625 7  53034205.937 6  20678483.369 0  20678485.311 0
   -514397.091 7   -242649.942 7  22284558.157 0  22284560.487 0
 -17385828.592 7 -13327956.759 6  20623440.128 0  20623441.107 0
 88  2 26  8 31 59.0800000  0  4  3 13 11  9
  -3432184.772 7  82066495.493 7  23405543.191 0  23405543.413 0
  -3574532.417 7  53036181.430 6  20678966.190 0  20678967.072 0
   -449480.526 7   -192065.605 7  22296911.072 0  22296913.355 0
 -17322706.108 7 -13278770.420 7  20635452.821 0  20635452.799 0
 88  2 26  8 32 29.0800000  0  4  3 13 11  9
  -3499601.445 7  82013963.017 7  23392713.454 0  23392714.685 0
  -3571673.351 7  53038409.267 6  20679510.598 0  20679510.708 0
   -384493.693 7   -141426.525 6  22309279.073 0  22309279.878 0
 -17258995.629 7 -13229125.901 7  20647576.475 0  20647577.134 0
 88  2 26  8 32 59.0800000  0  4  3 13 11  9
  -3566782.932 7  81961613.812 7  23379928.056 0  23379931.032 0
  -3568491.489 7  53040888.639 6  20680114.976 0  20680115.960 0
   -319438.406 7    -90734.085 7  22321657.596 0  22321660.059 0
 -17194698.748 7 -13179024.440 6  20659811.296 0  20659813.056 0
 88  2 26  8 33 29.0800000  0  4  3 13 11  9
  -3633729.717 7  81909447.513 7  23367188.926 0  23367191.909 0
  -3564988.493 7  53043618.267 6  20680780.914 0  20680782.312 0
   -254316.146 8    -39989.476 7  22334050.198 0  22334051.478 0
 -17129817.667 7 -13128467.764 6  20672158.430 0  20672158.722 0
 88  2 26  8 33 59.0800000  0  4  3 13 11  9
  -3700441.972 6  81857463.933 7  23354494.985 0  23354497.640 0
  -3561166.052 7  53046596.794 6  20681507.921 0  20681509.562 0
   -189128.337 7     10806.206 7  22346455.673 0  22346455.921 0
 -17064354.655 7 -13077457.648 6  20684614.814 0  20684616.469 0
 88  2 26  8 34 29.0800000  0  4  3 13 11  9
  -3766919.188 7  81805663.531 7  23341844.344 0  23341847.026 0
  -3557025.891 7  53049822.891 6  20682297.832 0  20682298.888 0
   -123876.739 7     61651.613 7  22358872.221 0  22358873.462 0
 -16998312.024 7 -13025995.874 7  20697182.731 0  20697183.774 0
 88  2 26  8 34 59.0800000  0  4  3 13 11  9
  -3833161.929 7  81754045.826 7  23329239.004 0  23329240.320 0
  -3552570.153 7  53053294.904 6  20683144.249 0  20683146.478 0
    -58562.643 7    112545.699 7  22371299.932 0  22371302.581 0
 -16931690.769 6 -12974083.214 7  20709859.398 0  20709859.999 0
 88  2 26  8 35 29.0800000  0  4  3 13 11  9
  -3899170.630 6  81702610.491 7  23316678.547 0  23316680.013 0
  -3547800.256 8  53057011.700 7  20684052.112 0  20684054.111 0
      6812.058 7    163487.016 7  22383741.587 0  22383742.746 0
 -16864494.021 7 -12921722.136 6  20722647.375 0  20722648.594 0
 88  2 26  8 35 59.0800000  0  4  3 13 11  9
  -3964944.729 7  81651357.933 6  23304160.953 0  23304162.791 0
  -3542717.530 7  53060972.279 6  20685019.629 0  20685022.188 0
     72246.323 7    214474.762 7  22396193.080 0  22396194.678 0
 -16796723.229 7 -12868913.709 7  20735544.260 0  20735544.122 0
 88  2 26  8 36 29.0800000  0  4  3 13 11  9
  -4030484.362 7  81600288.104 7  23291690.828 0  23291692.260 0
  -3537323.723 7  53065175.263 6  20686046.127 0  20686047.041 0
    137738.398 8    265507.541 7  22408655.604 0  22408657.293 0
 -16728380.795 7 -12815659.872 6  20748549.488 0  20748549.952 0
 88  2 26  8 36 59.0800000  0  4  3 13 11  9
  -4095790.052 8  81549400.561 7  23279261.463 0  23279265.455 0
  -3531620.917 8  53069619.019 6  20687131.466 0  20687132.336 0
    203287.000 8    316584.388 7  22421128.498 0  22421131.135 0
 -16659468.822 7 -12761962.231 6  20761662.485 0  20761662.856 0
 88  2 26  8 37 29.0800000  0  4  3 13 11  9
  -4160861.500 6  81498695.543 7  23266879.761 0  23266881.752 0
  -3525610.172 7  53074302.698 6  20688275.658 0  20688278.246 0
    268890.581 7    367704.054 7  22433613.478 0  22433614.948 0
 -16589989.368 7 -12707822.411 6  20774884.560 0  20774883.628 0
 88  2 26  8 37 59.0800000  0  4  3 13 11  9
  -4225699.335 7  81448172.575 6  23254541.899 0  23254543.399 0
  -3519293.199 8  53079225.033 5  20689477.833 0  20689478.414 0
    334547.550 7    418865.332 7  22446107.750 0  22446108.334 0
 -16519944.499 7 -12653242.006 6  20788212.657 0  20788213.387 0
 88  2 26  8 38 29.0800000  0  4  3 13 11  9
  -4290303.533 7  81397831.652 7  23242247.864 0  23242249.085 0
  -3512672.274 7  53084384.223 6  20690737.014 0  20690739.141 0
    400256.394 7    470067.022 7  22458610.415 0  22458613.058 0
 -16449336.646 7 -12598222.901 7  20801648.844 0  20801649.625 0
 88  2 26  8 38 59.0800000  0  4  3 13 11  9
  -4354674.209 7  81347672.687 6  23229998.987 0  23230000.125 0
  -3505748.670 7  53089779.229 6  20692054.332 0  20692056.904 0
    466015.915 7    521308.214 7  22471124.997 0  22471127.063 0
 -16378167.994 7 -12542766.832 6  20815191.945 0  20815192.989 0
 88  2 26  8 39 29.0800000  0  4  3 13 11  9
  -4418811.384 7  81297695.659 7  23217794.319 0  23217796.008 0
  -3498524.167 7  53095408.721 6  20693429.019 0  20693429.185 0
    531824.538 7    572587.662 7  22483646.732 0  22483649.696 0
 -16306440.789 7 -12486875.506 6  20828841.890 0  20828841.200 0
 88  2 26  8 39 59.0800000  0  4  3 13 11  9
  -4482715.496 7  81247900.278 6  23205632.882 0  23205635.300 0
  -3491000.788 7  53101271.099 6  20694860.982 0  20694862.337 0
    597680.984 8    623904.367 7  22496179.059 0  22496180.964 0
 -16234157.464 7 -12430550.848 6  20842595.399 0  20842596.647 0
 88  2 26  8 40 29.0800000  0  4  3 13 11  9
  -4546386.763 7  81198286.299 7  23193516.429 0  23193518.720 0
  -3483179.931 7  53107365.272 6  20696350.054 0  20696350.524 0
    663583.777 7    675257.192 6  22508720.156 0  22508721.789 0
 -16161320.062 7 -12373794.444 6  20856455.722 0  20856456.684 0
 88  2 26  8 40 59.0800000  0  4  3 13 11  9
  -4609825.444 7  81148853.571 6  23181444.078 0  23181447.658 0
  -3475062.993 7  53113690.169 6  20697894.017 0  20697894.944 0
    729531.488 8    726645.019 7  22521269.208 0  22521271.701 0
 -16087930.890 7 -12316608.078 6  20870421.709 0  20870424.237 0
 88  2 26  8 41 29.0800000  0  4  3 13 11  9
  -4673030.814 7  81099602.671 7  23169416.933 0  23169417.720 0
  -3466651.577 8  53120244.528 6  20699495.206 0  20699495.253 0
    795522.572 7    778066.635 7  22533827.317 0  22533829.215 0
 -16013992.377 7 -12258993.677 6  20884492.396 0  20884493.858 0
 88  2 26  8 41 59.0800000  0  4  3 13 11  9
  -4736003.491 7  81050533.052 7  23157431.774 0  23157434.809 0
  -3457947.631 8  53127026.825 6  20701149.585 0  20701152.116 0
    861556.068 7    829521.312 7  22546393.236 0  22546395.096 0
 -15939506.980 7 -12200953.116 6  20898666.482 0  20898667.872 0
 88  2 26  8 42 29.0800000  0  4  3 13 11  9
  -4798744.522 6  81001643.937 6  23145493.673 0  23145495.155 0
  -3448953.066 7  53134035.606 6  20702863.061 0  20702863.778 0
    927629.882 7    881007.384 6  22558966.618 0  22558969.246 0
 -15864477.081 7 -12142488.273 6  20912943.338 0  20912945.114 0
 88  2 26  8 42 59.0800000  0  4  3 13 11  9
  -4861253.469 7  80952935.669 7  23133599.638 0  23133600.704 0
  -3439669.694 7  53141269.386 6  20704628.688 0  20704629.992 0
    993743.287 7    932524.330 7  22571547.800 0  22571550.031 0
 -15788905.061 7 -12083600.983 6  20927325.164 0  20927325.510 0
 88  2 26  8 43 29.0800000  0  4  3 13 11  9
  -4923530.916 7  80904407.808 6  23121748.472 0  23121750.095 0
  -3430098.616 7  53148727.397 6  20706449.519 0  20706451.806 0
   1059894.824 7    984070.978 6  22584134.863 0  22584137.616 0
 -15712793.244 7 -12024293.097 6  20941807.811 0  20941808.575 0
 88  2 26  8 43 59.0800000  0  4  3 13 11  9
  -4985576.823 6  80856060.346 6  23109940.584 0  23109943.696 0
  -3420241.754 7  53156408.066 7  20708326.498 0  20708327.327 0
   1126082.868 7   1035646.084 7  22596731.622 0  22596733.069 0
 -15636144.088 7 -11964566.496 6  20956394.720 0  20956395.368 0
 88  2 26  8 44 29.0800000  0  4  3 13 11  9
  -5047391.573 7  80807893.040 6  23098177.944 0  23098180.870 0
  -3410100.866 7  53164310.055 6  20710255.020 0  20710256.725 0
   1192306.441 8   1087248.852 7  22609333.258 0  22609334.672 0
 -15558960.099 7 -11904423.129 6  20971082.420 0  20971084.069 0
 88  2 26  8 44 59.0800000  0  4  3 13 11  9
  -5108975.577 7  80759905.514 6  23086458.949 0  23086460.577 0
  -3399677.870 7  53172431.897 6  20712239.335 0  20712240.464 0
   1258563.911 7   1138878.059 7  22621941.052 0  22621942.028 0
 -15481243.894 7 -11843865.055 6  20985870.284 0  20985872.849 0
 88  2 26  8 45 29.0800000  0  4  3 13 11  9
  -5170328.521 7  80712098.048 7  23074785.520 0  23074786.687 0
  -3388973.976 7  53180772.600 6  20714276.194 0  20714277.794 0
   1324854.464 8   1190533.034 7  22634556.204 0  22634557.221 0
 -15402997.569 7 -11782893.912 6  21000759.600 0  21000761.251 0
 88  2 26  8 45 59.0800000  0  4  3 13 11  9
  -5231450.898 7  80664470.227 7  23063152.784 0  23063154.522 0
  -3377990.815 7  53189330.917 6  20716365.316 0  20716367.209 0
   1391176.748 7   1242212.727 7  22647177.004 0  22647178.488 0
 -15324223.978 7 -11721511.900 6  21015751.086 0  21015751.431 0
 88  2 26  8 46 29.0800000  0  4  3 13 11  9
  -5292343.339 7  80617021.575 7  23051564.691 0  23051568.342 0
  -3366730.682 7  53198105.055 6  20718509.004 0  20718510.377 0
   1457529.375 8   1293916.078 7  22659803.635 0  22659804.521 0
 -15244925.596 7 -11659720.969 6  21030841.275 0  21030842.008 0
 88  2 26  8 46 59.0800000  0  4  3 13 11  9
  -5353005.782 7  80569752.148 6  23040021.798 0  23040023.993 0
  -3355195.316 6  53207093.659 5  20720703.675 0  20720706.850 0
   1523910.749 7   1345641.802 6  22672436.092 0  22672435.676 0
 -15165105.086 7 -11597523.179 6  21046029.510 0  21046031.818 0
 88  2 26  8 47 29.0800000  0  4  3 13 11  9
  -5413438.479 7  80522661.748 6  23028521.827 0  23028524.404 0
  -3343386.319 8  53216295.477 6  20722951.253 0  20722952.020 0
   1590319.456 7   1397388.850 7  22685072.750 0  22685073.792 0
 -15084764.548 8 -11534920.173 6  21061319.628 0  21061320.062 0
 88  2 26  8 47 59.0800000  0  4  3 13 11  9
  -5473642.134 7  80475749.838 7  23017065.409 0  23017067.436 0
  -3331305.058 7  53225709.449 7  20725249.898 0  20725251.716 0
   1656754.615 8   1449156.515 7  22697715.153 0  22697715.721 0
 -15003907.175 8 -11471914.426 6  21076706.876 0  21076705.864 0
 88  2 26  8 48 29.0800000  0  4  3 13 11  9
  -5533616.572 7  80429016.513 7  23005653.688 0  23005654.746 0
  -3318953.506 7  53235334.053 6  20727600.211 0  20727600.850 0
   1723215.172 7   1500943.938 7  22710361.687 0  22710362.549 0
 -14922535.255 8 -11408507.754 6  21092190.911 0  21092191.458 0
 88  2 26  8 48 59.0800000  0  4  3 13 11  9
  -5593362.823 7  80382461.006 7  22994283.990 0  22994285.644 0
  -3306333.196 7  53245168.057 6  20730002.306 0  20730004.209 0
   1789699.763 8   1552750.107 7  22723012.879 0  22723013.918 0
 -14840651.681 8 -11344702.378 7  21107772.964 0  21107772.581 0
 88  2 26  8 49 29.0800000  0  4  3 13 11  9
  -5652880.247 7  80336083.805 7  22982957.929 0  22982958.981 0
  -3293445.745 7  53255210.250 6  20732454.555 0  20732456.604 0
   1856207.134 8   1604574.037 7  22735669.783 0  22735670.838 0
 -14758258.689 8 -11280500.061 7  21123450.775 0  21123451.923 0
 88  2 26  8 49 59.0800000  0  4  3 13 11  9
  -5712169.566 7  80289884.348 7  22971673.830 0  22971677.470 0
  -3280292.860 7  53265459.250 6  20734956.530 0  20734959.038 0
   1922736.241 8   1656414.895 7  22748328.906 0  22748331.468 0
 -14675359.326 8 -11215903.157 6  21139226.575 0  21139226.735 0
 88  2 26  8 50 29.0800000  0  4  3 13 11  9
  -5771231.232 7  80243862.289 7  22960435.535 0  22960438.616 0
  -3266876.393 6  53275913.643 6  20737509.672 0  20737510.981 0
   1989285.725 7   1708271.624 7  22760993.997 0  22760995.537 0
 -14591956.102 7 -11150913.651 6  21155096.415 0  21155098.536 0
 88  2 26  8 50 59.0800000  0  4  3 13 11  9
  -5830065.567 7  80198017.377 7  22949240.236 0  22949242.848 0
  -3253197.815 7  53286572.296 6  20740112.569 0  20740113.945 0
   2055854.469 8   1760143.376 7  22773661.747 0  22773662.127 0
 -14508051.581 7 -11085533.497 7  21171063.642 0  21171064.417 0
 88  2 26  8 51 29.0800000  0  4  3 13 11  9
  -5888673.215 7  80152349.104 6  22938088.390 0  22938088.492 0
  -3239259.289 7  53297433.487 6  20742766.037 0  20742765.949 0
   2122441.063 7   1812029.039 7  22786331.590 0  22786334.290 0
 -14423648.816 7 -11019765.135 6  21187126.084 0  21187126.288 0
 88  2 26  8 51 59.0800000  0  4  3 13 11  9
  -5947054.460 7  80106857.244 7  22926978.369 0  22926980.308 0
  -3225062.757 8  53308495.708 6  20745467.006 0  20745468.445 0
   2189044.727 7   1863927.980 7  22799006.127 0  22799009.418 0
 -14338750.540 7 -10953610.631 6  21203281.164 0  21203281.467 0
 88  2 26  8 52 29.0800000  0  4  3 13 11  9
  -6005209.535 6  80061541.613 7  22915911.447 0  22915914.180 0
  -3210609.289 7  53319758.155 6  20748217.115 0  20748217.751 0
   2255663.951 7   1915839.065 7  22811683.792 0  22811685.703 0
 -14253359.008 7 -10887071.803 6  21219529.768 0  21219531.431 0
 88  2 26  8 52 59.0800000  0  4  3 13 11  9
  -6063138.809 6  80016401.930 7  22904887.517 0  22904889.885 0
  -3195900.251 7  53331219.760 6  20751016.472 0  20751017.989 0
   2322297.838 7   1967761.569 7  22824362.910 0  22824365.679 0
 -14167477.473 7 -10820151.126 6  21235873.528 0  21235873.186 0
 88  2 26  8 53 29.0800000  0  4  3 13 11  9
  -6120842.850 6  79971437.761 7  22893906.141 0  22893908.961 0
  -3180938.344 7  53342878.382 6  20753864.524 0  20753865.673 0
   2388945.433 7   2019694.745 7  22837047.112 0  22837048.625 0
 -14081108.365 7 -10752850.546 6  21252308.295 0  21252309.171 0
 88  2 26  8 53 59.0800000  0  4  3 13 11  9
  -6178321.693 7  79926649.091 7  22882970.485 0  22882971.193 0
  -3165724.690 7  53354733.193 6  20756759.068 0  20756760.745 0
   2455605.315 7   2071637.516 7  22849730.408 0  22849732.440 0
 -13994254.875 7 -10685172.495 6  21268835.584 0  21268837.061 0
 88  2 26  8 54 29.0800000  0  4  3 13 11  9
  -6235575.778 7  79882035.531 7  22872074.639 0  22872076.340 0
  -3150261.413 7  53366782.493 6  20759701.896 0  20759702.986 0
   2522276.484 7   2123589.075 7  22862418.486 0  22862419.882 0
 -13906919.658 7 -10617119.093 6  21285453.909 0  21285455.444 0
 88  2 26  8 54 59.0800000  0  4  3 13 11  9
  -6292605.997 7  79837596.406 6  22861222.949 0  22861223.891 0
  -3134549.562 8  53379025.512 6  20762691.542 0  20762693.213 0
   2588957.960 7   2175548.669 6  22875106.879 0  22875107.950 0
 -13819105.507 7 -10548692.488 6  21302165.529 0  21302165.174 0
 88  2 26  8 55 29.0800000  0  4  3 13 11  9
  -6349412.383 7  79793331.699 7  22850412.353 0  22850413.799 0
  -3118591.029 7  53391460.723 6  20765728.533 0  20765729.207 0
   2655648.405 7   2227515.239 7  22887799.219 0  22887800.584 0
 -13730815.271 7 -10479894.911 6  21318967.728 0  21318967.561 0
 88  2 26  8 55 59.0800000  0  4  3 13 11  9
  -6405995.190 7  79749241.217 6  22839645.094 0  22839646.247 0
  -3102387.612 7  53404086.770 6  20768811.287 0  20768813.699 0
   2722346.909 7   2279488.092 7  22900490.585 0  22900493.287 0
 -13642051.717 7 -10410728.517 7  21335858.442 0  21335859.103 0
 88  2 26  8 56 29.0800000  0  4  3 13 11  9
  -6462355.219 7  79705324.328 7  22828920.499 0  22828921.629 0
  -3085941.020 7  53416902.291 6  20771940.702 0  20771942.694 0
   2789052.408 7   2331466.402 6  22913184.037 0  22913185.834 0
 -13552817.732 8 -10341195.570 6  21352838.733 0  21352839.280 0
 88  2 26  8 56 59.0800000  0  4  3 13 11  9
  -6518492.869 7  79661580.734 7  22818237.399 0  22818237.892 0
  -3069252.817 7  53429906.081 7  20775116.312 0  20775117.871 0
   2855763.937 7   2383449.405 6  22925877.858 0  22925880.669 0
 -13463116.338 8 -10271298.383 6  21369908.827 0  21369908.559 0
 88  2 26  8 57 29.0800000  0  4  3 13 11  9
  -6574408.239 7  79618010.332 7  22807597.228 0  22807598.887 0
  -3052325.320 8  53443096.356 6  20778338.276 0  20778339.090 0
   2922480.170 7   2435436.085 7  22938574.443 0  22938575.743 0
 -13372950.471 7 -10201039.271 6  21387066.780 0  21387067.471 0
 88  2 26  8 57 59.0800000  0  4  3 13 11  9
  -6630102.285 7  79574612.387 7  22796998.588 0  22797000.126 0
  -3035159.714 7  53456472.147 6  20781603.936 0  20781606.418 0
   2989200.273 8   2487425.781 7  22951270.912 0  22951272.571 0
 -13282323.229 7 -10130420.651 6  21404311.820 0  21404312.066 0
 88  2 26  8 58 29.0800000  0  4  3 13 11  9
  -6685575.060 7  79531386.882 7  22786442.361 0  22786443.163 0
  -3017757.460 8  53470032.357 6  20784916.100 0  20784918.071 0
   3055923.521 7   2539417.916 7  22963967.783 0  22963969.850 0
 -13191237.007 8 -10059444.398 6  21421644.430 0  21421645.192 0
 88  2 26  8 58 59.0800000  0  4  3 13 11  9
  -6740827.477 7  79488333.061 6  22775927.538 0  22775930.472 0
  -3000120.282 7  53483775.615 6  20788273.746 0  20788273.195 0
   3122648.518 8   2591411.426 7  22976666.202 0  22976666.680 0
 -13099695.003 7  -9988112.967 6  21439065.101 0  21439065.605 0
 88  2 26  8 59 29.0800000  0  4  3 13 11  9
  -6795860.144 8  79445450.475 6  22765456.417 0  22765457.710 0
  -2982250.322 7  53497700.259 6  20791674.084 0  20791675.169 0
   3189374.162 7   2643405.440 6  22989363.149 0  22989364.349 0
 -13007700.307 7  -9916428.810 6  21456571.798 0  21456571.815 0
 88  2 26  8 59 59.0800000  0  4  3 13 11  9
  -6850673.193 7  79402739.042 7  22755025.773 0  22755027.326 0
  -2964149.261 7  53511804.991 6  20795117.461 0  20795120.163 0
   3256099.917 7   2695399.527 7  23002059.457 0  23002060.742 0
 -12915255.242 7  -9844393.708 6  21474162.661 0  21474164.367 0
 88  2 26  9  0 29.0800000  0  4  3 13 11  9
  -6905267.142 7  79360198.333 6  22744635.898 0  22744638.496 0
  -2945818.455 7  53526088.738 6  20798605.677 0  20798606.773 0
   3322824.539 7   2747392.732 6  23014757.813 0  23014759.242 0
 -12822363.988 7  -9772010.921 6  21491839.123 0  21491840.297 0
 88  2 26  9  0 59.0800000  0  4  3 13 11  9
  -6959642.269 8  79317828.114 7  22734289.616 0  22734290.403 0
  -2927259.595 7  53540550.180 6  20802137.438 0  20802137.911 0
   3389547.189 8   2799384.404 7  23027454.181 0  23027456.191 0
 -12729028.990 7  -9699282.375 6  21509600.494 0  21509601.443 0
 88  2 26  9  1 29.0800000  0  4  3 13 11  9
  -7013799.247 7  79275627.923 7  22723983.341 0  22723984.415 0
  -2908474.407 7  53555188.004 6  20805712.428 0  20805713.593 0
   3456266.796 7   2851373.728 8  23040150.966 0  23040151.983 0
 -12635252.986 7  -9626210.168 6  21527446.348 0  21527446.707 0
 88  2 26  9  1 59.0800000  0  4  3 13 11  9
  -7067738.775 7  79233597.144 7  22713718.880 0  22713719.417 0
  -2889464.086 7  53570001.236 6  20809329.407 0  20809331.648 0
   3522982.437 8   2903359.943 7  23052847.524 0  23052847.853 0
 -12541039.268 7  -9552796.898 6  21545373.676 0  21545375.712 0
 88  2 26  9  2 29.0800000  0  4  3 13 11  9
  -7121461.182 7  79191735.552 7  22703496.336 0  22703497.272 0
  -2870230.655 8  53584988.338 6  20812989.782 0  20812990.764 0
   3589693.295 8   2955342.430 7  23065540.942 0  23065541.795 0
 -12446390.831 8  -9479044.880 6  21563383.856 0  21563386.693 0
 88  2 26  9  2 59.0800000  0  4  3 13 11  9
  -7174966.671 7  79150042.988 7  22693314.787 0  22693315.510 0
  -2850776.062 7  53600147.761 6  20816691.390 0  20816692.049 0
   3656398.349 7   3007320.400 7  23078234.480 0  23078235.114 0
 -12351310.581 7  -9404956.392 6  21581478.662 0  21581480.382 0
 88  2 26  9  3 29.0800000  0  4  3 13 11  9
  -7228256.183 6  79108518.714 7  22683172.419 0  22683174.923 0
  -2831102.120 7  53615478.119 6  20820436.142 0  20820436.740 0
   3723096.909 7   3059293.303 7  23090927.617 0  23090929.192 0
 -12255801.667 7  -9330533.879 6  21599652.796 0  21599653.887 0
 88  2 26  9  3 59.0800000  0  4  3 13 11  9
  -7281330.068 7  79067162.457 7  22673072.927 0  22673075.382 0
  -2811209.778 7  53630978.644 6  20824220.182 0  20824221.677 0
   3789787.856 7   3111260.274 7  23103618.322 0  23103619.242 0
 -12159867.121 7  -9255779.700 6  21617908.493 0  21617910.099 0
 88  2 26  9  4 29.0800000  0  4  3 13 11  9
  -7334188.952 6  79025973.749 7  22663013.695 0  22663016.858 0
  -2791101.025 7  53646647.809 6  20828048.668 0  20828048.648 0
   3856470.618 7   3163220.858 7  23116306.859 0  23116307.778 0
 -12063510.408 8  -9180696.559 7  21636245.150 0  21636245.742 0
 88  2 26  9  4 59.0800000  0  4  3 13 11  9
  -7386833.605 7  78984951.972 6  22652996.251 0  22652998.892 0
  -2770777.745 7  53662484.117 6  20831914.291 0  20831916.953 0
   3923143.805 7   3215173.983 8  23128994.462 0  23128996.744 0
 -11966734.415 7  -9105286.708 6  21654659.967 0  21654661.615 0
 88  2 26  9  5 29.0800000  0  4  3 13 11  9
  -7439264.530 7  78944096.734 6  22643019.632 0  22643020.864 0
  -2750241.016 7  53678486.778 7  20835822.855 0  20835824.030 0
   3989807.003 7   3267119.331 7  23141680.598 0  23141681.874 0
 -11869541.755 7  -9029552.179 7  21673154.913 0  21673156.204 0
 88  2 26  9  5 59.0800000  0  4  3 13 11  9
  -7491482.154 7  78903407.700 7  22633083.790 0  22633084.670 0
  -2729492.820 7  53694654.191 6  20839770.314 0  20839773.301 0
   4056459.142 7   3319056.062 7  23154363.140 0  23154364.864 0
 -11771935.904 7  -8953495.680 6  21691729.792 0  21691730.396 0
 88  2 26  9  6 29.0800000  0  4  3 13 11  9
  -7543486.580 7  78862884.783 6  22623187.150 0  22623187.502 0
  -2708534.964 7  53710984.999 6  20843758.590 0  20843761.382 0
   4123099.666 7   3370983.733 7  23167045.165 0  23167046.570 0
 -11673920.087 7  -8877119.727 6  21710381.280 0  21710382.658 0
 88  2 26  9  6 59.0800000  0  4  3 13 11  9
  -7595278.843 7  78822527.192 7  22613331.187 0  22613332.761 0
  -2687368.655 8  53727478.228 6  20847786.851 0  20847788.127 0
   4189727.520 7   3422901.525 7  23179723.777 0  23179724.176 0
 -11575497.441 7  -8800426.764 6  21729110.068 0  21729111.831 0
 88  2 26  9  7 29.0800000  0  4  3 13 11  9
  -7646859.179 6  78782334.746 7  22603514.560 0  22603516.849 0
  -2665995.915 7  53744132.311 6  20851854.450 0  20851855.912 0
   4256342.120 8   3474809.014 7  23192400.138 0  23192401.708 0
 -11476670.885 7  -8723419.058 6  21747917.013 0  21747917.073 0
 88  2 26  9  7 59.0800000  0  4  3 13 11  9
  -7698228.598 7  78742306.646 7  22593740.131 0  22593742.284 0
  -2644417.996 8  53760946.273 7  20855960.774 0  20855961.305 0
   4322942.283 7   3526705.234 7  23205072.959 0  23205074.913 0
 -11377443.815 7  -8646099.282 6  21766799.280 0  21766799.183 0
 88  2 26  9  8 29.0800000  0  4  3 13 11  9
  -7749387.492 7  78702442.581 6  22584003.705 0  22584007.047 0
  -2622636.682 8  53777918.733 7  20860105.184 0  20860106.783 0
   4389527.399 7   3578589.725 7  23217743.590 0  23217745.965 0
 -11277819.108 7  -8568469.649 6  21785756.872 0  21785757.719 0
 88  2 26  9  8 59.0800000  0  4  3 13 11  9
  -7800336.514 6  78662742.055 7  22574308.256 0  22574310.151 0
  -2600654.160 8  53795047.979 6  20864287.404 0  20864289.952 0
   4456096.796 7   3630461.967 7  23230411.597 0  23230413.798 0
 -11177800.235 7  -8490532.878 6  21804790.217 0  21804790.749 0
 88  2 26  9  9 29.0800000  0  4  3 13 11  9
  -7851076.330 7  78623204.551 7  22564653.857 0  22564656.261 0
  -2578471.002 7  53812333.564 7  20868509.511 0  20868511.139 0
   4522649.776 7   3682321.441 7  23243075.189 0  23243078.639 0
 -11077390.390 8  -8412291.461 6  21823897.310 0  21823897.714 0
 88  2 26  9  9 59.0800000  0  4  3 13 11  9
  -7901607.470 6  78583829.667 7  22555037.675 0  22555040.085 0
  -2556088.661 7  53829774.359 6  20872769.164 0  20872770.982 0
   4589185.622 7   3734167.545 7  23255737.097 0  23255739.770 0
 -10976592.692 7  -8333747.800 7  21843078.355 0  21843079.416 0
 88  2 26  9 10 29.0800000  0  4  3 13 11  9
  -7951931.091 6  78544616.476 7  22545462.370 0  22545464.222 0
  -2533509.831 7  53847368.251 6  20877065.407 0  20877065.378 0
   4655703.194 7   3785999.413 7  23268395.785 0  23268397.473 0
 -10875410.206 7  -8254904.330 7  21862333.205 0  21862331.547 0
 88  2 26  9 10 59.0800000  0  4  3 13 11  9
  -8002046.915 7  78505565.201 7  22535925.373 0  22535927.948 0
  -2510735.783 7  53865114.277 6  20881399.054 0  20881399.778 0
   4722201.839 7   3837816.540 7  23281049.501 0  23281052.130 0
 -10773846.364 7  -8175763.684 6  21881659.917 0  21881661.007 0
 88  2 26  9 11 29.0800000  0  4  3 13 11  9
  -8051956.073 6  78466674.966 7  22526428.621 0  22526429.901 0
  -2487767.879 7  53883011.331 6  20885769.103 0  20885771.710 0
   4788681.003 7   3889618.471 6  23293701.069 0  23293702.522 0
 -10671904.348 7  -8096328.359 7  21901058.287 0  21901058.461 0
 88  2 26  9 11 59.0800000  0  4  3 13 11  9
  -8101658.898 6  78427945.520 7  22516970.975 0  22516971.869 0
  -2464607.620 7  53901058.279 6  20890177.153 0  20890178.887 0
   4855140.062 7   3941404.768 7  23306348.489 0  23306349.283 0
 -10569587.275 7  -8016600.768 6  21920528.721 0  21920530.341 0
 88  2 26  9 12 29.0800000  0  4  3 13 11  9
  -8151155.933 7  78389376.425 7  22507551.764 0  22507553.258 0
  -2441257.214 8  53919253.414 6  20894620.784 0  20894621.542 0
   4921578.549 7   3993175.011 7  23318990.030 0  23318990.895 0
 -10466898.384 7  -7936583.473 6  21940068.896 0  21940070.545 0
 88  2 26  9 12 59.0800000  0  4  3 13 11  9
  -8200448.104 6  78350966.958 7  22498170.709 0  22498172.833 0
  -2417717.448 7  53937596.107 6  20899099.584 0  20899100.360 0
   4987995.025 7   4044928.131 7  23331628.262 0  23331629.307 0
 -10363840.967 8  -7856279.001 7  21959680.732 0  21959683.569 0
 88  2 26  9 13 29.0800000  0  4  3 13 11  9
  -8249535.961 7  78312716.686 7  22488830.348 0  22488831.957 0
  -2393990.259 7  53956084.831 6  20903615.400 0  20903615.740 0
   5054389.170 7   4096663.822 7  23344263.555 0  23344264.768 0
 -10260418.584 7  -7775690.148 7  21979361.939 0  21979362.758 0
 88  2 26  9 13 59.0800000  0  4  3 13 11  9
  -8298420.249 7  78274625.037 7  22479527.483 0  22479529.400 0
  -2370076.662 7  53974718.803 7  20908165.886 0  20908166.543 0
   5120760.458 7   4148381.707 7  23356894.493 0  23356894.769 0
 -10156634.066 7  -7694819.094 7  21999111.116 0  21999113.380 0
 88  2 26  9 14 29.0800000  0  4  3 13 11  9
  -8347101.408 7  78236691.678 6  22470264.228 0  22470265.329 0
  -2345978.841 7  53993496.341 6  20912751.075 0  20912752.937 0
   5187108.180 7   4200081.230 7  23369519.562 0  23369521.200 0
 -10052490.785 8  -7613668.497 6  22018929.749 0  22018930.754 0
 88  2 26  9 14 59.0800000  0  4  3 13 11  9
  -8395579.991 7  78198916.166 7  22461037.748 0  22461040.073 0
  -2321698.172 7  54012416.334 6  20917372.453 0  20917373.175 0
   5253432.039 7   4251762.163 7  23382139.719 0  23382141.611 0
  -9947991.868 7  -7532240.780 6  22038814.032 0  22038814.838 0
 88  2 26  9 15 29.0800000  0  4  3 13 11  9
  -8443856.673 7  78161297.988 6  22451851.576 0  22451854.610 0
  -2297236.308 7  54031477.529 6  20922026.414 0  20922027.989 0
   5319730.845 7   4303423.572 6  23394756.129 0  23394757.329 0
  -9843140.975 7  -7450538.802 6  22058767.457 0  22058767.703 0
 88  2 26  9 15 59.0800000  0  4  3 13 11  9
  -8491932.590 7  78123836.265 6  22442703.215 0  22442704.504 0
  -2272594.684 8  54050678.821 6  20926715.772 0  20926716.689 0
   5386004.043 7   4355065.038 6  23407367.503 0  23407369.081 0
  -9737940.971 8  -7368564.776 7  22078786.133 0  22078786.650 0
 88  2 26  9 16 29.0800000  0  4  3 13 11  9
  -8539808.402 7  78086530.454 6  22433593.427 0  22433595.035 0
  -2247774.693 8  54070019.063 6  20931438.754 0  20931440.000 0
   5452250.765 7   4406685.848 7  23419973.554 0  23419974.650 0
  -9632395.555 7  -7286321.607 6  22098871.116 0  22098872.294 0
 88  2 26  9 16 59.0800000  0  4  3 13 11  9
  -8587484.220 7  78049380.471 7  22424520.026 0  22424522.444 0
  -2222777.737 7  54089497.205 6  20936196.061 0  20936196.729 0
   5518470.890 7   4458285.948 7  23432575.732 0  23432576.849 0
  -9526507.734 7  -7203811.627 6  22119020.291 0  22119021.339 0
 88  2 26  9 17 29.0800000  0  4  3 13 11  9
  -8634961.261 7  78012385.386 6  22415486.525 0  22415487.275 0
  -2197605.774 8  54109111.711 6  20940985.290 0  20940987.551 0
   5584663.719 7   4509864.766 7  23445171.706 0  23445173.215 0
  -9420280.846 7  -7121037.433 7  22139235.318 0  22139234.317 0
 88  2 26  9 17 59.0800000  0  4  3 13 11  9
  -8682239.840 7  77975544.942 7  22406489.308 0  22406490.029 0
  -2172260.293 7  54128861.457 6  20945808.563 0  20945809.542 0
   5650828.630 7   4561421.831 7  23457761.784 0  23457763.431 0
  -9313718.685 7  -7038001.996 6  22159512.959 0  22159513.277 0
 88  2 26  9 18 29.0800000  0  4  3 13 11  9
  -8729320.438 7  77938858.784 7  22397531.058 0  22397532.756 0
  -2146742.243 7  54148745.661 6  20950665.780 0  20950666.171 0
   5716964.876 6   4612956.574 7  23470347.140 0  23470348.855 0
  -9206824.037 7  -6954707.474 6  22179854.737 0  22179855.212 0
 88  2 26  9 18 59.0800000  0  4  3 13 11  9
  -8776203.738 6  77902326.374 7  22388609.894 0  22388609.299 0
  -2121053.593 7  54168762.802 6  20955552.986 0  20955554.490 0
   5783072.304 7   4664468.833 7  23482925.889 0  23482929.078 0
  -9099600.388 7  -6871156.575 6  22200258.729 0  22200258.431 0
 88  2 26  9 19 29.0800000  0  4  3 13 11  9
  -8822890.688 7  77865946.936 6  22379723.070 0  22379725.014 0
  -2095196.042 8  54188911.559 6  20960473.772 0  20960475.294 0
   5849150.270 7   4715958.158 7  23495500.014 0  23495502.924 0
  -8992050.971 7  -6787351.855 6  22220724.139 0  22220726.432 0
 88  2 26  9 19 59.0800000  0  4  3 13 11  9
  -8869382.362 7  77829719.682 7  22370877.463 0  22370878.387 0
  -2069170.685 7  54209191.044 7  20965426.985 0  20965427.613 0
   5915197.849 7   4767423.795 7  23508069.967 0  23508070.979 0
  -8884179.299 7  -6703296.013 6  22241250.417 0  22241252.079 0
 88  2 26  9 20 29.0800000  0  4  3 13 11  9
  -8915679.329 7  77793644.132 6  22362066.606 0  22362068.776 0
  -2042979.139 8  54229600.035 6  20970410.465 0  20970410.261 0
   5981214.985 6   4818865.724 7  23520632.465 0  23520633.799 0
  -8775988.634 7  -6618991.597 6  22261839.226 0  22261840.505 0
 88  2 26  9 20 59.0800000  0  4  3 13 11  9
  -8961781.607 7  77757720.303 6  22353293.164 0  22353295.647 0
  -2016623.034 7  54250137.274 6  20975426.499 0  20975426.700 0
   6047200.712 7   4870283.160 7  23533188.840 0  23533191.020 0
  -8667482.362 8  -6534441.282 6  22282488.280 0  22282488.482 0
 88  2 26  9 21 29.0800000  0  4  3 13 11  9
  -9007690.189 7  77721947.385 7  22344558.548 0  22344559.498 0
  -1990103.310 7  54270801.997 6  20980473.373 0  20980472.760 0
   6113154.794 7   4921675.945 7  23545740.196 0  23545741.759 0
  -8558663.787 7  -6449647.586 7  22303194.797 0  22303195.945 0
 88  2 26  9 21 59.0800000  0  4  3 13 11  9
  -9053405.910 7  77686324.762 7  22335858.165 0  22335860.519 0
  -1963421.467 7  54291593.045 6  20985548.755 0  20985549.920 0
   6179076.719 7   4973043.681 7  23558285.152 0  23558285.660 0
  -8449535.925 7  -6364612.910 6  22323962.188 0  22323962.435 0
 88  2 26  9 22 29.0800000  0  4  3 13 11  9
  -9098929.583 7  77650851.788 6  22327194.263 0  22327197.642 0
  -1936579.471 7  54312508.884 7  20990657.751 0  20990658.514 0
   6244965.879 6   5024385.874 7  23570822.334 0  23570824.537 0
  -8340102.494 7  -6279340.108 6  22344785.326 0  22344786.816 0
 88  2 26  9 22 59.0800000  0  4  3 13 11  9
  -9144261.727 7  77615528.082 7  22318568.468 0  22318570.700 0
  -1909578.244 7  54333548.796 6  20995794.853 0  20995797.918 0
   6310821.824 7   5075702.199 7  23583354.021 0  23583356.985 0
  -8230367.183 7  -6193832.096 6  22365668.105 0  22365668.893 0
 88  2 26  9 23 29.0800000  0  4  3 13 11  9
  -9189403.316 7  77580352.823 7  22309977.817 0  22309979.549 0
  -1882419.629 7  54354711.347 6  21000962.989 0  21000965.548 0
   6376644.223 6   5126992.358 7  23595879.296 0  23595882.076 0
  -8120332.664 7  -6108090.924 7  22386607.117 0  22386608.136 0
 88  2 26  9 23 59.0800000  0  4  3 13 11  9
  -9234355.113 7  77545325.436 7  22301424.263 0  22301426.064 0
  -1855104.914 8  54375995.538 6  21006160.274 0  21006162.478 0
   6442432.748 7   5178256.126 7  23608400.173 0  23608400.832 0
  -8010002.860 7  -6022119.657 6  22407601.468 0  22407602.276 0
 88  2 26  9 24 29.0800000  0  4  3 13 11  9
  -9279117.561 7  77510445.624 7  22292906.022 0  22292909.492 0
  -1827635.603 7  54397400.227 6  21011388.139 0  21011388.998 0
   6508186.637 7   5229492.898 7  23620910.820 0  23620914.002 0
  -7899380.941 7  -5935920.777 6  22428653.550 0  22428653.006 0
 88  2 26  9 24 59.0800000  0  4  3 13 11  9
  -9323691.257 7  77475712.892 7  22284424.241 0  22284426.809 0
  -1800013.272 7  54418924.106 6  21016645.694 0  21016645.391 0
   6573905.485 7   5280702.389 7  23633417.563 0  23633419.924 0
  -7788470.204 8  -5849496.838 6  22449758.624 0  22449759.087 0
 88  2 26  9 25 29.0800000  0  4  3 13 11  9
  -9368077.095 7  77441126.561 7  22275978.018 0  22275980.273 0
  -1772239.128 7  54440566.299 6  21021930.179 0  21021931.696 0
   6639589.124 8   5331884.429 7  23645918.160 0  23645918.252 0
  -7677274.186 7  -5762850.609 7  22470918.519 0  22470918.635 0
 88  2 26  9 25 59.0800000  0  4  3 13 11  9
  -9412275.648 8  77406686.157 6  22267567.463 0  22267568.801 0
  -1744314.615 7  54462325.676 6  21027243.984 0  21027245.614 0
   6705236.820 7   5383038.481 7  23658409.211 0  23658412.388 0
  -7565795.994 8  -5675984.490 7  22492131.597 0  22492132.253 0
 88  2 26  9 26 29.0800000  0  4  3 13 11  9
  -9456287.570 7  77372391.145 6  22259192.494 0  22259193.360 0
  -1716240.485 7  54484201.610 7  21032586.951 0  21032588.669 0
   6770848.309 7   5434164.310 7  23670894.481 0  23670896.594 0
  -7454039.430 7  -5588901.447 6  22513398.319 0  22513398.255 0
 88  2 26  9 26 59.0800000  0  4  3 13 11  9
  -9500114.021 7  77338240.686 7  22250853.268 0  22250854.407 0
  -1688018.933 8  54506192.415 6  21037956.576 0  21037957.305 0
   6836423.272 7   5485261.677 7  23683372.966 0  23683374.727 0
  -7342007.582 7  -5501603.940 6  22534715.733 0  22534717.786 0
 88  2 26  9 27 29.0800000  0  4  3 13 11  9
  -9543755.262 7  77304234.545 7  22242549.223 0  22242548.350 0
  -1659651.151 8  54528297.187 6  21043354.618 0  21043356.421 0
   6901961.353 7   5536330.308 7  23695844.801 0  23695846.085 0
  -7229704.139 7  -5414094.771 6  22556088.585 0  22556088.822 0
 88  2 26  9 27 59.0800000  0  4  3 13 11  9
  -9587212.542 7  77270371.734 6  22234278.124 0  22234280.127 0
  -1631138.472 8  54550514.867 6  21048781.264 0  21048781.751 0
   6967462.031 7   5587369.799 6  23708309.391 0  23708310.901 0
  -7117132.188 8  -5326376.412 6  22577509.302 0  22577510.879 0
 88  2 26  9 28 29.0800000  0  4  3 13 11  9
  -9630486.171 8  77236652.056 7  22226043.097 0  22226045.617 0
  -1602482.081 8  54572844.523 6  21054234.901 0  21054235.072 0
   7032925.185 7   5638380.044 7  23720765.249 0  23720768.080 0
  -7004295.238 7  -5238451.500 6  22598982.334 0  22598981.892 0
 88  2 26  9 28 59.0800000  0  4  3 13 11  9
  -9673576.980 7  77203074.825 7  22217842.858 0  22217843.702 0
  -1573683.120 8  54595285.271 6  21059714.762 0  21059715.233 0
   7098350.394 7   5689360.735 7  23733216.232 0  23733217.520 0
  -6891196.666 8  -5150322.768 6  22620503.356 0  22620504.870 0
 88  2 26  9 29 29.0800000  0  4  3 13 11  9
  -9716485.401 7  77169639.694 6  22209679.243 0  22209679.292 0
  -1544743.362 7  54617835.732 7  21065220.368 0  21065223.959 0
   7163737.413 7   5740311.660 7  23745659.102 0  23745660.525 0
  -6777839.798 7  -5061992.741 7  22642075.592 0  22642074.377 0
 88  2 26  9 29 59.0800000  0  4  3 13 11  9
  -9759212.750 7  77136345.674 6  22201546.863 0  22201548.638 0
  -1515664.370 7  54640494.679 7  21070754.820 0  21070756.494 0
   7229085.780 7   5791232.465 7  23758094.736 0  23758094.789 0
  -6664228.342 7  -4973464.348 7  22663694.291 0  22663695.392 0
 88  2 26  9 30 29.0800000  0  4  3 13 11  9
  -9801759.709 7  77103192.202 6  22193451.097 0  22193453.157 0
  -1486447.274 8  54663261.245 6  21076314.700 0  21076316.502 0
   7294394.961 7   5842122.753 6  23770521.913 0  23770524.500 0
  -6550365.286 8  -4884739.891 7  22685361.772 0  22685362.448 0
 88  2 26  9 30 59.0800000  0  4  3 13 11  9
  -9844127.088 6  77070178.697 6  22185388.661 0  22185390.312 0
  -1457093.504 8  54686134.306 7  21081900.924 0  21081902.468 0
   7359664.816 7   5892982.392 7  23782941.891 0  23782944.440 0
  -6436254.493 7  -4795822.392 6  22707076.435 0  22707077.316 0
 88  2 26  9 31 29.0800000  0  4  3 13 11  9
  -9886314.991 7  77037305.030 7  22177360.274 0  22177361.183 0
  -1427603.857 7  54709113.268 6  21087511.844 0  21087512.502 0
   7424894.925 6   5943811.054 6  23795355.683 0  23795356.269 0
  -6321899.014 8  -4706714.245 7  22728837.857 0  22728839.103 0
 88  2 26  9 31 59.0800000  0  4  3 13 11  9
  -9928324.742 8  77004570.161 7  22169367.225 0  22169367.890 0
  -1397980.020 7  54732196.771 6  21093149.123 0  21093151.010 0
   7490085.191 6   5994608.634 6  23807760.433 0  23807763.554 0
  -6207302.519 7  -4617418.292 7  22750644.135 0  22750645.075 0
 88  2 26  9 32 29.0800000  0  4  3 13 11  9
  -9970157.239 7  76971973.416 6  22161406.842 0  22161408.273 0
  -1368223.610 8  54755383.584 6  21098811.671 0  21098812.873 0
   7555235.463 6   6045375.088 7  23820158.774 0  23820159.537 0
  -6092468.363 8  -4527937.124 6  22772496.322 0  22772497.477 0
 88  2 26  9 32 59.0800000  0  4  3 13 11  9
 -10011812.820 7  76939514.565 7  22153478.484 0  22153480.444 0
  -1338335.167 8  54778673.304 7  21104499.660 0  21104500.863 0
   7620345.283 6   6096110.023 6  23832547.134 0  23832550.902 0
  -5977399.879 7  -4438273.401 7  22794392.718 0  22794394.237 0
 88  2 26  9 33 29.0800000  0  4  3 13 11  9
 -10053292.480 7  76907192.796 7  22145586.199 0  22145586.679 0
  -1308316.594 7  54802064.403 7  21110211.977 0  21110214.380 0
   7685414.111 6   6146812.994 6  23844931.988 0  23844933.632 0
  -5862100.360 6  -4348429.616 6  22816334.445 0  22816334.376 0
 88  2 26  9 33 59.0800000  0  4  3 13 11  9
 -10094596.835 7  76875007.605 7  22137726.268 0  22137727.598 0
  -1278168.754 8  54825556.225 6  21115949.219 0  21115950.420 0
   7750442.102 7   6197484.111 6  23857303.492 0  23857307.402 0
  -5746573.323 7  -4258408.557 6  22838318.891 0  22838317.848 0
 88  2 26  9 34 29.0800000  0  4  3 13 11  9
 -10135726.756 7  76842958.323 7  22129899.734 0  22129901.265 0
  -1247893.285 8  54849147.497 7  21121710.672 0  21121711.444 0
   7815428.975 6   6248123.198 6  23869671.637 0  23869672.870 0
  -5630822.477 7  -4168213.100 6  22860344.162 0  22860345.128 0
 88  2 26  9 34 59.0800000  0  4  3 13 11  9
 -10176682.504 7  76811044.761 6  22122105.818 0  22122107.685 0
  -1217490.536 7  54872837.935 6  21127494.878 0  21127498.140 0
   7880374.278 6   6298729.929 7  23882030.946 0  23882032.947 0
  -5514850.682 7  -4077845.490 6  22882412.886 0  22882414.596 0
 88  2 26  9 35 29.0800000  0  4  3 13 11  9
 -10217465.220 7  76779266.038 6  22114344.777 0  22114346.145 0
  -1186962.607 8  54896625.947 6  21133305.455 0  21133306.067 0
   7945277.839 6   6349304.138 7  23894381.217 0  23894383.525 0
  -5398662.035 7  -3987308.892 7  22904522.674 0  22904523.733 0
 88  2 26  9 35 59.0800000  0  4  3 13 11  9
 -10258075.719 6  76747621.527 7  22106617.655 0  22106618.916 0
  -1156310.820 7  54920510.444 7  21139137.466 0  21139138.953 0
   8010139.832 7   6399845.932 7  23906724.510 0  23906725.672 0
  -5282259.058 7  -3896605.282 6  22926674.152 0  22926675.610 0
 88  2 26  9 36 29.0800000  0  4  3 13 11  9
 -10298514.622 7  76716110.716 6  22098922.976 0  22098922.094 0
  -1125535.728 8  54944491.046 6  21144993.118 0  21144995.134 0
   8074959.783 7   6450354.992 7  23919059.434 0  23919060.472 0
  -5165645.992 7  -3805737.970 6  22948864.970 0  22948865.967 0
 88  2 26  9 36 59.0800000  0  4  3 13 11  9
 -10338782.836 7  76684732.909 7  22091259.816 0  22091260.932 0
  -1094639.315 7  54968566.169 6  21150873.622 0  21150873.866 0
   8139737.598 7   6500831.204 7  23931385.014 0  23931388.853 0
  -5048825.852 7  -3714709.273 5  22971094.718 0  22971095.526 0
 88  2 26  9 37 29.0800000  0  4  3 13 11  9
 -10378881.062 7  76653487.551 6  22083628.487 0  22083629.325 0
  -1063622.256 8  54992735.306 6  21156776.508 0  21156776.780 0
   8204472.947 7   6551274.334 7  23943704.370 0  23943706.244 0
  -4931802.204 7  -3623522.027 7  22993364.408 0  22993363.931 0
 88  2 26  9 37 59.0800000  0  4  3 13 11  9
 -10418810.129 7  76622374.012 6  22076030.808 0  22076032.582 0
  -1032485.404 7  55016997.792 6  21162700.972 0  21162702.247 0
   8269165.815 8   6601684.358 7  23956015.021 0  23956016.485 0
  -4814578.489 7  -3532178.885 6  23015670.993 0  23015671.960 0
 88  2 26  9 38 29.0800000  0  4  3 13 11  9
 -10458570.584 7  76591391.858 6  22068463.264 0  22068463.615 0
  -1001230.988 7  55041351.879 6  21168647.758 0  21168648.601 0
   8333815.901 8   6652061.046 7  23968317.893 0  23968319.562 0
  -4697158.046 7  -3440682.441 6  23038015.749 0  23038016.064 0
 88  2 26  9 38 59.0800000  0  4  3 13 11  9
 -10498163.456 7  76560540.295 6  22060929.144 0  22060931.171 0
   -969859.125 7  55065797.482 6  21174618.011 0  21174620.031 0
   8398422.911 8   6702404.172 7  23980612.282 0  23980613.749 0
  -4579544.058 7  -3349035.189 6  23060396.550 0  23060397.704 0
 88  2 26  9 39 29.0800000  0  4  3 13 11  9
 -10537589.391 7  76529818.813 7  22053427.430 0  22053428.773 0
   -938371.462 7  55090333.322 6  21180610.774 0  21180612.231 0
   8462986.860 8   6752713.742 7  23992898.105 0  23992899.377 0
  -4461740.213 7  -3257240.009 6  23082813.734 0  23082815.101 0
 88  2 26  9 39 59.0800000  0  4  3 13 11  9
 -10576848.675 7  76499227.171 7  22045956.623 0  22045957.516 0
   -906769.373 7  55114958.325 6  21186623.009 0  21186625.585 0
   8527507.602 7   6802989.632 7  24005176.180 0  24005177.198 0
  -4343750.020 6  -3165299.591 6  23105267.159 0  23105267.795 0
 88  2 26  9 40 29.0800000  0  4  3 13 11  9
 -10615942.679 8  76468764.325 7  22038517.674 0  22038518.712 0
   -875053.564 8  55139671.942 7  21192658.528 0  21192660.628 0
   8591985.113 7   6853231.846 7  24017445.239 0  24017447.447 0
  -4225576.868 7  -3073216.629 7  23127754.664 0  23127755.424 0
 88  2 26  9 40 59.0800000  0  4  3 13 11  9
 -10654872.182 8  76438429.670 6  22031108.697 0  22031111.430 0
   -843225.732 8  55164472.870 6  21198716.065 0  21198717.425 0
   8656419.114 7   6903440.158 7  24029707.296 0  24029707.794 0
  -4107223.743 7  -2980993.433 7  23150275.997 0  23150277.828 0
 88  2 26  9 41 29.0800000  0  4  3 13 11  9
 -10693637.934 7  76408222.625 7  22023731.958 0  22023733.382 0
   -811286.883 7  55189360.272 7  21204794.669 0  21204794.481 0
   8720809.704 7   6953614.630 7  24041960.536 0  24041961.099 0
  -3988694.245 7  -2888632.792 6  23172831.911 0  23172833.029 0
 88  2 26  9 41 59.0800000  0  4  3 13 11  9
 -10732240.743 8  76378142.524 6  22016386.034 0  22016388.022 0
   -779237.305 8  55214333.961 7  21210892.145 0  21210893.432 0
   8785156.562 7   7003755.042 7  24054204.969 0  24054206.515 0
  -3869992.002 7  -2796137.537 7  23195418.427 0  23195420.992 0
 88  2 26  9 42 29.0800000  0  4  3 13 11  9
 -10770680.958 8  76348189.132 7  22009071.576 0  22009072.570 0
   -747078.905 8  55239392.460 7  21217011.699 0  21217013.902 0
   8849459.701 7   7053861.355 7  24066441.838 0  24066443.500 0
  -3751120.336 7  -2703510.302 6  23218040.000 0  23218041.154 0
 88  2 26  9 42 59.0800000  0  4  3 13 11  9
 -10808959.604 6  76318361.636 7  22001787.218 0  22001788.549 0
   -714812.433 8  55264535.178 6  21223152.247 0  21223152.232 0
   8913719.283 7   7103933.743 7  24078670.708 0  24078670.902 0
  -3632082.559 7  -2610753.593 6  23240692.224 0  23240694.177 0
 88  2 26  9 43 29.0800000  0  4  3 13 11  9
 -10847077.511 8  76288659.402 7  21994534.396 0  21994535.248 0
   -682439.481 7  55289760.850 7  21229312.512 0  21229312.968 0
   8977934.930 7   7153971.913 7  24090889.859 0  24090890.944 0
  -3512882.318 7  -2517870.289 6  23263377.117 0  23263376.908 0
 88  2 26  9 43 59.0800000  0  4  3 13 11  9
 -10885035.104 7  76259082.064 7  21987310.393 0  21987311.689 0
   -649960.799 7  55315068.913 7  21235493.240 0  21235494.139 0
   9042106.659 7   7203975.839 7  24103101.156 0  24103102.141 0
  -3393522.531 7  -2424862.674 6  23286089.558 0  23286090.838 0
 88  2 26  9 44 29.0800000  0  4  3 13 12  9
 -10922833.030 7  76229629.159 7  21980117.159 0  21980118.488 0
   -617377.507 8  55340458.496 6  21241692.281 0  21241693.711 0
          .202 8         -.161 7  20982706.560 0          .000 0
  -3274006.716 7  -2331733.486 7  23308831.660 0  23308833.390 0
 88  2 26  9 44 59.0800000  0  4  3 13 12  9
 -10960472.260 7  76200299.905 6  21972955.816 0  21972956.343 0
   -584690.499 7  55365928.890 6  21247913.476 0  21247914.119 0
     47877.440 7 120385055.891 7  20991847.394 0  20991848.200 0
  -3154338.456 7  -2238485.501 7  23331604.257 0  23331605.548 0
 88  2 26  9 45 29.0800000  0  4  3 13 12  9
 -10997953.662 7  76171093.631 7  21965821.382 0  21965823.820 0
   -551901.232 7  55391478.968 7  21254152.469 0  21254153.899 0
     96338.467 8 120422817.720 6  21001068.900 0  21001069.988 0
  -3034521.302 7  -2145121.489 7  23354404.629 0  23354406.135 0
 88  2 26  9 45 59.0800000  0  4  3 13 12  9
 -11035278.092 7  76142009.671 7  21958719.840 0  21958721.395 0
   -519010.442 7  55417108.173 6  21260412.040 0  21260412.682 0
    145381.617 7 120461033.150 7  21010402.491 0  21010402.576 0
  -2914558.577 7  -2051644.029 6  23377232.640 0  23377233.811 0
 88  2 26  9 46 29.0800000  0  4  3 13 12  9
 -11072446.340 7  76113047.415 7  21951647.127 0  21951647.403 0
   -486019.192 8  55442815.635 6  21266690.542 0  21266691.728 0
    195004.935 8 120499700.668 6  21019844.900 0  21019846.082 0
  -2794453.404 7  -1958055.613 7  23400088.185 0  23400088.835 0
 88  2 26  9 46 59.0800000  0  4  3 13 12  9
 -11109459.166 7  76084206.269 7  21944603.642 0  21944605.128 0
   -452928.743 7  55468600.387 7  21272986.285 0  21272987.944 0
    245206.165 7 120538818.490 6  21029397.646 0  21029398.669 0
  -2674209.469 8  -1864359.028 6  23422969.794 0  23422969.816 0
 88  2 26  9 47 29.0800000  0  4  3 13 12  9
 -11146317.216 7  76055485.725 6  21937590.386 0  21937591.792 0
   -419739.994 7  55494461.738 6  21279302.936 0  21279305.110 0
    295983.222 7 120578385.004 6  21039059.858 0  21039061.825 0
  -2553829.721 7  -1770556.628 6  23445876.480 0  23445878.668 0
 88  2 26  9 47 59.0800000  0  4  3 13 12  9
 -11183020.935 7  76026885.436 6  21930605.882 0  21930607.025 0
   -386453.933 7  55520398.953 6  21285635.729 0  21285638.187 0
    347334.418 8 120618398.894 6  21048831.442 0  21048833.915 0
  -2433317.835 7  -1676651.261 6  23468810.515 0  23468810.466 0
 88  2 26  9 48 29.0800000  0  4  3 13 12  9
 -11219571.091 7  75998404.803 7  21923648.947 0  21923651.314 0
   -353071.092 7  55546411.553 7  21291987.649 0  21291989.177 0
    399257.627 7 120658858.527 6  21058712.010 0  21058714.266 0
  -2312677.391 7  -1582645.693 7  23491767.378 0  23491766.832 0
 88  2 26  9 48 59.0800000  0  4  3 13 12  9
 -11255968.746 7  75970043.019 7  21916723.763 0  21916726.373 0
   -319593.055 7  55572498.336 7  21298359.232 0  21298361.148 0
    451750.600 7 120699762.131 6  21068702.230 0  21068703.636 0
  -2191911.603 7  -1488542.491 6  23514748.354 0  23514748.308 0
 88  2 26  9 49 29.0800000  0  4  3 13 12  9
 -11292214.378 7  75941799.663 6  21909826.642 0  21909827.290 0
   -286020.802 7  55598658.555 7  21304748.573 0  21304749.229 0
    504811.158 7 120741108.000 6  21078798.664 0  21078801.753 0
  -2071023.722 7  -1394344.136 6  23537752.533 0  23537753.400 0
 88  2 26  9 49 59.0800000  0  4  3 13 12  9
 -11328308.782 6  75913674.161 7  21902958.243 0  21902958.833 0
   -252355.433 7  55624891.301 7  21311154.985 0  21311156.229 0
    558437.193 8 120782894.525 6  21089003.546 0  21089005.707 0
  -1950016.993 7  -1300053.191 7  23560779.507 0  23560778.716 0
 88  2 26  9 50 29.0800000  0  4  3 13 12  9
 -11364252.957 7  75885665.736 7  21896117.477 0  21896119.613 0
   -218597.716 7  55651196.017 6  21317578.081 0  21317579.826 0
    612626.840 8 120825120.215 6  21099315.331 0  21099317.639 0
  -1828895.230 7  -1205672.582 7  23583827.468 0  23583828.598 0
 88  2 26  9 50 59.0800000  0  4  3 13 12  9
 -11400047.262 7  75857774.067 7  21889305.735 0  21889307.372 0
   -184747.920 7  55677572.482 6  21324020.093 0  21324020.422 0
    667377.556 7 120867783.084 7  21109734.790 0  21109735.999 0
  -1707661.391 6  -1111204.683 6  23606896.456 0  23606898.835 0
 88  2 26  9 51 29.0800000  0  4  3 13 12  9
 -11435692.870 7  75829998.302 7  21882523.186 0  21882524.757 0
   -150807.450 8  55704019.605 6  21330477.832 0  21330479.735 0
    722687.132 8 120910881.443 7  21120259.727 0  21120260.829 0
  -1586318.903 6  -1016652.103 7  23629987.522 0  23629988.839 0
 88  2 26  9 51 59.0800000  0  4  3 13 12  9
 -11471190.476 7  75802337.823 7  21875769.413 0  21875770.047 0
   -116777.516 8  55730536.431 6  21336954.173 0  21336956.332 0
    778553.726 8 120954413.843 7  21130890.028 0  21130890.660 0
  -1464871.087 7   -922017.455 7  23653097.951 0  23653100.180 0
 88  2 26  9 52 29.0800000  0  4  3 13 12  9
 -11506540.664 7  75774792.254 6  21869041.846 0  21869043.511 0
    -82658.926 7  55757122.351 6  21343446.025 0  21343447.927 0
    834975.006 7 120998378.462 6  21141626.802 0  21141629.568 0
  -1343321.525 7   -827303.533 7  23676228.882 0  23676230.703 0
 88  2 26  9 52 59.0800000  0  4  3 13 12  9
 -11541744.386 7  75747360.781 7  21862341.317 0  21862343.387 0
    -48452.558 7  55783776.658 6  21349954.990 0  21349956.750 0
    891948.434 7 121042773.325 7  21152468.928 0  21152470.488 0
  -1221673.402 7   -732512.790 7  23699378.873 0  23699380.158 0
 88  2 26  9 53 29.0800000  0  4  3 13 12  9
 -11576802.422 7  75720042.846 6  21855670.550 0  21855672.865 0
    -14158.843 7  55810499.042 6  21356480.710 0  21356484.203 0
    949471.941 8 121087596.825 7  21163415.759 0  21163417.073 0
  -1099930.112 7   -637647.894 7  23722544.986 0  23722546.894 0
 88  2 26  9 53 59.0800000  0  4  3 13 12  9
 -11611714.950 6  75692838.291 7  21849027.616 0  21849029.023 0
     20220.473 7  55837288.129 6  21363024.348 0  21363025.220 0
   1007543.149 7 121132847.113 7  21174466.839 0  21174468.259 0
   -978094.742 7   -542711.246 7  23745729.879 0  23745732.208 0
 88  2 26  9 54 29.0800000  0  4  3 13 12  9
 -11646483.144 7  75665746.198 6  21842411.159 0  21842412.459 0
     54685.186 8  55864143.760 6  21369582.968 0  21369583.009 0
   1066159.727 8 121178522.368 7  21185620.687 0  21185622.477 0
   -856170.874 7   -447705.626 7  23768930.619 0  23768932.713 0
 88  2 26  9 54 59.0800000  0  4  3 13 12  9
 -11681107.578 7  75638766.143 6  21835822.471 0  21835823.364 0
     89233.769 7  55891064.728 6  21376156.966 0  21376158.026 0
   1125319.213 7 121224620.646 7  21196877.445 0  21196878.769 0
   -734162.045 7   -352633.824 7  23792148.183 0  23792149.552 0
 88  2 26  9 55 29.0800000  0  4  3 13 12  9
 -11715589.299 7  75611897.273 6  21829260.842 0  21829260.803 0
    123865.196 8  55918050.264 6  21382746.122 0  21382747.352 0
   1185018.929 8 121271139.898 7  21208237.365 0  21208240.756 0
   -612071.460 7   -257498.281 7  23815382.207 0  23815383.070 0
 88  2 26  9 55 59.0800000  0  4  3 13 12  9
 -11749929.200 7  75585138.915 6  21822725.306 0  21822727.585 0
    158578.682 8  55945099.731 7  21389353.220 0  21389353.963 0
   1245256.379 7 121318078.160 7  21219701.130 0  21219703.677 0
   -489903.321 7   -162302.305 6  23838629.876 0  23838630.015 0
 88  2 26  9 56 29.0800000  0  4  3 13 12  9
 -11784127.512 7  75558490.905 7  21816219.322 0  21816220.058 0
    193374.363 7  55972213.236 6  21395974.428 0  21395975.485 0
   1306029.738 8 121365434.006 7  21231266.033 0  21231267.123 0
   -367659.879 8    -67047.663 6  23861892.322 0  23861892.698 0
 88  2 26  9 56 59.0800000  0  4  3 13 12  9
 -11818185.016 7  75531952.612 6  21809737.651 0  21809737.584 0
    228251.086 8  55999389.916 7  21402611.331 0  21402612.202 0
   1367336.633 8 121413205.603 7  21242932.561 0  21242934.189 0
   -245344.489 8     28263.044 6  23885167.649 0  23885167.934 0
 88  2 26  9 57 29.0800000  0  4  3 13 12  9
 -11852102.118 7  75505523.713 6  21803283.798 0  21803283.911 0
    263207.586 8  56026628.733 7  21409263.302 0  21409264.259 0
   1429174.455 8 121461390.909 7  21254699.575 0  21254701.089 0
   -122960.093 7    123627.508 6  23908455.926 0  23908457.492 0
 88  2 26  9 57 59.0800000  0  4  3 13 12  9
 -11885880.029 7  75479203.283 6  21796855.466 0  21796855.621 0
    298243.274 7  56053929.277 6  21415929.570 0  21415930.857 0
   1491540.637 7 121509987.917 7  21266567.171 0  21266570.725 0
      -510.416 7    219042.848 6  23931757.789 0  23931758.871 0
 88  2 26  9 58 29.0800000  0  4  3 13 12  9
 -11919518.996 7  75452991.120 6  21790455.116 0  21790456.173 0
    333357.624 7  56081291.107 6  21422611.304 0  21422612.246 0
   1554432.664 7 121558994.687 7  21278535.361 0  21278537.337 0
    122001.465 7    314506.672 7  23955070.976 0  23955073.541 0
 88  2 26  9 58 59.0800000  0  4  3 13 12  9
 -11953019.757 7  75426886.650 6  21784080.300 0  21784079.402 0
    368549.668 7  56108713.485 6  21429308.563 0  21429309.806 0
   1617848.105 7 121608409.282 7  21290603.492 0  21290604.312 0
    244571.920 6    410016.112 6  23978396.113 0  23978396.005 0
 88  2 26  9 59 29.0800000  0  4  3 13 12  9
 -11986383.415 8  75400889.025 6  21777731.226 0  21777730.851 0
    403818.269 7  56136195.513 6  21436018.788 0  21436021.249 0
   1681784.498 7 121658229.829 7  21302768.956 0  21302772.668 0
    367197.904 6    505568.820 6  24001729.731 0  24001732.002 0
 88  2 26  9 59 59.0800000  0  4  3 13 12  9
 -12019610.338 7  75374997.924 7  21771407.600 0  21771409.529 0
    439162.940 7  56163736.811 6  21442746.641 0  21442747.514 0
   1746239.108 8 121708454.197 7  21315033.609 0  21315037.686 0
    489875.981 6    601162.136 6  24025073.806 0  24025077.379 0
 88  2 26 10  0 29.0800000  0  4  3 13 12  9
 -12052701.400 7  75349212.695 6  21765111.111 0  21765110.608 0
    474583.229 8  56191337.043 7  21449486.329 0  21449486.971 0
   1811209.491 8 121759080.457 7  21327399.247 0  21327400.303 0
    612602.818 6    696793.431 6  24048429.291 0  24048430.015 0
 88  2 26 10  0 59.0800000  0  4  3 13 12  9
 -12085656.822 7  75323533.153 6  21758838.957 0  21758840.143 0
    510078.100 7  56218995.379 7  21456241.139 0  21456241.967 0
   1876692.561 7 121810106.207 6  21339859.626 0  21339861.412 0
    735375.675 6    792460.580 6  24071791.869 0  24071792.125 0
 88  2 26 10  1 29.0800000  0  4  3 13 12  9
 -12118477.716 8  75297958.452 7  21752594.175 0  21752594.108 0
    545647.329 7  56246711.653 7  21463009.231 0  21463010.188 0
   1942686.070 7 121861529.694 7  21352418.255 0  21352420.176 0
    858190.708 7    888160.597 6  24095164.235 0  24095164.159 0
 88  2 26 10  1 59.0800000  0  4  3 13 12  9
 -12151164.906 7  75272487.929 6  21746374.900 0  21746374.675 0
    581289.897 8  56274485.091 6  21469791.087 0  21469793.290 0
   2009187.569 8 121913349.043 7  21365071.409 0  21365076.322 0
    981044.650 7    983890.962 7  24118541.154 0  24118543.095 0
 88  2 26 10  2 29.0800000  0  4  3 13 12  9
 -12183718.859 7  75247121.221 6  21740178.685 0  21740180.385 0
    617004.743 8  56302314.850 7  21476588.655 0  21476589.956 0
   2076194.252 8 121965562.031 7  21377823.508 0  21377824.714 0
   1103934.629 7   1079649.389 6  24141925.841 0  24141928.308 0
 88  2 26 10  2 59.0800000  0  4  3 13 12  9
 -12216140.356 7  75221857.734 7  21734009.791 0  21734008.908 0
    652790.937 7  56330200.191 7  21483397.956 0  21483398.412 0
   2143703.569 7 122018166.655 7  21390669.080 0  21390672.830 0
   1226857.080 8   1175433.118 7  24165317.776 0  24165318.852 0
 88  2 26 10  3 29.0800000  0  4  3 13 12  9
 -12248430.119 7  75196696.890 7  21727864.523 0  21727865.829 0
    688648.457 7  56358141.105 6  21490221.537 0  21490221.635 0
   2211712.388 7 122071160.543 6  21403611.601 0  21403613.423 0
   1349808.836 7   1271239.695 6  24188714.531 0  24188715.956 0
 88  2 26 10  3 59.0800000  0  4  3 13 12  9
 -12280588.510 8  75171638.399 6  21721745.582 0  21721746.517 0
    724576.735 8  56386137.168 6  21497058.541 0  21497059.887 0
   2280218.636 8 122124542.002 7  21416648.353 0  21416650.712 0
   1472786.976 7   1367066.821 7  24212115.277 0  24212117.914 0
 88  2 26 10  4 29.0800000  0  4  3 13 12  9
 -12312616.189 7  75146681.773 6  21715651.413 0  21715651.497 0
    760574.996 7  56414187.763 7  21503909.010 0  21503909.696 0
   2349219.331 6 122178308.769 6  21429779.410 0  21429780.222 0
   1595788.082 7   1462911.846 7  24235522.866 0  24235524.302 0
 88  2 26 10  4 59.0800000  0  4  3 13 12  9
 -12344513.919 7  75121826.428 7  21709580.488 0  21709580.630 0
    796642.146 7  56442292.038 7  21510772.485 0  21510773.901 0
   2418711.381 7 122232458.390 6  21443001.835 0  21443004.374 0
   1718808.985 7   1558772.303 7  24258932.064 0  24258933.654 0
 88  2 26 10  5 29.0800000  0  4  3 13 12  9
 -12376282.275 7  75097071.855 6  21703534.456 0  21703535.767 0
    832777.532 8  56470449.471 7  21517648.640 0  21517650.328 0
   2488691.902 7 122286988.655 6  21456319.433 0  21456322.313 0
   1841846.456 7   1654645.672 7  24282346.731 0  24282347.567 0
 88  2 26 10  5 59.0800000  0  4  3 13 12  9
 -12407922.257 7  75072417.328 7  21697514.376 0  21697514.889 0
    868980.507 7  56498659.567 6  21524538.258 0  21524539.746 0
   2559158.477 8 122341897.673 6  21469729.086 0  21469730.481 0
   1964897.100 7   1750529.286 7  24305762.197 0  24305763.199 0
 88  2 26 10  6 29.0800000  0  4  3 13 12  9
 -12439434.392 7  75047862.425 6  21691517.116 0  21691518.781 0
    905250.698 8  56526922.060 7  21531439.810 0  21531441.413 0
   2630108.340 8 122397183.258 7  21483230.286 0  21483232.339 0
   2087957.956 7   1846420.885 6  24329182.237 0  24329181.111 0
 88  2 26 10  6 59.0800000  0  4  3 13 12  9
 -12470819.229 7  75023406.702 6  21685545.297 0  21685547.218 0
    941587.307 8  56555236.305 7  21538353.455 0  21538355.955 0
   2701538.397 7 122452843.017 7  21496823.277 0  21496825.736 0
   2211025.713 6   1942317.824 7  24352599.263 0  24352600.383 0
 88  2 26 10  7 29.0800000  0  4  3 13 12  9
 -12502077.260 7  74999049.822 7  21679596.652 0  21679597.823 0
    977990.241 7  56583602.230 6  21545281.478 0  21545283.408 0
   2773445.852 7 122508874.787 7  21510506.378 0  21510509.304 0
   2334097.199 7   2038217.685 6  24376018.345 0  24376019.111 0
 88  2 26 10  7 59.0800000  0  4  3 13 12  9
 -12533209.388 7  74974791.009 7  21673672.473 0  21673674.346 0
   1014458.731 7  56612019.225 7  21552220.794 0  21552222.796 0
   2845827.638 7 122565276.161 7  21524279.130 0  21524282.382 0
   2457169.375 6   2134118.080 6  24399439.017 0  24399439.398 0
 88  2 26 10  8 29.0800000  0  4  3 13 12  9
 -12564215.909 7  74950630.081 6  21667773.167 0  21667773.251 0
   1050991.818 8  56640486.572 7  21559173.444 0  21559174.143 0
   2918681.822 7 122622045.653 6  21538144.706 0  21538145.518 0
   2580238.784 6   2230016.321 6  24422858.059 0  24422858.576 0
 88  2 26 10  8 59.0800000  0  4  3 13 12  9
 -12595097.749 7  74926566.336 6  21661895.336 0  21661896.327 0
   1087589.220 8  56669004.035 7  21566137.642 0  21566138.971 0
   2992004.969 8 122679180.559 6  21552096.642 0  21552098.632 0
   2703302.432 5   2325910.089 6  24446276.479 0  24446277.039 0
 88  2 26 10  9 29.0800000  0  4  3 13 12  9
 -12625855.292 8  74902599.429 6  21656043.099 0  21656044.492 0
   1124250.371 7  56697571.166 7  21573113.960 0  21573115.190 0
   3065794.383 7 122736678.775 7  21566139.108 0  21566139.608 0
   2826356.996 6   2421796.775 6  24469691.885 0  24469693.925 0
 88  2 26 10  9 59.0800000  0  4  3 13 12  9
 -12656488.954 8  74878729.048 6  21650213.714 0  21650215.169 0
   1160974.613 7  56726187.463 7  21580102.456 0  21580104.028 0
   3140046.398 8 122794537.492 7  21580268.190 0  21580270.675 0
   2949399.519 6   2517674.058 6  24493107.725 0  24493108.153 0
 88  2 26 10 10 29.0800000  0  4  3 13 12  9
 -12686999.760 7  74854954.413 7  21644408.775 0  21644408.566 0
   1197761.603 8  56754852.645 7  21587102.554 0  21587103.942 0
   3214758.564 7 122852754.738 7  21594485.913 0  21594487.839 0
   3072426.251 7   2613539.060 6  24516518.113 0  24516519.617 0
 88  2 26 10 10 59.0800000  0  4  3 13 12  9
 -12717388.590 7  74831274.802 6  21638623.777 0  21638625.578 0
   1234610.044 7  56783565.706 7  21594114.832 0  21594115.847 0
   3289927.990 7 122911328.295 6  21608789.620 0  21608791.737 0
   3195434.950 7   2709390.011 6  24539926.984 0  24539926.048 0
 88  2 26 10 11 29.0800000  0  4  3 13 12  9
 -12747655.717 7  74807690.051 6  21632864.513 0  21632865.398 0
   1271519.691 8  56812326.467 7  21601138.256 0  21601139.514 0
   3365551.455 7 122970255.639 7  21623179.580 0  21623183.279 0
   3318421.919 7   2805224.007 7  24563329.469 0  24563331.101 0
 88  2 26 10 11 59.0800000  0  4  3 13 12  9
 -12777801.451 7  74784199.874 7  21627128.373 0  21627130.333 0
   1308490.805 7  56841135.126 7  21608174.759 0  21608175.030 0
   3441626.257 7 123029534.695 7  21637657.220 0  21637658.024 0
   3441384.290 7   2901038.864 7  24586727.874 0  24586729.659 0
 88  2 26 10 12 29.0800000  0  4  3 13 12  9
 -12807826.329 7  74760803.887 6  21621415.643 0  21621416.178 0
   1345522.288 7  56869990.822 7  21615219.174 0  21615222.449 0
   3518149.014 8 123089162.804 6  21652218.643 0  21652221.154 0
   3564318.881 7   2996832.095 6  24610122.287 0  24610123.536 0
 88  2 26 10 12 59.0800000  0  4  3 13 12  9
 -12837731.144 7  74737501.432 7  21615723.962 0  21615725.177 0
   1382613.566 7  56898893.115 7  21622278.685 0  21622280.144 0
   3595116.860 7 123149137.727 7  21666865.129 0  21666866.646 0
   3687222.716 7   3092601.296 7  24633508.809 0  24633511.453 0
 88  2 26 10 13 29.0800000  0  4  3 13 12  9
 -12867516.662 7  74714291.962 7  21610056.320 0  21610057.118 0
   1419764.247 7  56927841.700 7  21629347.998 0  21629349.914 0
   3672526.619 7 123209457.005 7  21681595.353 0  21681598.586 0
   3810092.369 7   3188343.914 7  24656891.668 0  24656890.670 0
 88  2 26 10 13 59.0800000  0  4  3 13 12  9
 -12897183.246 7  74691175.161 7  21604411.359 0  21604413.367 0
   1456973.706 7  56956836.087 7  21636429.103 0  21636429.476 0
   3750375.882 8 123270118.747 7  21696409.583 0  21696412.661 0
   3932924.775 7   3284057.492 7  24680264.814 0  24680265.859 0
 88  2 26 10 14 29.0800000  0  4  3 13 12  9
 -12926731.657 8  74668150.438 7  21598787.246 0  21598788.745 0
   1494241.373 7  56985875.810 6  21643520.438 0  21643522.255 0
   3828661.317 7 123331120.363 7  21711307.670 0  21711309.655 0
   4055716.891 7   3379739.674 7  24703632.488 0  24703633.728 0
 88  2 26 10 14 59.0800000  0  4  3 13 12  9
 -12956162.541 7  74645217.283 6  21593187.573 0  21593188.994 0
   1531567.482 8  57014961.101 7  21650623.908 0  21650625.023 0
   3907379.831 7 123392459.464 6  21726286.000 0  21726288.751 0
   4178465.667 7   3475388.085 6  24726990.124 0  24726991.299 0
 88  2 26 10 15 29.0800000  0  4  3 13 12  9
 -12985476.081 7  74622375.587 7  21587609.083 0  21587610.171 0
   1568951.178 7  57044091.236 7  21657736.994 0  21657739.667 0
   3986528.464 8 123454133.703 6  21741348.208 0  21741350.111 0
   4301168.258 6   3571000.492 7  24750339.889 0  24750340.921 0
 88  2 26 10 15 59.0800000  0  4  3 13 12  9
 -13014673.002 8  74599624.752 6  21582053.282 0  21582054.447 0
   1606392.165 7  57073266.030 7  21664862.528 0  21664863.672 0
   4066103.800 7 123516140.444 7  21756490.858 0  21756493.640 0
   4423821.132 6   3666574.149 6  24773679.211 0  24773681.017 0
 88  2 26 10 16 29.0800000  0  4  3 13 12  9
 -13043753.573 7  74576964.562 7  21576520.083 0  21576520.137 0
   1643889.874 7  57102485.029 7  21671998.265 0  21671999.236 0
   4146103.097 7 123578477.554 7  21771713.961 0  21771716.830 0
   4546421.672 6   3762107.014 7  24797010.317 0  24797011.577 0
 88  2 26 10 16 59.0800000  0  4  3 13 12  9
 -13072718.733 7  74554394.336 7  21571007.374 0  21571008.567 0
   1681444.046 6  57131748.013 7  21679143.675 0  21679145.675 0
   4226522.928 7 123641142.345 7  21787016.988 0  21787020.996 0
   4668966.774 5   3857596.667 7  24820328.405 0  24820331.333 0
 88  2 26 10 17 29.0800000  0  4  3 13 12  9
 -13101568.899 7  74531913.692 7  21565517.388 0  21565519.053 0
   1719054.002 7  57161054.468 6  21686301.304 0  21686302.675 0
   4307360.006 7 123704132.259 6  21802400.953 0  21802403.237 0
   4791453.138 5   3953040.529 7  24843638.705 0  24843639.786 0
 88  2 26 10 17 59.0800000  0  4  3 13 12  9
 -13130304.743 7  74509522.120 7  21560050.339 0  21560050.507 0
   1756719.683 7  57190404.343 7  21693468.420 0  21693470.208 0
   4388611.655 7 123767445.203 7  21817862.054 0  21817863.915 0
   4913877.871 6   4048436.434 6  24866936.384 0  24866934.901 0
 88  2 26 10 18 29.0800000  0  4  3 13 12  9
 -13158926.822 7  74487219.208 7  21554603.280 0  21554604.079 0
   1794440.200 7  57219796.952 7  21700646.885 0  21700648.730 0
   4470274.406 8 123831078.520 7  21833402.775 0  21833403.778 0
   5036237.649 6   4143781.695 6  24890218.771 0  24890220.256 0
 88  2 26 10 18 59.0800000  0  4  3 13 12  9
 -13187435.382 7  74465004.754 6  21549177.515 0  21549178.670 0
   1832216.041 7  57249232.659 7  21707834.806 0  21707836.180 0
   4552344.879 8 123895029.525 7  21849020.331 0  21849021.148 0
   5158529.849 6   4239074.294 6  24913490.469 0  24913491.760 0
 88  2 26 10 19 29.0800000  0  4  3 13 12  9
 -13215830.773 7  74442878.487 7  21543774.398 0  21543774.841 0
   1870046.191 7  57278710.702 7  21715034.263 0  21715035.021 0
   4634820.264 8 123959296.040 7  21864713.603 0  21864715.682 0
   5280751.325 7   4334311.816 6  24936748.851 0  24936750.345 0
 88  2 26 10 19 59.0800000  0  4  3 13 12  9
 -13244113.820 7  74420839.755 7  21538392.477 0  21538393.197 0
   1907930.375 7  57308230.842 7  21722243.492 0  21722244.219 0
   4717696.888 8 124023875.222 7  21880485.364 0  21880486.710 0
   5402898.974 7   4429491.857 5  24959992.384 0  24959993.648 0
 88  2 26 10 20 29.0800000  0  3  3 13 12
 -13272285.063 1  74398888.153 1  21533033.801 0  21533031.433 0
   1945868.469 7  57337792.975 7  21729461.635 0  21729463.493 0
   4800971.727 7 124088764.686 7  21896332.062 0  21896334.295 0
 88  2 26 10 20 59.0800000  0  3  3 13 12
 -13300344.503 1  74377023.652 1  21527692.876 0  21527691.746 0
   1983860.158 7  57367396.877 7  21736691.741 0  21736693.784 0
   4884642.073 7 124153962.346 7  21912252.925 0  21912255.568 0
 88  2 26 10 21 29.0800000  0  3  3 13 12
 -13328293.072 7  74355245.562 7  21522373.670 0  21522374.275 0
   2021905.070 7  57397042.255 6  21743932.034 0  21743933.493 0
   4968704.083 7 124219465.197 7  21928250.280 0  21928252.999 0
 88  2 26 10 21 59.0800000  0  3  3 13 12
 -13356131.084 7  74333553.617 7  21517075.892 0  21517077.027 0
   2060002.646 7  57426728.673 7  21751180.556 0  21751183.016 0
   5053154.734 8 124285270.882 7  21944320.700 0  21944322.966 0
 88  2 26 10 22 29.0800000  0  3  3 13 12
 -13383859.170 7  74311947.322 7  21511799.198 0  21511799.753 0
   2098152.413 7  57456455.759 7  21758440.626 0  21758442.898 0
   5137991.324 7 124351377.320 7  21960465.744 0  21960466.116 0
 88  2 26 10 22 59.0800000  0  3  3 13 12
 -13411477.534 7  74290426.531 7  21506543.510 0  21506545.283 0
   2136354.368 7  57486223.523 7  21765709.937 0  21765711.969 0
   5223210.396 7 124417781.769 7  21976681.729 0  21976683.324 0
 88  2 26 10 23 29.0800000  0  3  3 13 12
 -13438986.944 7  74268990.645 7  21501308.442 0  21501310.765 0
   2174608.210 7  57516031.699 7  21772990.198 0  21772991.712 0
   5308808.226 7 124484481.362 7  21992969.044 0  21992972.020 0
 88  2 26 10 23 59.0800000  0  3  3 13 12
 -13466387.744 7  74247639.389 6  21496093.692 0  21496096.790 0
   2212914.250 7  57545880.559 7  21780280.589 0  21780280.844 0
   5394781.620 8 124551473.613 7  22009331.158 0  22009332.880 0
 88  2 26 10 24 29.0800000  0  3  3 13 12
 -13493680.621 7  74226372.228 7  21490901.118 0  21490902.490 0
   2251271.767 7  57575769.533 7  21787578.605 0  21787580.564 0
   5481127.272 7 124618755.908 7  22025761.078 0  22025763.028 0
 88  2 26 10 24 59.0800000  0  3  3 13 12
 -13520865.515 7  74205189.195 6  21485727.586 0  21485728.736 0
   2289680.479 7  57605698.383 7  21794887.870 0  21794889.071 0
   5567842.055 7 124686325.854 7  22042262.220 0  22042264.535 0
 88  2 26 10 25 29.0800000  0  3  3 13 12
 -13547943.115 7  74184089.778 6  21480574.746 0  21480576.196 0
   2328139.914 7  57635666.776 7  21802206.722 0  21802207.964 0
   5654922.502 7 124754180.711 7  22058834.203 0  22058835.367 0
 88  2 26 10 25 59.0800000  0  3  3 13 12
 -13574913.780 7  74163073.685 6  21475443.185 0  21475442.903 0
   2366650.180 7  57665674.769 6  21809534.888 0  21809536.046 0
   5742365.298 7 124822317.930 7  22075473.013 0  22075475.654 0
 88  2 26 10 26 29.0800000  0  3  3 13 12
 -13601778.006 7  74142140.530 6  21470331.004 0  21470331.553 0
   2405210.948 7  57695722.116 6  21816872.814 0  21816874.259 0
   5830167.296 7 124890735.072 7  22092181.469 0  22092183.095 0
 88  2 26 10 26 59.0800000  0  3  3 13 12
 -13628535.900 7  74121290.235 7  21465239.150 0  21465240.443 0
   2443821.789 7  57725808.489 6  21824219.668 0  21824221.055 0
   5918325.344 7 124959429.635 7  22108956.971 0  22108959.970 0
 88  2 26 10 27 29.0800000  0  3  3 13 12
 -13655188.138 7  74100522.275 7  21460167.715 0  21460168.285 0
   2482482.500 7  57755933.709 6  21831576.783 0  21831578.842 0
   6006835.552 7 125028398.613 7  22125800.658 0  22125802.837 0
 88  2 26 10 27 59.0800000  0  3  3 13 12
 -13681734.934 7  74079836.464 6  21455116.049 0  21455116.890 0
   2521193.109 7  57786097.807 6  21838943.342 0  21838945.871 0
   6095694.825 7 125097639.591 7  22142709.492 0  22142712.015 0
 88  2 26 10 28 29.0800000  0  3  3 13 12
 -13708176.809 7  74059232.418 6  21450084.178 0  21450084.921 0
   2559953.613 7  57816300.809 6  21846319.959 0  21846320.573 0
   6184900.073 7 125167150.151 6  22159684.312 0  22159686.939 0
 88  2 26 10 28 59.0800000  0  3  3 13 12
 -13734514.096 7  74038709.859 6  21445071.724 0  21445072.088 0
   2598763.947 7  57846542.638 7  21853704.459 0  21853706.204 0
   6274447.843 7 125236927.626 7  22176725.319 0  22176727.724 0
 88  2 26 10 29 29.0800000  0  3  3 13 12
 -13760747.676 7  74018268.102 7  21440079.556 0  21440080.727 0
   2637624.065 7  57876823.232 7  21861099.695 0  21861100.223 0
   6364334.387 8 125306969.088 6  22193829.543 0  22193832.567 0
 88  2 26 10 29 59.0800000  0  3  3 13 12
 -13786877.254 7  73997907.404 6  21435107.719 0  21435107.238 0
   2676533.003 8  57907141.884 7  21868504.115 0  21868503.942 0
   6454556.394 8 125377271.916 6  22210998.564 0  22211001.482 0
 88  2 26 10 30 29.0800000  0  3  3 13 12
 -13812902.991 7  73977627.618 7  21430154.643 0  21430155.608 0
   2715491.099 8  57937498.844 7  21875917.621 0  21875916.418 0
   6545110.998 7 125447833.940 6  22228231.060 0  22228232.834 0
 88  2 26 10 30 59.0800000  0  3  3 13 12
 -13838825.712 7  73957428.095 7  21425221.700 0  21425223.286 0
   2754497.813 7  57967893.680 6  21883341.002 0  21883340.744 0
   6635994.482 7 125518652.236 6  22245526.374 0  22245526.704 0
 88  2 26 10 31 29.0800000  0  3  3 13 12
 -13864645.737 7  73937308.619 6  21420308.196 0  21420308.336 0
   2793553.784 7  57998326.902 6  21890771.837 0  21890773.453 0
   6727203.032 7 125589723.816 6  22262880.888 0  22262884.275 0
 88  2 26 10 31 59.0800000  0  3  3 13 12
 -13890363.272 7  73917268.982 6  21415415.826 0  21415415.308 0
   2832658.913 7  58028798.426 7  21898213.417 0  21898215.092 0
   6818733.825 8 125661046.507 7  22280300.370 0  22280301.246 0
 88  2 26 10 32 29.0800000  0  3  3 13 12
 -13915978.617 7  73897308.972 6  21410540.748 0  21410539.242 0
   2871812.440 7  58059307.666 6  21905664.874 0  21905665.315 0
   6910583.629 8 125732617.759 7  22297777.771 0  22297779.332 0
 88  2 26 10 32 59.0800000  0  3  3 13 12
 -13941492.357 8  73877428.143 6  21405684.624 0  21405685.429 0
   2911014.234 7  58089854.524 7  21913124.312 0  21913125.012 0
   7002748.524 7 125804434.562 7  22315314.935 0  22315317.056 0
 88  2 26 10 33 29.0800000  0  3  3 13 12
 -13966904.946 7  73857626.136 6  21400849.798 0  21400850.260 0
   2950264.602 7  58120439.216 6  21920592.866 0  21920594.639 0
   7095225.370 7 125876494.420 7  22332914.385 0  22332916.084 0
 88  2 26 10 33 59.0800000  0  3  3 13 12
 -13992216.383 8  73837902.940 6  21396033.181 0  21396034.489 0
   2989563.264 7  58151061.562 7  21928070.807 0  21928072.624 0
   7188010.344 7 125948794.397 6  22350569.936 0  22350572.469 0
 88  2 26 10 34 29.0800000  0  3  3 13 12
 -14017426.789 7  73818258.480 7  21391235.647 0  21391237.183 0
   3028910.759 7  58181721.919 6  21935559.279 0  21935560.794 0
   7281100.436 7 126021332.105 7  22368285.035 0  22368287.407 0
 88  2 26 10 34 59.0800000  0  3  3 13 12
 -14042536.644 7  73798692.350 7  21386457.471 0  21386458.620 0
   3068305.756 7  58212419.330 7  21943055.895 0  21943056.237 0
   7374491.965 7 126094104.717 7  22386057.278 0  22386058.426 0
 88  2 26 10 35 29.0800000  0  3  3 13 12
 -14067546.075 6  73779204.496 7  21381698.627 0  21381698.724 0
   3107749.523 7  58243154.719 7  21950561.337 0  21950563.125 0
   7468181.389 8 126167109.445 7  22403885.055 0  22403887.688 0
 88  2 26 10 35 59.0800000  0  3  3 13 12
 -14092455.686 7  73759794.421 6  21376958.135 0  21376958.698 0
   3147241.820 7  58273927.930 6  21958076.440 0  21958077.768 0
   7562165.756 7 126240343.981 7  22421768.910 0  22421772.728 0
 88  2 26 10 36 29.0800000  0  3  3 13 12
 -14117265.458 7  73740462.137 6  21372237.369 0  21372237.201 0
   3186782.244 7  58304738.653 7  21965601.158 0  21965601.284 0
   7656441.064 7 126313805.275 7  22439710.713 0  22439712.578 0
 88  2 26 10 36 59.0800000  0  3  3 13 12
 -14141975.567 7  73721207.517 6  21367534.180 0  21367534.928 0
   3226371.033 7  58335587.059 7  21973133.946 0  21973135.304 0
   7751004.126 7 126387490.760 7  22457704.773 0  22457707.208 0
 88  2 26 10 37 29.0800000  0  3  3 13 12
 -14166586.317 7  73702030.307 7  21362851.434 0  21362851.830 0
   3266008.164 7  58366473.128 6  21980676.650 0  21980678.195 0
   7845851.190 8 126461397.564 6  22475754.067 0  22475755.236 0
 88  2 26 10 37 59.0800000  0  3  3 13 12
 -14191097.612 7  73682930.603 6  21358186.393 0  21358186.950 0
   3305693.264 7  58397396.582 7  21988228.886 0  21988229.841 0
   7940979.478 8 126535523.508 7  22493855.961 0  22493857.416 0
 88  2 26 10 38 29.0800000  0  3  3 13 12
 -14215510.300 7  73663907.731 7  21353541.344 0  21353541.012 0
   3345426.613 8  58428357.638 6  21995790.421 0  21995790.933 0
   8036384.849 7 126609865.335 7  22512010.599 0  22512012.305 0
 88  2 26 10 38 59.0800000  0  3  3 13 12
 -14239824.708 7  73644961.456 7  21348914.567 0  21348915.601 0
   3385207.934 7  58459356.048 7  22003359.539 0  22003361.099 0
   8132064.009 7 126684420.511 6  22530217.476 0  22530219.948 0
 88  2 26 10 39 29.0800000  0  3  3 13 12
 -14264040.709 7  73626091.852 6  21344306.214 0  21344306.804 0
   3425037.376 7  58490391.982 7  22010939.604 0  22010940.619 0
   8228013.723 7 126759186.488 7  22548475.565 0  22548479.093 0
 88  2 26 10 39 59.0800000  0  3  3 13 12
 -14288158.815 7  73607298.530 7  21339716.825 0  21339716.614 0
   3464915.447 7  58521465.800 7  22018527.541 0  22018529.959 0
   8324230.487 7 126834160.566 7  22566786.288 0  22566789.062 0
 88  2 26 10 40 29.0800000  0  3  3 13 12
 -14312179.003 7  73588581.512 6  21335145.919 0  21335146.516 0
   3504841.864 7  58552577.299 6  22026126.494 0  22026126.249 0
   8420710.563 7 126909339.837 6  22585145.928 0  22585148.560 0
 88  2 26 10 40 59.0800000  0  3  3 13 12
 -14336101.255 7  73569940.804 6  21330593.466 0  21330594.829 0
   3544816.936 7  58583726.680 6  22033732.989 0  22033734.333 0
   8517450.472 7 126984721.577 7  22603554.635 0  22603557.422 0
 88  2 26 10 41 29.0800000  0  3  3 13 12
 -14359925.565 7  73551376.397 6  21326060.392 0  21326060.067 0
   3584840.496 7  58614913.871 7  22041348.427 0  22041349.771 0
   8614446.914 8 127060303.201 7  22622012.179 0  22622014.108 0
 88  2 26 10 41 59.0800000  0  3  3 13 12
 -14383652.890 7  73532887.576 6  21321544.309 0  21321545.574 0
   3624912.344 7  58646138.685 7  22048973.996 0  22048974.195 0
   8711696.321 7 127136081.962 7  22640518.436 0  22640520.542 0
 88  2 26 10 42 29.0800000  0  3  3 13 12
 -14407283.165 7  73514474.396 7  21317048.469 0  21317048.610 0
   3665032.875 7  58677401.423 6  22056607.764 0  22056609.609 0
   8809194.838 7 127212054.805 6  22659071.358 0  22659074.625 0
 88  2 26 10 42 59.0800000  0  3  3 13 12
 -14430815.956 7  73496137.148 6  21312569.027 0  21312571.148 0
   3705202.285 7  58708702.262 7  22064253.781 0  22064254.151 0
   8906939.556 7 127288219.552 6  22677671.329 0  22677674.304 0
 88  2 26 10 43 29.0800000  0  3  3 13 12
 -14454251.598 7  73477875.627 7  21308109.954 0  21308111.031 0
   3745420.746 7  58740041.317 7  22071906.509 0  22071908.025 0
   9004926.852 7 127364573.288 6  22696318.251 0  22696320.352 0
 88  2 26 10 43 59.0800000  0  3  3 13 12
 -14477590.614 7  73459689.381 6  21303670.133 0  21303669.660 0
   3785688.082 7  58771418.459 7  22079569.068 0  22079570.711 0
   9103153.039 7 127441113.158 6  22715009.922 0  22715013.041 0
 88  2 26 10 44 29.0800000  0  3  3 13 12
 -14500832.878 8  73441578.529 6  21299245.469 0  21299246.845 0
   3826004.255 7  58802833.648 7  22087239.795 0  22087240.237 0
   9201614.409 8 127517836.309 6  22733747.803 0  22733749.449 0
 88  2 26 10 44 59.0800000  0  3  3 13 12
 -14523978.475 7  73423543.002 7  21294841.749 0  21294842.999 0
   3866369.794 7  58834287.300 7  22094921.557 0  22094923.416 0
   9300307.599 8 127594740.084 7  22752528.327 0  22752529.644 0
 88  2 26 10 45 29.0800000  0  3  3 13 12
 -14547027.617 7  73405582.650 6  21290455.975 0  21290456.043 0
   3906784.843 7  58865779.557 7  22102612.448 0  22102614.034 0
   9399228.962 7 127671821.660 7  22771352.260 0  22771354.772 0
 88  2 26 10 45 59.0800000  0  3  3 13 12
 -14569980.776 8  73387697.079 6  21286087.007 0  21286087.834 0
   3947248.954 7  58897310.031 7  22110313.226 0  22110313.896 0
   9498375.320 8 127749078.570 7  22790219.159 0  22790221.346 0
 88  2 26 10 46 29.0800000  0  3  3 13 12
 -14592837.553 7  73369886.592 6  21281738.493 0  21281738.956 0
   3987762.530 7  58928879.052 7  22118022.962 0  22118023.345 0
   9597742.982 7 127826507.896 6  22809127.738 0  22809129.420 0
 88  2 26 10 46 59.0800000  0  3  3 13 12
 -14615597.892 7  73352151.259 6  21277406.249 0  21277408.280 0
   4028326.040 7  58960486.960 7  22125742.227 0  22125742.841 0
   9697328.602 7 127904107.073 7  22828077.662 0  22828080.814 0
 88  2 26 10 47 29.0800000  0  3  3 13 12
 -14638261.694 6  73334491.175 7  21273094.940 0  21273095.346 0
   4068939.462 7  58992133.773 7  22133469.607 0  22133471.150 0
   9797128.285 8 127981873.069 7  22847069.531 0  22847072.398 0
 88  2 26 10 47 59.0800000  0  3  3 13 12
 -14660829.838 7  73316905.625 6  21268800.023 0  21268800.693 0
   4109603.089 7  59023819.711 7  22141207.631 0  22141209.877 0
   9897139.050 7 128059803.529 7  22866100.847 0  22866102.553 0
 88  2 26 10 48 29.0800000  0  3  3 13 12
 -14683301.949 7  73299394.881 6  21264523.128 0  21264522.909 0
   4150317.168 7  59055544.959 7  22148955.401 0  22148956.757 0
   9997357.138 7 128137895.509 7  22885171.877 0  22885174.238 0
 88  2 26 10 48 59.0800000  0  3  3 13 12
 -14705677.928 7  73281959.042 7  21260264.762 0  21260265.396 0
   4191082.083 6  59087309.820 7  22156713.115 0  22156714.487 0
  10097778.964 7 128216146.237 7  22904280.678 0  22904283.986 0
 88  2 26 10 49 29.0800000  0  3  3 13 12
 -14727957.972 7  73264597.959 7  21256025.098 0  21256026.191 0
   4231897.439 7  59119113.999 6  22164480.058 0  22164482.146 0
  10198400.867 7 128294552.923 7  22923428.074 0  22923431.160 0
 88  2 26 10 49 59.0800000  0  3  3 13 12
 -14750142.261 7  73247311.526 7  21251803.787 0  21251804.656 0
   4272763.577 7  59150957.728 7  22172255.688 0  22172258.248 0
  10299219.209 7 128373112.646 7  22942613.980 0  22942615.758 0
 88  2 26 10 50 29.0800000  0  3  3 13 12
 -14772230.349 7  73230100.037 6  21247600.398 0  21247601.240 0
   4313681.134 7  59182841.535 6  22180042.335 0  22180043.879 0
  10400230.917 7 128451823.056 6  22961836.808 0  22961839.019 0
 88  2 26 10 50 59.0800000  0  3  3 13 12
 -14794222.397 7  73212963.386 7  21243415.330 0  21243415.436 0
   4354650.422 7  59214765.650 7  22187839.156 0  22187840.844 0
  10501432.242 7 128530681.232 7  22981094.755 0  22981096.720 0
 88  2 26 10 51 29.0800000  0  3  3 13 12
 -14816118.669 7  73195901.350 6  21239250.034 0  21239249.009 0
   4395671.754 7  59246730.317 7  22195644.334 0  22195646.994 0
  10602819.982 7 128609684.672 7  23000388.605 0  23000390.100 0
 88  2 26 10 51 59.0800000  0  3  3 13 12
 -14837919.322 7  73178913.832 7  21235100.783 0  21235100.867 0
   4436744.584 7  59278735.131 7  22203461.203 0  22203462.161 0
  10704390.560 7 128688830.584 8  23019716.746 0  23019718.597 0
 88  2 26 10 52 29.0800000  0  3  3 13 12
 -14859623.905 7  73162001.162 7  21230970.184 0  21230971.785 0
   4477869.534 7  59310780.533 7  22211286.772 0  22211288.946 0
  10806140.249 8 128768116.051 7  23039078.232 0  23039080.168 0
 88  2 26 10 52 59.0800000  0  3  3 13 12
 -14881232.139 7  73145163.577 7  21226858.432 0  21226859.643 0
   4519046.708 7  59342866.623 6  22219122.228 0  22219124.202 0
  10908065.522 7 128847538.340 7  23058474.536 0  23058476.393 0
 88  2 26 10 53 29.0800000  0  3  3 13 12
 -14902744.707 7  73128400.550 6  21222764.234 0  21222765.656 0
   4560276.732 7  59374993.910 7  22226969.133 0  22226969.817 0
  11010162.774 7 128927094.618 6  23077902.521 0  23077903.816 0
 88  2 26 10 53 59.0800000  0  3  3 13 12
 -14924161.527 7  73111712.133 6  21218689.984 0  21218689.962 0
   4601559.250 7  59407162.106 7  22234823.690 0  22234825.134 0
  11112428.800 8 129006782.438 7  23097362.780 0  23097364.550 0
 88  2 26 10 54 29.0800000  0  3  3 13 12
 -14945482.211 8  73095098.591 7  21214631.820 0  21214633.184 0
   4642895.414 7  59439372.094 7  22242689.739 0  22242692.271 0
  11214860.019 7 129086598.990 6  23116855.299 0  23116856.310 0
 88  2 26 10 54 59.0800000  0  3  3 13 12
 -14966706.529 7  73078560.176 6  21210593.752 0  21210594.192 0
   4684285.013 7  59471623.730 7  22250566.807 0  22250567.450 0
  11317452.701 7 129166541.339 6  23136377.732 0  23136379.757 0
 88  2 26 10 55 29.0800000  0  3  3 13 12
 -14987834.532 7  73062096.792 6  21206572.734 0  21206573.403 0
   4725728.005 7  59503916.960 7  22258452.030 0  22258453.360 0
  11420203.347 7 129246606.763 6  23155931.424 0  23155932.741 0
 88  2 26 10 55 59.0800000  0  3  3 13 12
 -15008866.052 8  73045708.589 6  21202570.925 0  21202570.830 0
   4767225.454 7  59536252.636 7  22266349.589 0  22266351.205 0
  11523108.737 7 129326792.777 6  23175513.360 0  23175514.870 0
 88  2 26 10 56 29.0800000  0  3  3 13 12
 -15029801.132 7  73029395.536 6  21198586.460 0  21198587.901 0
   4808777.325 7  59568630.719 6  22274256.319 0  22274258.235 0
  11626165.015 7 129407096.390 7  23195123.808 0  23195125.965 0
 88  2 26 10 56 59.0800000  0  3  3 13 12
 -15050639.981 7  73013157.494 7  21194621.525 0  21194622.353 0
   4850384.242 7  59601051.692 7  22282173.596 0  22282175.596 0
  11729368.580 7 129487514.765 6  23214761.614 0  23214764.609 0
 88  2 26 10 57 29.0800000  0  3  3 13 12
 -15071382.448 7  72996994.536 6  21190675.235 0  21190675.283 0
   4892046.097 7  59633515.466 6  22290102.218 0  22290103.204 0
  11832716.492 7 129568045.589 7  23234428.341 0  23234431.430 0
 88  2 26 10 57 59.0800000  0  3  3 13 12
 -15092028.087 7  72980907.028 7  21186744.645 0  21186745.515 0
   4933763.597 8  59666022.611 7  22298040.729 0  22298041.772 0
  11936204.984 7 129648685.970 7  23254121.550 0  23254124.086 0
 88  2 26 10 58 29.0800000  0  3  3 13 12
 -15112576.556 7  72964895.229 7  21182834.336 0  21182835.963 0
   4975536.641 7  59698573.012 7  22305989.158 0  22305991.904 0
  12039830.733 7 129729433.303 7  23273842.278 0  23273844.059 0
 88  2 26 10 58 59.0800000  0  3  3 13 12
 -15133027.871 6  72948959.149 7  21178943.768 0  21178944.481 0
   5017365.661 7  59731167.066 6  22313949.418 0  22313950.646 0
  12143589.937 7 129810284.611 7  23293586.652 0  23293588.960 0
 88  2 26 10 59 29.0800000  0  3  3 13 12
 -15153381.960 7  72933098.824 7  21175069.617 0  21175072.390 0
   5059251.618 7  59763805.474 7  22321919.467 0  22321921.154 0
  12247479.316 6 129891237.379 7  23313354.691 0  23313358.100 0
 88  2 26 10 59 59.0800000  0  3  3 13 12
 -15173639.109 7  72917314.027 7  21171214.564 0  21171216.708 0
   5101193.851 7  59796487.721 7  22329900.289 0  22329903.737 0
  12351495.315 7 129972288.784 7  23333148.962 0  23333151.274 0
 88  2 26 11  0 29.0800000  0  3  3 13 12
 -15193798.729 7  72901605.243 6  21167378.742 0  21167380.357 0
   5143194.001 7  59829215.100 7  22337894.234 0  22337895.135 0
  12455634.357 8 130053436.084 7  23352966.477 0  23352968.752 0
 88  2 26 11  0 59.0800000  0  3  3 13 12
 -15213861.012 7  72885972.288 7  21163562.210 0  21163561.905 0
   5185251.974 7  59861987.548 7  22345896.836 0  22345897.980 0
  12559892.378 7 130134676.094 7  23372806.315 0  23372808.177 0
 88  2 26 11  1 29.0800000  0  3  3 13 12
 -15233825.260 7  72870415.741 6  21159761.530 0  21159762.471 0
   5227367.580 7  59894804.921 6  22353911.487 0  22353912.272 0
  12664266.953 7 130216006.937 7  23392667.268 0  23392670.483 0
 88  2 26 11  1 59.0800000  0  3  3 13 12
 -15253691.021 7  72854935.931 6  21155981.835 0  21155983.229 0
   5269541.577 7  59927667.757 6  22361936.769 0  22361937.668 0
  12768754.531 8 130297425.830 7  23412551.675 0  23412554.165 0
 88  2 26 11  2 29.0800000  0  3  3 13 12
 -15273458.364 7  72839532.801 6  21152220.257 0  21152220.112 0
   5311774.478 7  59960576.488 7  22369973.697 0  22369975.629 0
  12873350.964 8 130378929.541 7  23432455.125 0  23432458.168 0
 88  2 26 11  2 59.0800000  0  3  3 13 12
 -15293127.678 7  72824206.061 6  21148478.240 0  21148478.381 0
   5354066.109 7  59993530.997 7  22378021.770 0  22378022.875 0
  12978053.330 8 130460515.819 6  23452379.731 0  23452381.237 0
 88  2 26 11  3 29.0800000  0  3  3 13 12
 -15312698.271 6  72808956.248 6  21144752.702 0  21144752.804 0
   5396417.541 6  60026532.120 6  22386079.617 0  22386082.787 0
  13082857.890 8 130542181.734 7  23472323.684 0  23472325.897 0
 88  2 26 11  3 59.0800000  0  3  3 13 12
 -15332169.675 6  72793783.724 6  21141046.634 0  21141047.332 0
   5438829.256 7  60059580.214 7  22394150.761 0  22394151.826 0
  13187761.191 7 130623924.587 6  23492285.459 0  23492287.101 0
 88  2 26 11  4 29.0800000  0  3  3 13 12
 -15351541.956 7  72778688.444 6  21137361.830 0  21137362.689 0
   5481302.067 7  60092675.898 6  22402233.369 0  22402234.548 0
  13292759.503 7 130705741.456 5  23512265.612 0  23512268.306 0
 88  2 26 11  4 59.0800000  0  3  3 13 12
 -15370815.007 7  72763670.479 6  21133694.123 0  21133694.034 0
   5523835.428 7  60125818.782 7  22410327.995 0  22410328.427 0
  13397849.570 7 130787629.882 6  23532263.931 0  23532264.356 0
 88  2 26 11  5 29.0800000  0  3  3 13 12
 -15389988.028 7  72748730.474 6  21130046.091 0  21130047.231 0
   5566430.511 7  60159009.754 6  22418432.833 0  22418434.929 0
  13503028.183 7 130869587.270 6  23552278.519 0  23552279.692 0
 88  2 26 11  5 59.0800000  0  3  3 13 12
 -15409061.219 7  72733868.247 6  21126416.596 0  21126416.597 0
   5609087.219 7  60192248.738 6  22426550.914 0  22426550.392 0
  13608291.723 7 130951610.806 6  23572310.672 0  23572312.130 0
 88  2 26 11  6 29.0800000  0  3  3 13 12
 -15428034.031 7  72719084.242 6  21122805.121 0  21122805.679 0
   5651805.652 7  60225535.808 7  22434678.091 0  22434680.110 0
  13713636.687 6 131033697.817 6  23592356.272 0  23592358.834 0
 88  2 26 11  6 59.0800000  0  3  3 13 12
 -15446906.330 7  72704378.559 7  21119213.853 0  21119215.659 0
   5694586.734 7  60258871.725 7  22442819.280 0  22442821.377 0
  13819059.754 1 131115845.646 1  23612420.388 0  23612422.936 0
 88  2 26 11  7 29.0800000  0  3  3 13 12
 -15465677.458 7  72689751.694 6  21115642.105 0  21115643.280 0
   5737431.712 7  60292257.419 6  22450972.850 0  22450974.605 0
  13924557.796 6 131198051.889 7  23632493.442 0  23632495.196 0
 88  2 26 11  7 59.0800000  0  3  3 13 12
 -15484347.636 7  72675203.520 6  21112088.618 0  21112090.915 0
   5780339.719 7  60325692.229 7  22459138.865 0  22459140.041 0
  14030126.786 6 131280313.435 6  23652582.641 0  23652584.413 0
 88  2 26 11  8 29.0800000  0  3  3 13 12
 -15502916.310 7  72660734.424 6  21108556.006 0  21108555.303 0
   5823311.965 7  60359177.087 7  22467315.395 0  22467316.885 0
  14135763.665 7 131362627.883 7  23672683.834 0  23672686.242 0
 88  2 26 11  8 59.0800000  0  3  3 13 12
 -15521382.692 7  72646345.043 6  21105041.120 0  21105042.120 0
   5866348.930 7  60392712.376 7  22475506.184 0  22475506.267 0
  14241464.941 8 131444992.532 7  23692798.037 0  23692801.287 0
 88  2 26 11  9 29.0800000  0  3  3 13 12
 -15539747.262 5  72632034.985 6  21101548.007 0  21101547.451 0
   5909451.219 7  60426298.577 7  22483706.776 0  22483709.421 0
  14347227.410 7 131527404.856 7  23712925.056 0  23712926.983 0
 88  2 26 11  9 59.0800000  0  3  3 13 12
 -15558009.155 7  72617804.940 7  21098071.407 0  21098073.209 0
   5952618.879 7  60459935.700 7  22491922.399 0  22491924.299 0
  14453047.045 7 131609861.746 7  23733061.266 0  23733063.482 0
 88  2 26 11 10 29.0800000  0  3  3 13 12
 -15576167.827 7  72603655.338 6  21094617.305 0  21094616.109 0
   5995852.285 7  60493624.062 7  22500149.060 0  22500150.445 0
  14558920.778 8 131692360.755 7  23753207.774 0  23753210.500 0
 88  2 26 11 10 59.0800000  0  3  3 13 12
 -15594223.001 8  72589586.354 7  21091180.361 0  21091181.832 0
   6039152.800 7  60527364.709 7  22508388.408 0  22508390.050 0
  14664845.217 8 131774899.302 7  23773364.635 0  23773367.538 0
 88  2 26 11 11 29.0800000  0  3  3 13 12
 -15612174.738 7  72575597.995 6  21087765.612 0  21087766.041 0
   6082520.623 8  60561157.817 6  22516641.965 0  22516642.607 0
  14770816.714 8 131857474.520 7  23793531.647 0  23793533.574 0
 88  2 26 11 11 59.0800000  0  3  3 13 12
 -15630022.629 7  72561690.548 7  21084369.347 0  21084368.909 0
   6125955.941 7  60595003.507 7  22524907.156 0  22524909.385 0
  14876832.149 7 131940083.970 6  23813704.981 0  23813707.306 0
 88  2 26 11 12 29.0800000  0  3  3 13 12
 -15647765.858 7  72547864.653 7  21080991.734 0  21080992.629 0
   6169459.396 7  60628902.301 7  22533185.796 0  22533188.161 0
  14982888.050 7 132022724.986 6  23833886.104 0  23833889.431 0
 88  2 26 11 12 59.0800000  0  3  3 13 12
 -15665403.973 7  72534120.677 6  21077635.901 0  21077635.946 0
   6213031.610 7  60662854.670 7  22541476.927 0  22541478.204 0
  15088981.320 7 132105395.074 6  23854075.368 0  23854077.871 0
 88  2 26 11 13 29.0800000  0  3  3 13 12
 -15682936.760 7  72520458.771 7  21074298.798 0  21074299.262 0
   6256672.555 6  60696860.582 7  22549782.465 0  22549782.800 0
  15195108.280 7 132188091.399 6  23874270.823 0  23874271.682 0
 88  2 26 11 13 59.0800000  0  3  3 13 12
 -15700363.723 7  72506879.326 7  21070983.289 0  21070984.186 0
   6300383.308 7  60730920.917 7  22558099.527 0  22558102.135 0
  15301265.556 6 132270811.363 6  23894471.189 0  23894472.781 0
 88  2 26 11 14 29.0800000  0  3  3 13 12
 -15717684.189 7  72493382.869 6  21067686.632 0  21067687.716 0
   6344164.929 7  60765036.455 7  22566430.896 0  22566432.341 0
  15407450.182 6 132353552.629 6  23914677.314 0  23914681.466 0
 88  2 26 11 14 59.0800000  0  3  3 13 12
 -15734897.788 7  72479969.661 7  21064411.769 0  21064411.082 0
   6388017.572 7  60799207.325 7  22574776.017 0  22574776.504 0
  15513658.577 6 132436312.440 7  23934888.342 0  23934891.239 0
 88  2 26 11 15 29.0800000  0  3  3 13 12
 -15752004.286 8  72466639.929 7  21061155.441 0  21061156.581 0
   6431941.111 7  60833433.451 6  22583135.064 0  22583135.930 0
  15619886.836 6 132519087.721 6  23955103.801 0  23955104.633 0
 88  2 26 11 15 59.0800000  0  3  3 13 12
 -15769003.016 7  72453394.162 6  21057920.207 0  21057920.954 0
   6475936.856 7  60867715.850 6  22591506.921 0  22591507.795 0
  15726132.280 6 132601876.372 6  23975319.708 0  23975322.576 0
 88  2 26 11 16 29.0800000  0  3  3 13 12
 -15785893.866 7  72440232.462 6  21054707.626 0  21054707.807 0
   6520005.293 7  60902054.881 7  22599892.423 0  22599893.638 0
  15832391.587 6 132684675.861 6  23995540.964 0  23995543.232 0
 88  2 26 11 16 59.0800000  0  3  3 13 12
 -15802676.018 7  72427155.475 6  21051514.280 0  21051515.066 0
   6564146.694 7  60936450.758 7  22608292.143 0  22608294.636 0
  15938660.956 7 132767483.158 6  24015763.715 0  24015767.370 0
 88  2 26 11 17 29.0800000  0  3  3 13 12
 -15819349.428 7  72414163.217 6  21048341.904 0  21048340.953 0
   6608361.497 7  60970903.863 6  22616706.540 0  22616706.567 0
  16044937.286 8 132850295.918 7  24035987.882 0  24035990.373 0
 88  2 26 11 17 59.0800000  0  3  3 13 12
 -15835913.259 7  72401256.337 6  21045188.344 0  21045188.230 0
   6652650.296 7  61005414.613 7  22625134.225 0  22625134.911 0
  16151217.294 7 132933111.554 6  24056212.344 0  24056214.128 0
 88  2 26 11 18 29.0800000  0  3  3 13 12
 -15852366.558 7  72388435.572 6  21042057.599 0  21042058.888 0
   6697014.188 7  61039983.856 7  22633575.552 0  22633578.250 0
  16257498.004 7 133015927.702 6  24076436.675 0  24076439.023 0
 88  2 26 11 18 59.0800000  0  3  3 13 12
 -15868709.349 8  72375700.938 6  21038947.951 0  21038948.581 0
   6741453.621 7  61074611.980 7  22642033.115 0  22642034.410 0
  16363775.375 7 133098741.240 6  24096659.556 0  24096662.911 0
 88  2 26 11 19 29.0800000  0  3  3 13 12
 -15884941.057 7  72363052.857 6  21035859.001 0  21035859.007 0
   6785968.772 7  61109299.104 7  22650502.997 0  22650504.563 0
  16470046.129 8 133181549.641 6  24116883.096 0  24116885.946 0
 88  2 26 11 19 59.0800000  0  3  3 13 12
 -15901060.686 7  72350492.101 6  21032791.077 0  21032791.991 0
   6830561.201 7  61144046.433 7  22658988.579 0  22658990.190 0
  16576307.823 7 133264350.971 7  24137103.976 0  24137107.324 0
 88  2 26 11 20 29.0800000  0  3  3 13 12
 -15917067.965 7  72338018.905 6  21029744.942 0  21029746.585 0
   6875230.392 7  61178853.604 7  22667490.070 0  22667491.451 0
  16682556.607 7 133347142.275 6  24157322.369 0  24157324.479 0
 88  2 26 11 20 59.0800000  0  3  3 13 12
 -15932962.136 7  72325633.846 7  21026721.164 0  21026721.111 0
   6919977.479 7  61213721.461 7  22676004.324 0  22676005.978 0
  16788788.989 7 133429920.771 6  24177538.376 0  24177540.837 0
 88  2 26 11 21 29.0800000  0  3  3 13 12
 -15948742.966 7  72313337.085 6  21023718.369 0  21023719.552 0
   6964803.198 7  61248650.579 7  22684534.090 0  22684536.587 0
  16895002.357 7 133512684.450 6  24197749.302 0  24197751.741 0
 88  2 26 11 21 59.0800000  0  3  3 13 12
 -15964409.490 7  72301129.411 6  21020737.490 0  21020736.652 0
   7009707.718 7  61283641.099 6  22693078.911 0  22693080.749 0
  17001193.105 7 133595430.536 6  24217956.760 0  24217958.630 0
 88  2 26 11 22 29.0800000  0  3  3 13 12
 -15979961.719 7  72289010.788 6  21017776.511 0  21017776.692 0
   7054691.911 6  61318693.728 7  22701640.385 0  22701640.952 0
  17107357.930 7 133678156.356 7  24238159.563 0  24238162.057 0
 88  2 26 11 22 59.0800000  0  3  3 13 12
 -15995399.084 7  72276981.675 6  21014840.334 0  21014841.213 0
   7099756.253 6  61353808.787 6  22710214.397 0  22710216.919 0
  17213493.437 7 133760859.340 7  24258356.511 0  24258357.809 0
 88  2 26 11 23 29.0800000  0  3  3 13 12
 -16010720.071 7  72265043.252 7  21011924.017 0  21011924.834 0
   7144901.984 6  61388987.273 7  22718805.031 0  22718807.987 0
  17319596.499 7 133843537.051 7  24278547.283 0  24278548.832 0
 88  2 26 11 23 59.0800000  0  3  3 13 12
 -16025924.503 7  72253195.648 7  21009030.552 0  21009032.224 0
   7190129.115 7  61424229.173 7  22727411.954 0  22727414.120 0
  17425664.413 6 133926187.374 7  24298731.362 0  24298733.414 0
 88  2 26 11 24 29.0800000  0  3  3 13 12
 -16041011.583 7  72241439.488 7  21006159.008 0  21006160.618 0
   7235438.258 7  61459534.989 7  22736034.183 0  22736035.595 0
  17531693.532 7 134008807.469 6  24318907.575 0  24318909.832 0
 88  2 26 11 24 59.0800000  0  3  3 13 12
 -16055980.895 7  72229775.096 6  21003311.781 0  21003311.373 0
   7280830.193 7  61494905.326 7  22744672.247 0  22744673.698 0
  17637680.528 7 134091394.759 6  24339076.356 0  24339078.227 0
 88  2 26 11 25 29.0800000  0  3  3 13 12
 -16070831.493 7  72218203.179 6  21000485.229 0  21000486.778 0
   7326305.917 6  61530340.931 6  22753326.356 0  22753327.974 0
  17743622.025 7 134173946.570 6  24359236.660 0  24359238.905 0
 88  2 26 11 25 59.0800000  0  3  3 13 12
 -16085563.485 7  72206723.718 6  20997682.291 0  20997683.186 0
   7371865.090 7  61565841.582 6  22761995.160 0  22761997.731 0
  17849514.817 6 134256460.459 6  24379386.724 0  24379388.813 0
 88  2 26 11 26 29.0800000  0  3  3 13 12
 -16100175.850 7  72195337.444 6  20994900.616 0  20994900.674 0
   7417508.992 7  61601408.259 7  22770680.708 0  22770683.559 0
  17955355.928 6 134338934.048 6  24399528.945 0  24399531.352 0
 88  2 26 11 26 59.0800000  0  3  3 13 12
 -16114667.583 6  72184045.189 7  20992143.595 0  20992143.985 0
   7463238.792 7  61637041.860 7  22779383.646 0  22779384.543 0
  18061142.076 7 134421364.813 6  24419658.764 0  24419660.759 0
 88  2 26 11 27 29.0800000  0  3  3 13 12
 -16129037.996 7  72172847.469 7  20989408.863 0  20989410.157 0
   7509054.482 7  61672742.393 7  22788101.893 0  22788103.995 0
  18166870.479 7 134503750.586 6  24439778.475 0  24439779.542 0
 88  2 26 11 27 59.0800000  0  3  3 13 12
 -16143286.237 5  72161744.949 4  20986696.297 0  20986697.791 0
   7554956.858 7  61708510.469 7  22796835.413 0  22796838.662 0
  18272537.162 8 134586088.277 6  24459885.661 0  24459886.574 0
 88  2 26 11 28 29.0800000  0  3  3 13 12
 -16157411.865 5  72150737.950 4  20984008.666 0  20984010.374 0
   7600946.263 7  61744346.373 7  22805588.418 0  22805589.079 0
  18378139.542 7 134668375.881 6  24479980.564 0  24479983.478 0
 88  2 26 11 28 59.0800000  0  3  3 13 12
 -16171414.370 7  72139826.919 6  20981343.881 0  20981345.616 0
   7647023.906 7  61780251.031 7  22814357.464 0  22814358.757 0
  18483674.542 7 134750610.970 6  24500064.338 0  24500066.662 0
 88  2 26 11 29 29.0800000  0  2  3 13
 -16185292.713 7  72129012.626 6  20978703.885 0  20978703.809 0
   7693190.761 7  61816225.186 6  22823141.555 0  22823143.572 0
 88  2 26 11 29 59.0800000  0  2  3 13
 -16199046.500 7  72118295.415 7  20976086.788 0  20976088.215 0
   7739446.970 7  61852268.978 7  22831945.298 0  22831946.872 0
 88  2 26 11 30 29.0800000  0  2  3 13
 -16212674.475 7  72107676.189 6  20973493.990 0  20973494.400 0
   7785792.951 7  61888382.721 6  22840763.668 0  22840765.493 0
 88  2 26 11 30 59.0800000  0  2  3 13
 -16226176.143 7  72097155.433 7  20970924.241 0  20970923.706 0
   7832229.608 6  61924567.121 6  22849600.103 0  22849602.303 0
 88  2 26 11 31 29.0800000  0  2  3 13
 -16239551.130 7  72086733.354 6  20968379.285 0  20968379.346 0
   7878757.483 7  61960822.608 7  22858454.133 0  22858456.143 0
 88  2 26 11 31 59.0800000  0  2  3 13
 -16252798.328 7  72076410.869 6  20965858.844 0  20965858.738 0
   7925377.338 7  61997149.756 7  22867324.749 0  22867327.439 0
 88  2 26 11 32 29.0800000  0  2  3 13
 -16265916.920 7  72066188.587 7  20963362.472 0  20963361.656 0
   7972089.881 8  62033549.136 7  22876215.500 0  22876217.369 0
 88  2 26 11 32 59.0800000  0  2  3 13
 -16278905.742 7  72056067.427 7  20960889.233 0  20960890.568 0
   8018896.182 7  62070021.575 7  22885122.441 0  22885123.267 0
 88  2 26 11 33 29.0800000  0  2  3 13
 -16291764.352 7  72046047.729 6  20958442.610 0  20958443.429 0
   8065796.098 7  62106566.967 7  22894046.699 0  22894048.195 0
 88  2 26 11 33 59.0800000  0  2  3 13
 -16304491.780 7  72036130.254 7  20956021.362 0  20956021.990 0
   8112791.508 7  62143186.756 7  22902988.731 0  22902992.526 0
 88  2 26 11 34 29.0800000  0  2  3 13
 -16317087.406 7  72026315.492 7  20953624.324 0  20953623.784 0
   8159882.038 7  62179880.659 7  22911950.387 0  22911952.311 0
 88  2 26 11 34 59.0800000  0  2  3 13
 -16329550.226 7  72016604.213 7  20951253.024 0  20951253.599 0
   8207068.863 7  62216649.600 6  22920928.533 0  22920931.472 0
 88  2 26 11 35 29.0800000  0  2  3 13
 -16341879.876 7  72006996.685 6  20948905.782 0  20948907.064 0
   8254352.582 7  62253494.064 7  22929928.241 0  22929928.887 0
 88  2 26 11 35 59.0800000  0  2  3 13
 -16354074.858 7  71997494.102 6  20946586.396 0  20946585.560 0
   8301733.797 7  62290414.488 6  22938944.861 0  22938946.440 0
 88  2 26 11 36 29.0800000  0  2  3 13
 -16366134.407 7  71988097.052 6  20944291.512 0  20944291.091 0
   8349213.088 6  62327411.336 7  22947979.654 0  22947980.408 0
 88  2 26 11 36 59.0800000  0  2  3 13
 -16378058.290 7  71978805.712 7  20942021.770 0  20942022.139 0
   8396791.351 7  62364485.295 6  22957033.509 0  22957034.277 0
 88  2 26 11 37 29.0800000  0  2  3 13
 -16389845.294 8  71969621.028 7  20939778.437 0  20939780.669 0
   8444469.487 7  62401637.081 6  22966105.249 0  22966107.315 0
 88  2 26 11 37 59.0800000  0  2  3 13
 -16401494.150 7  71960544.003 6  20937562.488 0  20937562.300 0
   8492248.398 6  62438867.381 7  22975198.077 0  22975199.272 0
 88  2 26 11 38 29.0800000  0  2  3 13
 -16413004.226 1  71951575.119 1  20935371.419 0  20935373.984 0
   8540128.267 7  62476176.358 7  22984309.143 0  22984310.868 0
 88  2 26 11 38 59.0800000  0  2  3 13
 -16424374.901 2  71942714.836 1  20933207.513 0  20933210.712 0
   8588109.819 6  62513564.566 7  22993439.832 0  22993440.907 0
 88  2 26 11 39 29.0800000  0  2  3 13
 -16435605.016 7  71933964.108 6  20931071.069 0  20931071.944 0
   8636193.871 7  62551032.662 7  23002588.782 0  23002590.544 0
 88  2 26 11 39 59.0800000  0  2  3 13
 -16446693.429 7  71925323.797 7  20928960.962 0  20928961.532 0
   8684381.114 7  62588581.183 7  23011760.121 0  23011760.466 0
 88  2 26 11 40 29.0800000  0  2  3 13
 -16457639.366 7  71916794.492 6  20926877.337 0  20926878.225 0
   8732672.653 7  62626210.935 7  23020948.588 0  23020950.116 0
 88  2 26 11 40 59.0800000  0  2  3 13
 -16468442.377 7  71908376.558 7  20924822.251 0  20924822.568 0
   8781068.521 7  62663921.981 7  23030157.646 0  23030160.743 0
 88  2 26 11 41 29.0800000  0  2  3 13
 -16479101.068 7  71900071.090 7  20922794.249 0  20922793.843 0
   8829569.873 7  62701715.241 6  23039387.723 0  23039390.056 0
 88  2 26 11 41 59.0800000  0  2  3 13
 -16489614.695 7  71891878.634 6  20920794.227 0  20920794.043 0
   8878177.228 7  62739591.097 7  23048637.872 0  23048640.435 0
 88  2 26 11 42 29.0800000  0  2  3 13
 -16499982.357 7  71883799.930 6  20918820.827 0  20918821.235 0
   8926891.582 6  62777550.320 7  23057907.004 0  23057908.365 0
 88  2 26 11 42 59.0800000  0  2  3 13
 -16510203.143 7  71875835.699 6  20916875.540 0  20916876.783 0
   8975713.269 7  62815593.188 6  23067197.657 0  23067200.278 0
 88  2 26 11 43 29.0800000  0  2  3 13
 -16520275.196 7  71867987.342 7  20914957.815 0  20914958.949 0
   9024643.351 7  62853720.516 7  23076509.660 0  23076510.659 0
 88  2 26 11 43 59.0800000  0  2  3 13
 -16530198.115 7  71860255.205 6  20913071.519 0  20913071.277 0
   9073682.593 7  62891932.910 7  23085841.081 0  23085842.827 0
 88  2 26 11 44 29.0800000  0  2  3 13
 -16539970.840 7  71852640.082 6  20911211.042 0  20911212.544 0
   9122831.187 7  62930230.495 7  23095192.800 0  23095195.516 0
 88  2 26 11 44 59.0800000  0  2  3 13
 -16549592.701 7  71845142.528 7  20909380.573 0  20909381.364 0
   9172090.154 7  62968614.105 7  23104567.525 0  23104569.010 0
 88  2 26 11 45 29.0800000  0  2  3 13
 -16559062.651 7  71837763.339 6  20907577.876 0  20907577.750 0
   9221460.551 7  63007084.540 6  23113962.974 0  23113964.626 0
 88  2 26 11 45 59.0800000  0  2  3 13
 -16568379.217 7  71830503.676 7  20905805.463 0  20905807.069 0
   9270942.793 6  63045642.110 7  23123377.913 0  23123380.495 0
 88  2 26 11 46 29.0800000  0  2  3 13
 -16577541.747 8  71823364.053 6  20904061.036 0  20904062.630 0
   9320537.191 7  63084287.110 6  23132815.888 0  23132817.350 0
 88  2 26 11 46 59.0800000  0  2  3 13
 -16586549.222 7  71816345.244 7  20902346.462 0  20902348.335 0
   9370244.851 6  63123020.345 7  23142275.161 0  23142276.489 0
 88  2 26 11 47 29.0800000  0  2  3 13
 -16595400.347 7  71809448.261 6  20900664.049 0  20900663.343 0
   9420066.776 7  63161842.603 7  23151755.197 0  23151758.771 0
 88  2 26 11 47 59.0800000  0  2  3 13
 -16604094.218 7  71802673.817 7  20899008.823 0  20899009.285 0
   9470003.709 7  63200754.514 6  23161257.831 0  23161259.865 0
 88  2 26 11 48 29.0800000  0  2  3 13
 -16612630.028 7  71796022.523 6  20897384.012 0  20897385.074 0
   9520055.668 7  63239756.038 6  23170782.736 0  23170785.388 0
 88  2 26 11 48 59.0800000  0  2  3 13
 -16621006.383 7  71789495.499 6  20895790.567 0  20895790.830 0
   9570223.881 7  63278848.133 7  23180328.446 0  23180332.082 0
 88  2 26 11 49 29.0800000  0  2  3 13
 -16629222.640 7  71783093.226 7  20894226.657 0  20894226.459 0
   9620509.200 7  63318031.470 7  23189899.001 0  23189901.564 0
 88  2 26 11 49 59.0800000  0  2  3 13
 -16637277.509 7  71776816.709 6  20892694.501 0  20892694.915 0
   9670912.226 7  63357306.550 6  23199490.395 0  23199491.279 0
 88  2 26 11 50 29.0800000  0  2  3 13
 -16645169.868 7  71770666.817 6  20891192.287 0  20891192.648 0
   9721433.627 7  63396673.886 6  23209104.075 0  23209105.224 0
 88  2 26 11 50 59.0800000  0  2  3 13
 -16652898.360 7  71764644.617 7  20889721.563 0  20889721.920 0
   9772073.948 6  63436133.857 6  23218739.503 0  23218740.281 0
 88  2 26 11 51 29.0800000  0  2  3 13
 -16660462.265 7  71758750.656 6  20888281.984 0  20888282.102 0
   9822834.056 7  63475687.182 6  23228400.312 0  23228401.361 0
 88  2 26 11 51 59.0800000  0  2  3 13
 -16667860.732 7  71752985.615 7  20886874.327 0  20886874.680 0
   9873714.587 7  63515334.345 7  23238082.450 0  23238083.553 0
 88  2 26 11 52 29.0800000  0  2  3 13
 -16675092.006 7  71747350.868 6  20885498.085 0  20885499.757 0
   9924716.348 7  63555075.989 6  23247787.397 0  23247789.460 0
 88  2 26 11 52 59.0800000  0  2  3 13
 -16682155.315 6  71741847.002 6  20884154.522 0  20884154.917 0
   9975840.191 7  63594912.762 6  23257516.355 0  23257518.833 0
 88  2 26 11 53 29.0800000  0  2  3 13
 -16689049.242 8  71736475.106 7  20882842.307 0  20882842.657 0
  10027086.995 7  63634845.344 7  23267268.953 0  23267269.430 0
 88  2 26 11 53 59.0800000  0  2  3 13
 -16695773.428 7  71731235.477 6  20881562.714 0  20881563.185 0
  10078457.016 7  63674873.925 6  23277043.476 0  23277045.624 0
 88  2 26 11 54 29.0800000  0  2  3 13
 -16702326.284 7  71726129.372 6  20880314.800 0  20880315.187 0
  10129951.004 7  63714999.124 6  23286841.648 0  23286843.032 0
 88  2 26 11 54 59.0800000  0  2  3 13
 -16708706.316 7  71721157.919 6  20879102.583 0  20879101.824 0
  10181569.758 7  63755221.507 6  23296664.503 0  23296666.408 0
 88  2 26 11 55 29.0800000  0  2  3 13
 -16714912.346 7  71716322.053 7  20877920.769 0  20877921.395 0
  10233314.254 7  63795541.907 6  23306512.328 0  23306512.553 0
 88  2 26 11 55 59.0800000  0  2  3 13
 -16720943.685 7  71711622.296 7  20876772.102 0  20876774.494 0
  10285184.669 7  63835960.413 6  23316382.732 0  23316383.111 0
 88  2 26 11 56 29.0800000  0  2  3 13
 -16726799.183 7  71707059.589 6  20875659.194 0  20875660.060 0
  10337181.936 7  63876477.772 7  23326278.326 0  23326279.166 0
 88  2 26 11 56 59.0800000  0  2  3 13
 -16732477.766 8  71702634.707 6  20874577.963 0  20874578.854 0
  10389307.080 7  63917094.761 7  23336196.470 0  23336197.421 0
 88  2 26 11 57 29.0800000  0  2  3 13
 -16737978.120 8  71698348.725 7  20873531.503 0  20873531.076 0
  10441560.054 7  63957811.343 7  23346140.091 0  23346141.423 0
 88  2 26 11 57 59.0800000  0  2  3 13
 -16743299.104 7  71694202.509 6  20872519.454 0  20872519.670 0
  10493941.984 7  63998628.433 7  23356107.244 0  23356110.065 0
 88  2 26 11 58 29.0800000  0  2  3 13
 -16748439.169 7  71690197.258 6  20871541.406 0  20871542.610 0
  10546454.246 7  64039547.087 6  23366100.246 0  23366102.336 0
 88  2 26 11 58 59.0800000  0  2  3 13
 -16753397.209 7  71686333.843 7  20870596.955 0  20870597.995 0
  10599097.489 7  64080567.787 6  23376117.786 0  23376118.713 0
 88  2 26 11 59 29.0800000  0  2  3 13
 -16758172.533 7  71682612.812 7  20869688.372 0  20869689.769 0
  10651871.456 6  64121690.346 7  23386160.736 0  23386161.401 0
 88  2 26 11 59 59.0800000  0  2  3 13
 -16762763.674 7  71679035.295 7  20868814.582 0  20868815.677 0
  10704777.399 7  64162915.736 6  23396227.229 0  23396230.063 0
 88  2 26 12  0 29.0800000  0  2  3 13
 -16767169.311 7  71675602.329 7  20867976.392 0  20867977.439 0
  10757815.859 6  64204244.394 7  23406321.029 0  23406322.299 0
 88  2 26 12  0 59.0800000  0  2  3 13
 -16771388.013 7  71672315.030 6  20867174.328 0  20867173.604 0
  10810987.345 6  64245676.695 6  23416439.074 0  23416440.606 0
 88  2 26 12  1 29.0800000  0  2  3 13
 -16775419.330 7  71669173.744 6  20866405.399 0  20866407.748 0
  10864292.153 6  64287212.888 7  23426582.902 0  23426585.194 0
 88  2 26 12  1 59.0800000  0  2  3 13
 -16779261.369 7  71666179.958 7  20865675.912 0  20865676.002 0
  10917732.592 7  64328854.758 7  23436750.023 0  23436753.392 0
 88  2 26 12  2 29.0800000  0  2  3 13
 -16782913.059 8  71663334.476 6  20864980.943 0  20864980.659 0
  10971307.970 6  64370601.809 7  23446948.155 0  23446947.632 0
 88  2 26 12  2 59.0800000  0  2  3 13
 -16786373.172 7  71660638.281 6  20864321.800 0  20864323.975 0
  11025019.475 7  64412454.931 7  23457167.108 0  23457170.129 0
 88  2 26 12  3 29.0800000  0  2  3 13
 -16789640.971 7  71658091.950 7  20863700.153 0  20863699.837 0
  11078867.056 7  64454414.094 7  23467415.900 0  23467416.522 0
 88  2 26 12  3 59.0800000  0  2  3 13
 -16792714.215 7  71655697.215 6  20863115.117 0  20863116.363 0
  11132851.976 7  64496480.254 7  23477687.978 0  23477689.893 0
 88  2 26 12  4 29.0800000  0  2  3 13
 -16795591.905 7  71653454.851 8  20862567.531 0  20862568.721 0
  11186975.180 7  64538654.173 7  23487987.134 0  23487989.734 0
 88  2 26 12  4 59.0800000  0  2  3 13
 -16798273.261 7  71651365.485 7  20862056.448 0  20862058.398 0
  11241237.013 7  64580936.105 7  23498313.759 0  23498314.723 0
 88  2 26 12  5 29.0800000  0  2  3 13
 -16800757.216 7  71649429.936 6  20861585.702 0  20861586.394 0
  11295638.490 6  64623326.850 7  23508665.338 0  23508666.432 0
 88  2 26 12  5 59.0800000  0  2  3 13
 -16803041.904 7  71647649.655 7  20861150.472 0  20861151.109 0
  11350180.343 7  64665826.987 7  23519044.272 0  23519047.159 0
 88  2 26 12  6 29.0800000  0  2  3 13
 -16805126.125 7  71646025.591 7  20860753.977 0  20860754.392 0
  11404862.857 7  64708436.743 7  23529448.782 0  23529452.337 0
 88  2 26 12  6 59.0800000  0  2  3 13
 -16807008.747 7  71644558.614 6  20860395.431 0  20860397.147 0
  11459686.664 7  64751156.576 6  23539882.506 0  23539884.654 0
 88  2 26 12  7 29.0800000  0  2  3 13
 -16808688.653 7  71643249.589 7  20860075.726 0  20860076.446 0
  11514652.690 7  64793987.247 7  23550342.397 0  23550344.750 0
